[[{"header":{"parameterUnit":"m.s-1","parameterCategory":1,"la1":30.6,"la2":29.2853,"lo1":-89.7004,"lo2":-87.6739,"dy":0.0162,"dx":0.0183,"nx":112,"ny":82,"refTime":"2026-04-29T00:00:00:Z","depth":0,"parameterNumber":2,"parameterNumberName":"U-component_of_WINDS"},"data":[0.0,0.0,0.0,0.0,0.0,0.0,0.0,0.0,0.0,0.0,0.0,0.0,0.0,0.0,0.0,0.0,0.0,0.0,0.0,0.0,0.0,0.0,0.0,0.0,0.0,0.0,0.0,0.0,0.0,0.0,0.0,0.0,0.0,0.0,0.0,0.0,0.0,0.0,0.0,0.0,0.0,0.0,0.0,0.0,0.0,0.0,0.0,0.0,0.0,0.0,0.0,0.0,0.0,0.0,0.0,0.0,0.0,0.0,0.0,0.0,0.0,0.0,0.0,0.0,0.0,0.0,0.0,0.0,0.0,0.0,0.0,0.0,0.0,0.0,0.0,0.0,0.0,0.0,0.0,0.0,0.0,0.0,0.0,0.0,0.0,0.0,0.0,0.0,0.0,0.0,0.0,2.3592,2.4726,2.6063,2.7755,2.6294,2.4572,2.289,0.0,0.0,0.0,0.0,0.0,0.0,0.0,0.0,0.0,0.0,0.0,0.0,0.0,0.0,0.0,0.0,0.0,0.0,0.0,0.0,0.0,0.0,0.0,0.0,0.0,0.0,0.0,0.0,0.0,0.0,0.0,0.0,0.0,0.0,0.0,0.0,0.0,0.0,0.0,0.0,0.0,0.0,0.0,0.0,0.0,0.0,0.0,0.0,0.0,0.0,0.0,0.0,0.0,0.0,0.0,0.0,0.0,0.0,0.0,0.0,0.0,0.0,0.0,0.0,0.0,0.0,0.0,0.0,0.0,0.0,0.0,0.0,0.0,0.0,0.0,0.0,0.0,0.0,0.0,0.0,0.0,0.0,0.0,0.0,0.0,0.0,0.0,0.0,0.0,0.0,0.0,0.0,0.0,0.0,0.0,0.0,0.0,0.0,0.0,0.0,0.0,0.0,0.0,0.0,2.221,2.6687,2.6053,2.6024,2.7755,2.6294,2.4543,2.2736,0.0,0.0,0.0,0.0,0.0,0.0,0.0,0.0,0.0,0.0,0.0,0.0,0.0,0.0,0.0,0.0,0.0,0.0,0.0,0.0,0.0,0.0,0.0,0.0,0.0,0.0,0.0,0.0,0.0,0.0,0.0,0.0,0.0,0.0,0.0,0.0,0.0,0.0,0.0,0.0,0.0,0.0,0.0,0.0,0.0,0.0,0.0,0.0,0.0,0.0,0.0,0.0,0.0,0.0,0.0,0.0,0.0,0.0,0.0,0.0,0.0,0.0,0.0,0.0,0.0,0.0,0.0,0.0,0.0,0.0,0.0,0.0,0.0,0.0,0.0,0.0,0.0,0.0,0.0,0.0,0.0,0.0,0.0,0.0,0.0,0.0,0.0,0.0,0.0,0.0,0.0,0.0,0.0,0.0,0.0,0.0,0.0,0.0,0.0,0.0,0.0,0.0,0.0,2.0962,2.3122,2.6813,2.6063,2.5813,2.7082,2.5943,2.4411,2.2713,2.0861,0.0,0.0,0.0,0.0,0.0,0.0,0.0,0.0,0.0,0.0,0.0,0.0,0.0,0.0,0.0,0.0,0.0,0.0,0.0,0.0,0.0,0.0,0.0,0.0,0.0,0.0,0.0,0.0,0.0,0.0,0.0,0.0,0.0,0.0,0.0,0.0,0.0,0.0,0.0,0.0,0.0,0.0,0.0,0.0,0.0,0.0,0.0,0.0,0.0,0.0,0.0,0.0,0.0,0.0,0.0,0.0,0.0,0.0,0.0,0.0,0.0,0.0,0.0,0.0,0.0,0.0,0.0,0.0,0.0,0.0,0.0,0.0,0.0,0.0,0.0,0.0,0.0,0.0,0.0,0.0,0.0,0.0,0.0,0.0,0.0,0.0,0.0,0.0,0.0,0.0,0.0,0.0,0.0,0.0,0.0,0.0,0.0,0.0,0.0,0.0,0.0,0.0,2.2949,2.4341,2.6659,2.5898,2.5666,2.6741,2.5485,2.4024,2.2555,2.0477,0.0,0.0,0.0,0.0,0.0,0.0,0.0,0.0,0.0,0.0,0.0,0.0,0.0,0.0,0.0,0.0,0.0,0.0,0.0,0.0,0.0,0.0,0.0,0.0,0.0,0.0,0.0,0.0,0.0,0.0,0.0,0.0,0.0,0.0,0.0,0.0,0.0,0.0,0.0,0.0,0.0,0.0,0.0,0.0,0.0,0.0,0.0,0.0,0.0,0.0,0.0,0.0,0.0,0.0,0.0,0.0,0.0,0.0,0.0,0.0,0.0,0.0,0.0,0.0,0.0,0.0,0.0,0.0,0.0,0.0,0.0,0.0,0.0,0.0,0.0,0.0,0.0,0.0,0.0,0.0,0.0,0.0,0.0,0.0,0.0,0.0,0.0,0.0,0.0,0.0,0.0,0.0,0.0,0.0,0.0,0.0,0.0,0.0,0.0,0.0,0.0,0.0,2.3207,2.5822,2.7621,2.6148,2.569,2.7383,2.5126,2.3159,2.2106,1.9806,0.0,0.0,0.0,0.0,0.0,0.0,0.0,0.0,0.0,0.0,0.0,0.0,0.0,0.0,0.0,0.0,0.0,0.0,0.0,0.0,0.0,0.0,0.0,0.0,0.0,0.0,0.0,0.0,0.0,0.0,0.0,0.0,0.0,0.0,0.0,0.0,0.0,0.0,0.0,0.0,0.0,0.0,0.0,0.0,0.0,0.0,0.0,0.0,0.0,0.0,0.0,0.0,0.0,0.0,0.0,0.0,0.0,0.0,0.0,0.0,0.0,0.0,0.0,0.0,0.0,0.0,0.0,0.0,0.0,0.0,0.0,0.0,0.0,0.0,0.0,0.0,0.0,0.0,0.0,0.0,0.0,0.0,0.0,0.0,0.0,0.0,0.0,0.0,0.0,0.0,0.0,0.0,0.0,0.0,0.0,0.0,0.0,0.0,0.0,0.0,0.0,0.0,2.2699,2.4398,0.0,2.5447,2.5241,2.582,2.4802,2.3524,2.21,0.0,0.0,0.0,0.0,0.0,0.0,0.0,0.0,0.0,0.0,0.0,0.0,0.0,0.0,0.0,0.0,0.0,0.0,0.0,0.0,0.0,0.0,0.0,0.0,0.0,0.0,0.0,0.0,0.0,0.0,0.0,0.0,0.0,0.0,0.0,0.0,0.0,0.0,0.0,0.0,0.0,0.0,0.0,0.0,0.0,0.0,0.0,0.0,0.0,0.0,0.0,0.0,0.0,0.0,0.0,0.0,0.0,0.0,0.0,0.0,0.0,0.0,0.0,0.0,0.0,0.0,0.0,0.0,0.0,0.0,0.0,0.0,0.0,0.0,0.0,0.0,0.0,0.0,0.0,0.0,0.0,0.0,0.0,0.0,0.0,0.0,0.0,0.0,0.0,0.0,0.0,0.0,0.0,0.0,0.0,0.0,0.0,0.0,0.0,0.0,0.0,0.0,2.1122,2.2834,2.4136,0.0,2.5133,2.4972,2.5069,2.4209,2.3036,2.1606,0.0,0.0,0.0,0.0,0.0,0.0,0.0,0.0,0.0,0.0,0.0,0.0,0.0,0.0,0.0,0.0,0.0,0.0,0.0,0.0,0.0,0.0,0.0,0.0,0.0,0.0,0.0,0.0,0.0,0.0,0.0,0.0,0.0,0.0,0.0,0.0,0.0,0.0,0.0,0.0,0.0,0.0,0.0,0.0,0.0,0.0,0.0,0.0,0.0,0.0,0.0,0.0,0.0,0.0,0.0,0.0,0.0,0.0,0.0,0.0,0.0,0.0,0.0,0.0,0.0,0.0,0.0,0.0,0.0,0.0,0.0,0.0,0.0,0.0,0.0,0.0,0.0,0.0,0.0,0.0,0.0,0.0,0.0,0.0,0.0,0.0,0.0,0.0,0.0,0.0,0.0,0.0,0.0,0.0,0.0,0.0,0.0,0.0,0.0,0.0,0.0,0.0,2.1284,2.3822,2.5627,2.6244,2.5408,2.5051,2.5645,2.3303,2.1437,0.0,0.0,0.0,0.0,0.0,0.0,0.0,0.0,0.0,0.0,0.0,0.0,0.0,0.0,0.0,0.0,0.0,0.0,0.0,0.0,0.0,0.0,0.0,0.0,0.0,0.0,0.0,0.0,0.0,0.0,0.0,0.0,0.0,0.0,0.0,0.0,0.0,0.0,0.0,0.0,0.0,0.0,0.0,0.0,0.0,0.0,0.0,0.0,0.0,0.0,0.0,0.0,0.0,0.0,0.0,0.0,0.0,0.0,0.0,0.0,0.0,0.0,0.0,0.0,0.0,0.0,0.0,0.0,0.0,0.0,0.0,0.0,0.0,0.0,0.0,0.0,0.0,0.0,0.0,0.0,0.0,0.0,0.0,0.0,0.0,0.0,0.0,0.0,0.0,0.0,0.0,0.0,0.0,0.0,0.0,0.0,0.0,0.0,0.0,0.0,0.0,0.0,0.0,2.2158,2.4226,2.5627,2.6244,2.5408,2.5051,2.5645,2.3803,2.2042,2.0594,0.0,0.0,0.0,0.0,0.0,0.0,0.0,0.0,0.0,0.0,0.0,0.0,0.0,0.0,0.0,0.0,0.0,0.0,0.0,0.0,0.0,0.0,0.0,0.0,0.0,0.0,0.0,0.0,0.0,0.0,0.0,0.0,0.0,0.0,0.0,0.0,0.0,0.0,0.0,0.0,0.0,0.0,0.0,0.0,0.0,0.0,0.0,0.0,0.0,0.0,0.0,0.0,0.0,0.0,0.0,0.0,0.0,0.0,0.0,0.0,0.0,0.0,0.0,0.0,0.0,0.0,0.0,0.0,0.0,0.0,0.0,0.0,0.0,0.0,0.0,0.0,0.0,0.0,0.0,0.0,0.0,0.0,0.0,0.0,0.0,0.0,0.0,0.0,0.0,0.0,0.0,0.0,0.0,0.0,0.0,0.0,0.0,0.0,0.0,0.0,0.0,0.0,2.2594,2.4444,2.5657,2.6278,2.5463,2.5102,2.5662,2.3815,2.1998,2.0592,0.0,0.0,0.0,0.0,0.0,0.0,0.0,0.0,0.0,0.0,0.0,0.0,0.0,0.0,0.0,0.0,0.0,0.0,0.0,0.0,0.0,0.0,0.0,0.0,0.0,0.0,0.0,0.0,0.0,0.0,0.0,0.0,0.0,0.0,0.0,0.0,0.0,0.0,0.0,0.0,0.0,0.0,0.0,0.0,0.0,0.0,0.0,0.0,0.0,0.0,0.0,0.0,0.0,0.0,0.0,0.0,0.0,0.0,0.0,0.0,0.0,0.0,0.0,0.0,0.0,0.0,0.0,0.0,0.0,0.0,0.0,0.0,0.0,0.0,0.0,0.0,0.0,0.0,0.0,0.0,0.0,0.0,0.0,0.0,0.0,0.0,0.0,0.0,0.0,0.0,0.0,0.0,0.0,0.0,0.0,0.0,0.0,0.0,0.0,0.0,0.0,0.0,2.2656,2.4577,2.5871,2.6484,2.5761,2.5397,2.5841,2.3643,2.1748,2.062,0.0,0.0,0.0,0.0,0.0,0.0,0.0,0.0,0.0,0.0,0.0,0.0,0.0,0.0,0.0,0.0,0.0,0.0,0.0,0.0,0.0,0.0,0.0,0.0,0.0,0.0,0.0,0.0,0.0,0.0,0.0,0.0,0.0,0.0,0.0,0.0,0.0,0.0,0.0,0.0,0.0,0.0,0.0,0.0,0.0,0.0,0.0,0.0,0.0,0.0,0.0,0.0,0.0,0.0,0.0,0.0,0.0,0.0,0.0,0.0,2.0717,0.0,0.0,0.0,0.0,0.0,0.0,0.0,0.0,0.0,0.0,0.0,0.0,0.0,0.0,0.0,0.0,0.0,0.0,0.0,0.0,0.0,0.0,0.0,0.0,0.0,0.0,0.0,0.0,0.0,0.0,0.0,0.0,0.0,0.0,0.0,0.0,0.0,0.0,0.0,0.0,0.0,2.2753,2.5091,2.68,2.7575,2.7297,2.7096,2.7186,2.5201,2.3098,2.1097,1.9063,0.0,0.0,0.0,0.0,0.0,0.0,0.0,0.0,0.0,0.0,0.0,0.0,0.0,0.0,0.0,0.0,0.0,0.0,0.0,0.0,0.0,0.0,0.0,0.0,0.0,0.0,0.0,0.0,0.0,0.0,0.0,0.0,0.0,0.0,0.0,0.0,0.0,0.0,0.0,0.0,0.0,0.0,0.0,0.0,0.0,0.0,0.0,0.0,0.0,0.0,0.0,0.0,0.0,0.0,0.0,0.0,0.0,0.0,0.0,0.0,2.2621,0.0,0.0,0.0,0.0,0.0,0.0,0.0,0.0,0.0,0.0,0.0,0.0,0.0,0.0,0.0,0.0,0.0,0.0,0.0,0.0,0.0,0.0,0.0,0.0,0.0,0.0,0.0,0.0,0.0,0.0,0.0,0.0,0.0,0.0,0.0,0.0,0.0,0.0,0.0,0.0,2.3339,2.5519,2.7263,2.8489,2.8092,2.7669,2.7471,2.5816,2.4035,2.2267,2.0299,0.0,0.0,0.0,0.0,0.0,0.0,0.0,0.0,0.0,0.0,0.0,0.0,0.0,0.0,0.0,0.0,0.0,0.0,0.0,0.0,0.0,0.0,0.0,0.0,0.0,0.0,0.0,0.0,0.0,0.0,0.0,0.0,0.0,0.0,0.0,0.0,0.0,0.0,0.0,0.0,0.0,0.0,0.0,0.0,0.0,0.0,0.0,0.0,0.0,0.0,0.0,0.0,0.0,2.6903,2.7552,2.7615,2.9142,2.9861,2.9772,2.7089,2.6067,2.613,2.4386,0.0,0.0,0.0,0.0,0.0,0.0,0.0,0.0,0.0,0.0,0.0,0.0,0.0,0.0,0.0,0.0,0.0,0.0,0.0,0.0,0.0,0.0,0.0,0.0,2.4104,2.3824,2.057,0.0,0.0,0.0,0.0,0.0,0.0,0.0,0.0,0.0,0.0,0.0,2.4218,2.6026,2.7605,2.9148,2.8725,2.8088,2.7462,2.625,2.4937,2.3539,2.1692,2.0298,0.0,0.0,0.0,0.0,0.0,0.0,0.0,0.0,0.0,0.0,0.0,0.0,0.0,0.0,0.0,0.0,0.0,0.0,0.0,0.0,0.0,0.0,0.0,0.0,0.0,0.0,0.0,0.0,0.0,0.0,0.0,0.0,1.519,1.699,0.0,0.0,0.0,0.0,0.0,0.0,0.0,0.0,0.0,0.0,0.0,0.0,0.0,2.3941,2.716,2.7417,2.832,2.9863,3.0086,3.0206,3.0221,3.1138,3.1584,3.159,3.1914,0.0,2.8848,2.7026,0.0,0.0,0.0,0.0,0.0,0.0,0.0,0.0,0.0,0.0,0.0,0.0,0.0,0.0,0.0,0.0,0.0,0.0,0.0,0.0,0.0,0.0,2.6166,2.5759,2.5609,2.5501,0.0,2.3606,2.1139,1.7914,1.8018,0.0,0.0,0.0,0.0,0.0,0.0,0.0,2.5195,2.6926,2.8272,2.9206,2.9752,2.9463,2.7961,2.7471,2.6338,2.4119,2.3567,2.2993,2.2305,1.9943,0.0,0.0,0.0,0.0,0.0,0.0,0.0,0.0,0.0,0.0,0.0,0.0,0.0,0.0,0.0,0.0,0.0,0.0,0.0,0.0,0.0,0.0,0.0,0.0,0.0,0.0,0.0,0.0,0.0,1.5393,1.7615,1.9342,1.9247,1.917,0.0,0.0,0.0,0.0,0.0,0.0,0.0,0.0,0.0,2.5735,2.6538,2.7987,3.017,3.0064,3.0703,3.212,3.3059,3.3516,3.3552,3.4808,3.5425,3.5484,3.5268,3.4311,3.2763,3.0525,2.8285,2.6207,0.0,0.0,0.0,0.0,2.5138,2.5449,2.7198,2.7794,2.764,2.6659,0.0,0.0,0.0,0.0,0.0,0.0,0.0,2.5464,0.0,0.0,2.8872,2.8671,2.9007,2.917,2.8517,2.765,2.5847,0.0,2.1583,2.1054,1.852,0.0,0.0,0.0,0.0,2.4062,2.6152,2.7807,2.9101,2.994,3.0244,2.9682,2.7884,2.775,2.6849,2.4739,2.4204,2.3832,2.3543,2.1398,1.9984,0.0,0.0,0.0,0.0,0.0,0.0,0.0,0.0,0.0,0.0,0.0,0.0,0.0,0.0,0.0,0.0,0.0,0.0,0.0,0.0,0.0,0.0,0.0,0.0,0.0,0.0,0.0,0.0,1.7377,1.95,2.1411,2.1189,2.0947,0.0,0.0,0.0,0.0,0.0,0.0,2.3947,2.6791,2.8515,2.8725,2.9959,3.1246,3.2584,3.2551,3.3103,3.4245,3.556,3.6215,3.6265,3.7506,3.8142,3.818,3.7373,3.6671,3.5882,3.3192,3.0802,2.8852,2.8621,2.7548,2.6351,2.7953,2.8466,2.8658,3.0919,3.1698,3.1525,3.0429,2.9459,2.8294,2.6124,0.0,0.0,0.0,0.0,2.7979,2.8651,2.9822,3.086,3.0966,3.1558,3.1827,3.0855,3.0805,2.9716,0.0,2.4918,2.4341,2.2021,0.0,0.0,0.0,0.0,2.5681,2.7413,2.8612,2.9632,3.0471,3.0412,2.966,2.8122,2.7877,2.711,2.5509,2.4732,2.4332,2.4332,2.2699,2.1396,2.0535,0.0,0.0,0.0,0.0,0.0,0.0,0.0,0.0,0.0,0.0,0.0,0.0,0.0,0.0,0.0,0.0,0.0,0.0,0.0,0.0,0.0,0.0,0.0,0.0,0.0,0.0,0.0,0.0,0.0,2.3069,2.1693,0.0,0.0,0.0,0.0,2.142,2.4771,2.6843,2.6881,2.8572,2.9906,3.0734,3.1562,3.2805,3.4447,3.5268,3.6121,3.6996,3.7414,3.7604,3.7603,3.7868,3.8007,3.8007,3.7969,3.7731,3.7163,3.4117,3.2314,3.1429,3.0602,3.0094,2.986,3.0157,3.0657,3.1236,3.1591,3.1698,3.1814,3.2487,3.1866,3.077,3.0372,2.9205,0.0,0.0,2.94,2.9899,3.0601,3.1254,3.1784,3.1994,3.1911,3.1909,3.2283,3.2381,3.1221,0.0,2.714,2.718,2.5513,0.0,2.6529,2.6658,2.6797,2.7471,2.9157,2.9334,2.9613,3.0414,3.0202,2.974,2.9079,2.8103,2.7236,2.6561,2.5532,2.4946,2.4946,2.3823,2.2884,2.2205,1.9169,0.0,0.0,0.0,0.0,0.0,0.0,0.0,0.0,0.0,0.0,0.0,0.0,0.0,0.0,0.0,0.0,0.0,0.0,0.0,0.0,0.0,0.0,0.0,0.0,0.0,0.0,0.0,0.0,2.3795,2.3826,0.0,2.4081,2.4439,2.4866,2.5338,2.7438,2.8949,2.9531,3.113,3.2448,3.3258,3.3955,3.4911,3.6196,3.637,3.6656,3.7133,3.7797,3.8099,3.8118,3.874,3.903,3.9011,3.844,3.8133,3.7898,3.6254,3.5097,3.43,3.3997,3.3412,3.284,3.3601,3.4036,3.4395,3.5176,3.522,3.4749,3.3791,3.2392,3.1038,3.0959,3.0232,2.9514,2.9735,3.0273,3.0866,3.112,3.1689,3.2332,3.2737,3.2875,3.2926,3.2828,3.309,3.2756,3.0777,2.9921,2.9159,2.8063,2.7741,2.7488,2.7011,2.793,2.8876,2.9434,2.986,3.023,3.0479,3.0349,2.9896,2.8983,2.807,2.7165,2.626,2.5365,2.4617,2.4062,2.2895,2.1909,2.1168,1.8741,1.6705,0.0,0.0,0.0,0.0,0.0,0.0,0.0,0.0,0.0,0.0,0.0,0.0,0.0,0.0,0.0,0.0,0.0,0.0,0.0,0.0,0.0,0.0,0.0,0.0,0.0,0.0,2.3118,2.4882,2.5464,2.5803,2.6048,2.6641,2.7291,2.799,2.9588,3.0942,3.1821,3.3301,3.4437,3.5152,3.582,3.6526,3.7225,3.7336,3.7466,3.7654,3.8271,3.8563,3.8582,3.9289,3.9599,3.9561,3.8991,3.8658,3.8525,3.7976,3.7379,3.6739,3.6389,3.5803,3.525,3.5979,3.6319,3.6538,3.7243,3.7219,3.6606,3.5211,3.3821,3.271,3.2611,3.2049,3.1477,3.1626,3.1929,3.2229,3.21,3.2466,3.2902,3.2943,3.3094,3.3213,3.3204,3.3478,3.3639,3.3295,3.2144,3.1071,3.0559,2.9873,2.9205,2.8709,2.9396,2.9955,2.9873,3.0293,3.0501,3.0343,3.0234,2.987,2.9148,2.8025,2.7044,2.632,2.4939,2.3843,2.3148,2.2298,2.1462,2.0661,1.8799,1.6895,1.4972,0.0,0.0,0.0,0.0,0.0,0.0,0.0,0.0,0.0,0.0,0.0,0.0,0.0,0.0,0.0,0.0,0.0,0.0,0.0,0.0,0.0,0.0,0.0,2.1265,2.2665,2.4432,2.638,2.6353,2.6454,2.7178,2.8001,2.8676,2.9136,3.1197,3.2844,3.3781,3.4903,3.5742,3.6292,3.7074,3.7496,3.7514,3.8273,3.8676,3.8676,3.8961,3.9099,3.9099,3.9451,3.9595,3.9576,3.9632,3.9439,3.9136,3.9154,3.9007,3.8658,3.7573,3.7152,3.7152,3.7152,3.731,3.7547,3.7528,3.7354,3.7092,3.6783,3.6306,3.5816,3.5557,3.4801,3.4146,3.4549,3.4361,3.4012,3.3635,3.3582,3.3388,3.2663,3.2486,3.2713,3.3396,3.3587,3.3813,3.4532,3.3751,3.2974,3.3019,3.2415,3.197,3.2025,3.1294,0.0,3.0652,3.055,3.0356,3.0047,2.9813,2.9696,2.9696,2.796,2.6861,2.6786,2.4321,2.274,2.2399,2.2161,2.1649,2.0809,1.9367,1.7584,1.5492,0.0,0.0,0.0,0.0,0.0,0.0,0.0,0.0,0.0,0.0,0.0,0.0,0.0,0.0,0.0,0.0,0.0,0.0,0.0,0.0,0.0,2.1697,2.3222,2.266,2.4708,2.6382,2.6642,2.7572,2.8287,2.8492,2.9438,3.0352,3.1011,3.2422,3.3613,3.4401,3.5115,3.5833,3.6576,3.6812,3.7192,3.7787,3.8023,3.8099,3.815,3.8585,3.8803,3.8851,3.9494,3.9497,3.9016,4.017,4.0277,3.9736,4.0314,4.0509,4.0286,3.8826,3.8266,3.8266,3.8266,3.8412,3.8601,3.8206,3.7905,3.7561,3.6919,3.5978,3.5093,3.4992,3.4324,3.3639,3.3727,3.3686,3.3447,3.2866,3.3083,3.322,3.2308,3.2475,3.2862,3.2816,3.3216,3.3666,3.3864,3.4057,3.4068,3.3643,3.3086,3.2698,3.272,3.2071,0.0,3.1476,3.0765,3.0219,3.0018,2.9813,2.9625,2.9494,2.7732,2.651,2.6319,2.3786,2.226,2.2131,2.1092,1.9932,1.8682,1.7539,1.6417,0.0,0.0,0.0,0.0,0.0,0.0,0.0,0.0,0.0,0.0,0.0,0.0,0.0,0.0,0.0,0.0,0.0,0.0,0.0,0.0,0.0,0.0,2.3896,2.5619,2.535,2.6574,2.765,2.8081,2.8907,2.9685,3.0332,3.0987,3.1854,3.2983,3.3621,3.4419,3.5491,3.5759,3.6203,3.6898,3.6916,3.7113,3.7614,3.7614,3.7739,3.8061,3.8606,3.9024,3.9352,4.0061,4.0157,3.9772,4.0708,4.0836,4.0432,4.0928,4.1111,0.0,0.0,0.0,0.0,0.0,3.8913,3.8887,3.8696,3.8443,3.8174,3.7701,3.6906,3.606,3.5864,3.5262,3.4601,3.4363,3.4336,3.4165,3.3462,3.357,3.366,3.2714,3.2866,3.3089,3.2773,3.3187,3.3556,3.3449,3.3994,0.0,3.4016,3.3633,3.3384,3.3385,3.2791,3.2132,3.1539,3.0997,3.0421,2.982,2.9643,2.9398,2.8997,2.7629,0.0,0.0,0.0,2.1814,2.1156,2.0338,0.0,0.0,0.0,0.0,0.0,0.0,0.0,0.0,1.6368,1.5973,0.0,0.0,0.0,0.0,0.0,0.0,0.0,0.0,0.0,0.0,0.0,0.0,0.0,0.0,0.0,0.0,2.6098,2.8242,2.8735,2.8495,2.8763,3.0023,3.0281,3.0869,3.2154,3.2439,3.3127,3.4656,3.4674,3.5169,3.6487,0.0,0.0,0.0,0.0,3.715,3.7238,3.7238,3.7588,3.8364,3.8866,3.95,4.0221,4.0862,4.1119,4.113,4.1295,4.1332,4.1258,4.135,4.1332,4.1167,4.0341,4.0029,4.0,3.9499,3.9172,3.9007,3.9249,0.0,0.0,3.8982,3.8551,3.7969,3.7521,3.6935,3.6308,3.581,3.5667,3.5425,3.4688,3.4563,3.4438,3.3609,3.3482,3.343,3.3124,3.3279,3.3489,3.3283,3.3698,3.4104,3.4176,3.4074,3.398,3.3996,3.344,3.2619,3.1428,3.1238,3.0798,2.9658,0.0,0.0,2.8453,2.7587,2.6525,2.5218,2.3289,2.1569,2.0114,2.0131,2.0223,2.032,2.0335,2.0438,2.059,2.0657,2.1167,2.198,1.9799,1.9022,0.0,0.0,0.0,0.0,0.0,0.0,0.0,0.0,0.0,0.0,0.0,0.0,0.0,0.0,0.0,2.6499,2.8484,3.0106,3.1155,3.124,3.1039,3.063,3.1359,3.1968,3.2297,3.3242,3.4014,3.4506,3.4902,3.5346,3.5797,3.618,3.6457,3.6539,3.6563,3.6817,3.7426,3.7426,3.7808,3.8556,0.0,0.0,4.0239,4.0998,4.125,4.1185,4.247,4.2671,4.2121,4.2763,4.2653,4.1992,4.1185,4.0873,4.0855,4.0767,4.068,4.0634,4.0712,4.068,4.0653,4.0653,3.9826,3.8832,3.8761,3.7651,0.0,3.6249,3.5941,3.5436,3.4758,3.499,3.5065,3.3781,3.3885,3.4126,3.3464,3.3223,3.3192,3.3455,3.344,3.3579,3.4104,3.4402,3.4567,3.4545,3.3847,3.3223,3.2975,3.1653,3.0633,3.04,2.9292,2.8529,2.8402,2.7181,2.6085,2.5394,2.3753,2.228,2.0996,2.1507,2.1434,2.0662,2.061,2.0853,2.1303,2.1637,2.2361,2.3439,2.1575,2.0904,0.0,0.0,0.0,0.0,0.0,0.0,0.0,0.0,0.0,0.0,0.0,2.1422,2.3474,0.0,2.7478,2.8796,3.0356,3.1602,3.2202,3.2469,3.225,3.1342,3.207,3.269,3.2838,3.3741,3.4641,3.5394,3.5446,3.5617,3.5994,3.6028,3.6199,3.6593,3.661,3.697,3.7678,3.7678,3.8054,3.8836,3.9355,3.9919,4.0583,4.1576,4.1994,4.1958,4.3027,4.3259,4.2928,4.3314,4.3259,4.2855,4.2451,4.1809,4.1111,4.1111,4.1111,4.1111,4.1111,4.1111,4.1111,4.1111,4.0635,4.0049,3.9787,3.8627,3.7341,3.7054,3.6302,3.5515,3.5207,3.5362,3.5431,3.471,3.4807,3.4861,3.4117,3.4192,3.4283,3.3706,3.389,3.4006,3.3743,3.4,3.4302,3.4442,3.4214,3.3799,3.3105,3.2296,3.137,3.0215,2.9439,2.8703,2.7926,2.6389,2.5295,2.4809,2.3455,2.2288,2.1478,2.1781,2.1749,2.1216,2.1201,2.1606,2.2465,2.2909,2.3772,2.4924,2.4249,2.3864,0.0,0.0,0.0,0.0,0.0,0.0,0.0,0.0,2.062,2.2104,2.3617,2.512,2.67,2.8863,3.0485,3.065,3.1898,3.2834,3.2834,3.3121,3.2965,3.2057,3.2693,3.3257,3.338,3.427,3.5232,3.6172,3.5941,3.5898,3.6224,3.6007,3.6129,3.6755,3.6797,3.7124,3.7881,3.7734,3.8053,3.8757,3.9364,4.0018,4.0728,4.1835,4.248,4.275,4.325,4.3497,4.3497,4.3497,4.3497,4.3497,4.3497,4.2708,4.1589,4.1589,4.1589,4.1589,4.1589,4.1589,4.1589,4.1589,4.1376,4.1095,4.0655,3.9562,3.8337,3.7728,3.674,3.5808,3.5656,3.5622,3.5622,3.5622,3.5622,3.5453,3.4844,3.5261,3.5451,3.427,3.4443,3.4477,3.3676,3.3556,3.3625,3.3836,3.4181,3.3976,3.2738,3.2621,3.1953,3.0143,2.9717,2.8965,2.7405,2.5814,2.4684,2.426,2.3188,2.2422,2.2069,2.2069,2.2069,2.2069,2.2174,2.272,2.3764,2.4297,2.5082,2.6156,2.6505,2.6387,2.1697,2.0804,2.0307,2.1018,2.1185,2.1875,0.0,0.0,2.4634,2.6636,2.7211,2.7857,2.947,3.0571,3.1494,3.2228,3.3091,3.3678,3.3678,3.3707,3.3419,3.2517,3.3347,3.3842,3.3431,3.5094,3.6053,3.5722,3.6054,3.6139,3.5694,3.631,3.6688,3.6772,3.6753,3.7048,3.7791,3.7134,3.7214,3.7923,3.8668,3.9341,3.9966,4.0758,4.1664,4.275,4.325,4.3497,4.3497,4.3497,4.3497,4.3497,4.3497,4.3387,4.3222,4.3222,4.3222,4.3222,4.3222,4.3222,4.3222,4.3222,4.2394,4.1341,4.1304,4.0015,3.8417,3.7715,3.709,3.6485,3.5808,3.5622,3.5622,3.5622,3.5622,3.5605,3.5504,3.5444,3.5423,3.5592,3.4658,3.4049,3.4702,3.3604,3.2681,3.2695,3.3069,3.3171,3.2588,3.1916,3.1369,3.1133,3.0147,2.887,2.7258,2.5891,2.4939,2.4387,2.3823,2.3413,2.3385,2.3385,2.3385,2.3385,2.386,2.4405,2.4978,2.5538,2.6073,2.6624,2.6691,2.6657,2.4135,2.4094,0.0,0.0,2.4694,2.5264,2.7013,2.6932,2.7004,2.8823,2.9567,3.0228,3.1403,3.2247,3.2908,0.0,3.3587,3.3807,3.3807,3.3606,3.3196,3.2583,3.3069,3.3446,3.3397,3.4551,3.5377,3.5588,3.5827,3.5827,3.5622,3.6349,3.6801,3.6737,3.7133,3.7474,3.7809,3.7472,3.7518,3.7822,3.8525,3.9053,3.932,4.0394,4.1578,4.275,4.325,4.3497,4.3497,4.3497,4.3497,4.3497,4.3497,4.3497,4.3497,4.3497,4.3497,4.3497,4.3497,4.3497,4.3444,4.3142,4.2666,4.2075,4.1725,4.0539,3.9153,3.8391,3.7528,3.6603,3.5825,3.5622,3.5622,3.5622,3.5622,3.5622,3.5622,3.5771,3.5953,3.5909,3.5669,3.5277,3.4721,3.4055,3.3247,3.2231,3.25,3.2713,3.2517,3.2201,3.1714,3.1024,2.9903,2.8655,2.7205,2.6335,2.5417,2.4446,2.3921,2.3595,2.3595,2.3595,2.3595,2.3595,2.4116,2.4511,2.4752,2.6037,2.673,2.6947,2.7702,2.8027,2.5563,0.0,0.0,2.6902,2.745,2.8142,2.8836,2.8925,2.9222,3.0307,3.098,3.1568,3.2173,3.2926,3.3431,3.3323,3.3506,3.3578,3.3447,3.3196,3.284,3.2366,3.2509,3.272,3.2833,3.3845,3.4621,3.4964,3.5199,3.5337,3.5305,3.6085,3.6555,3.6718,3.7205,3.7504,3.7456,3.7294,3.7191,3.7175,3.7889,3.8398,3.8635,4.0199,4.1402,4.2244,4.2958,4.3286,4.3286,4.3444,4.3497,4.3497,4.3497,4.3497,4.3497,4.3497,4.3497,4.3497,4.3497,4.3497,4.341,4.2864,4.2577,4.2342,4.1707,4.0767,3.9738,3.898,3.7957,3.6907,3.6146,3.5774,3.5622,3.5622,3.5622,3.5622,3.5622,3.6139,3.6549,3.63,3.6381,3.6121,3.4934,3.4228,3.3368,3.2001,3.2004,3.2162,3.2162,3.2162,3.1795,3.092,2.9907,2.8858,2.7783,2.7016,2.61,2.5077,2.4301,2.3969,2.4148,2.3984,2.3969,2.4148,2.4837,2.5196,2.5196,2.6853,2.7603,2.7657,2.8558,2.9093,0.0,0.0,2.6836,2.7363,2.8717,3.0016,3.0368,3.1083,3.1611,3.1421,3.1366,3.1403,3.1421,3.21,3.2501,3.2105,3.2726,3.3045,3.2616,3.2517,3.235,3.1897,3.1842,3.1726,0.0,3.3292,3.4253,3.3601,3.4244,3.4644,3.4611,3.5332,3.6037,3.6686,3.6632,3.6645,3.6676,3.5958,3.5569,3.5569,3.6337,3.7084,3.7921,3.9968,4.0903,4.1041,4.2203,4.2732,4.275,4.3304,4.3497,4.3497,4.3497,4.3497,4.3497,4.3497,4.3497,4.3497,4.3497,4.3497,4.341,4.2864,4.2302,4.1707,4.1133,4.0528,3.9935,3.9206,3.843,3.7702,3.6941,3.618,3.5622,3.5622,3.5622,3.5622,3.5622,3.644,3.7173,3.7155,3.6537,3.5936,3.5606,3.3771,3.2241,3.1873,3.147,3.123,3.123,3.123,3.123,3.1196,3.0497,2.9849,2.9294,2.8037,2.7037,2.6461,2.5272,2.4836,2.5525,2.4941,2.4896,2.554,2.6635,2.723,2.723,2.8389,2.8941,2.8941,2.8975,2.9364,0.0,0.0,2.9003,2.9117,3.0181,3.1349,3.1998,3.1839,3.1654,3.2107,3.1347,3.076,3.1292,3.0951,3.0912,3.1849,3.2002,3.2125,3.2446,3.2704,3.2596,3.1877,3.1635,0.0,0.0,0.0,0.0,3.287,3.3145,3.3643,3.4574,3.531,3.5737,3.5888,3.638,3.6399,3.5894,3.5619,3.5504,3.5504,3.6275,3.7306,3.858,3.9648,4.0426,4.0949,4.175,4.2121,4.2162,4.2732,4.2976,4.3014,4.3375,4.3497,4.3497,4.3497,4.3286,4.3014,4.3375,4.3497,4.341,4.2864,4.2302,4.1664,4.1087,4.0546,3.9935,3.9191,3.8819,3.8345,3.711,3.6586,3.6265,3.574,3.5622,3.5622,3.5622,3.5898,3.6249,3.6603,3.6474,3.6194,3.5865,3.4559,3.2946,3.1099,3.1021,3.119,3.119,3.119,3.119,3.119,3.097,3.0269,2.8835,2.8297,2.7403,2.5971,2.5483,2.5375,2.56,2.539,2.539,2.5615,2.6698,2.7294,2.7294,2.8938,2.9736,2.9736,3.0226,3.0581,2.7784,2.911,3.0503,3.0958,3.167,3.2344,3.2747,3.2318,3.1733,3.1384,3.0503,2.9727,2.9539,2.9105,2.9268,3.0722,3.0858,3.1208,3.2476,3.2485,3.2376,3.2372,3.1767,3.1194,0.0,0.0,0.0,3.1813,3.2507,3.3319,3.4138,3.4857,3.5341,3.5523,3.5951,3.6006,3.5504,3.5133,3.4986,3.4986,3.6072,3.7128,3.8101,3.8755,3.9323,3.9817,4.0723,4.1108,4.1153,4.2003,4.2382,4.2422,4.2734,4.2885,4.2885,4.2885,4.2657,4.2462,4.3014,4.3069,4.2828,4.2501,4.2121,4.1664,4.1087,4.0797,4.0539,3.9644,3.9353,3.9007,3.7899,3.7178,3.6654,3.6146,3.5825,3.5622,3.5622,3.5739,3.5985,3.6333,3.6374,3.618,3.5449,3.3962,3.2253,3.0558,3.0435,3.0576,3.0576,3.0757,3.0797,3.0576,3.0576,3.0053,2.8881,2.8558,2.7919,2.6699,2.6221,2.6063,2.6303,2.6078,2.6078,2.6303,2.7449,2.8046,2.8046,2.9686,3.0497,3.0497,3.097,3.1095,2.9729,3.0562,3.1296,3.2631,3.2953,3.2882,3.2621,3.2496,3.1788,2.9452,2.8883,2.8246,0.0,0.0,2.763,2.8798,2.9341,3.0404,3.2654,3.2012,3.1833,0.0,0.0,0.0,0.0,0.0,0.0,3.0546,0.0,3.3383,3.3516,3.4113,3.4722,3.5409,3.5424,3.5424,3.5359,3.4394,3.3959,3.4027,3.571,3.6538,3.6615,3.7397,3.7748,3.7863,3.9166,3.9716,3.9817,4.1091,4.1647,4.1707,4.169,4.175,4.181,4.175,4.175,4.1853,4.24,4.2244,4.181,4.181,4.1768,4.1664,4.1087,4.1268,4.1508,4.0385,3.9953,3.9681,3.9117,3.7956,3.6874,3.6806,3.6214,3.5673,3.5622,3.6028,3.6333,3.6333,3.6291,3.583,3.4438,3.2134,3.0408,3.0287,2.9793,2.9406,2.9406,2.9892,3.0021,2.9451,2.9406,2.9406,2.9361,2.8826,2.8463,2.8479,2.7303,2.6916,2.7595,2.6976,2.6931,2.761,2.8764,2.9361,2.9361,3.0518,3.1112,3.1112,3.1055,3.0723,3.0709,3.1464,3.2047,3.2397,3.2381,3.2237,3.2154,3.0998,2.9727,2.9122,2.7567,2.6109,0.0,0.0,0.0,2.7595,2.8754,0.0,3.2212,3.2676,0.0,3.3372,0.0,3.2064,3.155,3.0907,0.0,0.0,3.1057,3.1721,3.3425,3.3451,3.3754,3.438,3.4394,3.4041,3.3325,3.3101,3.331,3.4027,3.447,3.531,3.6615,3.6783,3.7219,3.7822,3.8157,3.8309,3.8365,3.9101,3.9765,4.0292,4.0138,4.0815,4.175,4.1138,4.0993,4.1133,4.1313,4.1534,4.181,4.181,4.149,4.1087,4.0949,4.075,4.0466,4.0171,4.0068,3.9895,3.9172,3.8717,3.8142,3.7043,3.662,3.6315,3.574,3.5694,3.5661,3.514,3.4655,3.4023,3.3129,3.1983,3.0879,2.988,2.9513,2.9406,2.9406,2.954,2.9585,2.9406,2.9406,2.9225,2.8779,2.8606,2.8334,2.786,2.751,2.7395,2.761,2.746,2.7445,2.7625,2.8367,2.8732,2.8732,2.9496,2.9848,2.9848,2.9294,2.8976,3.1638,3.2293,3.2637,3.2448,3.2191,3.1802,3.1117,2.9937,2.8567,2.7031,2.5643,0.0,0.0,0.0,0.0,0.0,0.0,0.0,3.1972,3.2673,3.3152,0.0,3.3088,0.0,3.2414,3.1551,3.124,0.0,3.1707,3.2126,3.3279,3.3456,3.3464,3.3366,3.338,3.2961,3.196,3.2393,3.2664,3.282,3.3602,3.4537,3.5439,3.5897,3.6352,3.6829,3.71,3.7263,3.7322,3.8004,3.8488,3.89,3.8784,3.9257,4.0048,3.9898,3.99,4.0051,4.0414,4.075,4.1105,4.1313,4.1178,4.0903,4.0903,4.0874,4.072,4.0254,4.0286,4.0314,3.9662,3.9225,3.8785,3.7956,3.7246,3.6608,3.5793,3.5379,3.4941,3.4284,3.3633,3.3029,3.2586,3.1722,3.0721,2.9673,2.9242,2.8933,2.8669,2.881,2.8904,2.8638,2.8638,2.8448,2.814,2.8091,2.7944,2.7625,2.7625,2.7625,2.7625,2.7306,2.71,2.71,2.7419,2.751,2.751,2.7753,2.7854,2.7854,2.7036,2.6541,3.2507,3.2975,3.2978,3.2409,3.1912,3.1117,2.9645,2.8739,2.7392,2.4357,0.0,2.2826,2.0865,2.1457,2.2987,2.5179,0.0,2.8392,3.1792,3.2256,3.2831,3.432,3.3416,3.2892,3.3534,3.2312,3.1839,3.2587,3.317,3.338,3.3105,3.3425,3.3241,3.2464,3.2321,3.1829,3.1044,3.1829,3.1888,3.1254,3.2961,3.3876,3.4027,3.5052,3.5504,3.5569,3.6165,3.6446,3.6508,3.7235,3.7515,3.7632,3.7531,3.7648,3.7863,3.8414,3.8674,3.8854,3.9558,3.9782,3.9935,4.0559,4.0716,4.0651,4.0763,4.107,4.1251,4.0336,4.0466,4.0703,4.0204,3.9614,3.9106,3.9005,3.7939,3.6734,3.586,3.5005,3.4186,3.3582,3.2933,3.2455,3.2357,3.1221,3.0143,2.9562,2.8793,2.8091,2.7498,2.7989,2.814,2.7509,2.756,2.756,2.7458,2.756,2.7625,2.7625,2.7524,2.7458,2.7458,2.664,2.6201,2.6201,2.5952,2.576,2.5664,2.5438,2.5244,2.5096,2.4218,2.354,3.3148,3.3049,3.2358,3.1271,3.0,2.8778,2.7901,2.5941,0.0,0.0,0.0,2.127,2.0627,2.1919,2.3439,2.4528,0.0,0.0,0.0,0.0,3.2831,0.0,0.0,0.0,0.0,0.0,0.0,0.0,3.3425,3.338,3.3105,3.2219,3.1609,3.1462,3.0696,3.0216,3.0075,3.0216,3.0558,3.118,3.2321,3.3241,3.4027,3.5052,3.5504,3.5504,3.5619,0.0,3.5733,3.5846,3.6243,3.6737,3.6133,3.6662,3.7748,3.7203,3.744,3.8035,3.8149,3.8206,3.843,3.98,3.9783,3.937,4.002,3.9817,3.951,4.0003,4.0171,4.0204,4.0121,3.9986,3.9732,3.914,3.8345,3.7326,3.5976,3.4249,3.2895,3.2803,3.216,3.1709,3.1702,3.0452,2.9479,2.9361,2.7797,2.6553,2.6441,2.7223,2.7494,2.6774,2.7255,2.7357,2.6721,2.7255,2.7625,2.7625,2.7034,2.6669,2.6669,2.5287,2.452,2.452,2.3785,2.3018,2.2278,2.2228,2.1799,2.0971,2.0172,1.9717,3.2491,3.2277,3.1696,3.0643,2.9093,2.7514,2.6355,0.0,0.0,0.0,0.0,1.9636,1.874,0.0,0.0,0.0,0.0,0.0,0.0,0.0,0.0,0.0,0.0,0.0,0.0,0.0,0.0,0.0,3.3022,3.2767,3.2845,3.1329,3.0482,3.0482,2.9998,2.9998,3.0558,3.0075,3.0495,3.196,3.2393,3.3101,3.4027,3.5052,3.5504,3.5504,3.5504,3.5213,3.4691,3.4691,3.4633,3.4478,3.4148,3.4736,3.5854,3.5839,3.6415,3.7219,3.7632,3.7822,3.7921,3.8652,3.8652,3.8414,3.8778,3.8652,3.843,3.8761,3.8887,3.8887,3.8887,3.8887,3.8804,3.8459,3.7273,3.591,3.4819,3.3185,3.2007,3.2007,3.1739,3.1351,3.097,3.0263,2.9528,2.8753,2.7788,2.6895,2.6263,2.6595,2.6626,2.5988,2.6602,2.6721,2.6014,2.6982,2.7291,2.6481,2.6496,2.6133,2.5301,2.4134,2.3065,2.2164,2.1334,2.018,1.871,1.8267,1.7507,1.6579,1.5727,1.53,3.1355,3.1242,3.0906,2.9875,2.8237,2.654,2.5011,2.3519,0.0,0.0,1.862,1.8169,1.7207,0.0,0.0,0.0,0.0,0.0,0.0,0.0,0.0,0.0,0.0,0.0,0.0,0.0,0.0,0.0,3.2864,3.2563,3.2623,3.1206,3.0432,3.0432,3.0432,3.0771,3.1462,3.0771,3.1132,3.2593,3.2593,3.2961,3.3739,3.4558,3.4854,3.4854,3.4854,3.4409,3.3671,3.3671,3.3241,3.2593,3.2593,3.3031,3.3794,3.4434,3.5106,3.5854,3.6461,3.6705,3.6705,3.6705,3.7037,3.7573,3.7764,3.769,3.7515,3.7541,3.7526,3.7451,3.7227,3.7168,3.7196,3.7245,3.5922,3.4488,3.3645,3.2448,3.1482,3.1482,3.1351,3.1029,3.0389,3.0011,2.935,2.8118,2.7678,2.7134,2.6215,2.5986,2.5689,2.5151,2.5812,2.596,2.5231,2.6375,2.6573,2.519,2.5522,2.4996,2.3379,2.2419,2.1058,1.919,1.837,1.7004,1.5041,1.4339,1.3499,1.2541,1.182,1.1487,3.0216,3.0335,2.9959,2.839,2.686,2.5385,2.3892,0.0,0.0,1.8625,1.768,1.7149,1.7701,1.7872,0.0,0.0,0.0,0.0,0.0,0.0,0.0,0.0,0.0,0.0,0.0,0.0,0.0,0.0,3.3696,3.3474,3.2664,3.2464,3.2321,3.2321,3.2321,3.2393,3.2464,3.2393,3.2464,3.2593,3.2593,3.2664,3.2749,3.282,3.289,3.289,3.289,3.282,0.0,3.2749,3.2664,3.2593,3.2593,3.2664,3.2749,3.2792,3.2862,3.3003,3.3059,3.3059,3.3059,3.3059,3.4728,3.6843,3.7573,3.7279,3.6691,3.6566,3.652,3.6306,3.541,3.519,3.518,3.5411,3.5078,3.4488,3.3645,3.2448,3.1482,3.1482,3.0896,3.0389,3.0329,2.9002,2.7907,2.7723,2.662,2.5813,2.5646,2.5216,2.4709,2.4215,2.4945,2.5175,2.4452,2.5119,2.5232,2.4292,2.367,2.2528,2.0705,1.9154,1.7417,1.5454,1.456,1.3165,1.1206,1.1138,1.0576,0.9648,0.9583,0.9583,2.8841,2.9154,2.9162,2.7538,2.6031,2.4425,2.2496,0.0,1.8623,1.7636,1.662,1.5946,1.618,1.6215,1.6593,0.0,1.831,1.9626,2.2405,0.0,0.0,0.0,0.0,0.0,0.0,0.0,0.0,3.2796,3.3769,3.3893,3.2925,3.2695,3.2321,3.1742,3.2321,3.289,3.3449,3.2321,3.2321,3.3449,3.2321,3.2033,3.2593,3.2593,3.2593,3.2593,3.2593,3.2321,0.0,3.1742,3.1053,2.9897,2.9897,2.9847,2.9872,3.0514,3.1122,3.1707,3.2365,3.2593,3.2593,3.2593,3.3338,3.4263,3.4567,3.4449,3.4196,3.4138,3.4124,3.4042,3.3607,3.3539,3.355,3.3642,3.3358,3.306,3.2731,3.2035,3.1482,3.1482,3.0837,3.0133,2.9628,2.8492,2.7537,2.704,2.6523,2.5784,2.4896,2.4597,2.3989,2.2843,2.4249,2.4766,2.3675,2.4213,2.3806,2.1995,2.1542,2.0054,1.7188,1.6451,1.4948,1.2408,1.2012,1.1027,0.9226,0.9226,0.8623,0.7492,0.7606,0.7646,2.6917,2.7374,2.7718,2.636,2.5084,2.363,0.0,1.9703,1.7986,1.6747,1.5785,1.5103,1.5037,1.5065,1.5247,0.0,1.6375,1.7533,1.9656,0.0,0.0,0.0,0.0,0.0,0.0,0.0,0.0,3.1962,3.2918,3.3115,3.2354,3.2333,3.2129,3.1596,3.2249,3.289,3.3602,3.2249,3.2321,3.3533,3.1629,3.104,3.1675,3.1061,3.0764,3.0764,3.0764,3.0403,0.0,2.9846,2.8917,2.7602,2.7602,2.7556,2.7577,2.8294,2.9285,3.0276,3.1,3.1496,3.1756,3.1756,3.1974,3.2105,3.1829,3.2177,3.2522,3.2249,3.1715,3.1249,3.1249,3.1222,3.1269,3.1602,3.1598,3.1499,3.1701,3.1368,3.0937,3.0807,3.0072,2.9317,2.8748,2.792,2.7015,2.6164,2.6025,2.5587,2.4143,2.4015,2.3537,2.2257,2.3167,2.3435,2.2357,2.2579,2.183,1.953,1.8982,1.7321,1.4253,1.3821,1.2473,0.9916,0.9927,0.921,0.7671,0.7107,0.6433,0.5783,0.6371,0.6623,2.4319,2.4933,2.5385,2.4688,2.3951,2.3021,0.0,1.9528,1.7581,1.6112,1.5263,1.4797,1.4797,1.4964,1.4997,1.4658,1.5554,1.6619,1.7424,1.8883,0.0,0.0,0.0,0.0,0.0,0.0,2.9241,3.0862,3.1013,0.0,3.0466,3.1305,3.2055,3.2579,3.2593,3.2593,3.2593,3.2593,3.2593,3.2593,3.0514,2.9515,2.9439,2.7475,2.6554,2.6554,2.6554,2.6554,0.0,2.6554,2.6565,2.6483,2.6483,2.6483,2.6554,2.6565,2.7197,2.8164,2.8164,2.8858,2.9869,2.9869,3.0495,3.1044,3.0139,3.1132,3.2393,3.1462,2.9705,2.8164,2.8164,2.808,2.8234,2.9285,2.9799,3.0166,3.0692,3.0314,2.9656,2.9113,2.8298,2.7736,2.7736,2.704,2.6164,2.5158,2.5016,2.4636,2.3661,2.3514,2.3324,2.276,2.1768,2.0876,2.0255,1.9958,1.9002,1.7027,1.5658,1.4112,1.2291,1.1243,0.9841,0.7855,0.8192,0.7667,0.6278,0.4219,0.3636,0.453,0.5928,0.674,2.3225,2.3875,2.438,2.2832,2.217,2.1508,1.9959,1.8046,1.6411,1.5919,1.4891,1.4165,1.4293,1.451,1.4938,1.5649,1.5399,0.0,0.0,0.0,0.0,0.0,0.0,0.0,0.0,0.0,2.8053,2.8544,2.969,3.0118,2.9715,2.966,3.0249,3.1583,3.2249,3.2593,3.2593,3.1209,3.0439,3.0452,2.8385,2.7475,2.7394,2.6789,2.6483,2.6483,2.6483,2.6483,2.6483,2.6483,2.6058,2.5378,2.5378,2.4882,2.4307,2.5041,2.5535,2.6025,2.7602,2.8347,2.8767,2.9534,3.0419,3.1044,3.0075,3.0633,3.1462,3.0495,2.9225,2.8096,2.8096,2.7498,2.6989,2.7394,2.8285,2.9004,2.873,2.9253,2.9656,2.9113,2.7788,2.671,2.671,2.5496,2.4325,2.4036,2.3963,2.3345,2.1587,2.1349,2.0755,1.9173,1.7987,1.8136,2.0073,1.8222,1.6374,1.5134,1.3376,1.1516,0.9557,0.9375,0.8535,0.6979,0.6962,0.6738,0.6304,0.5648,0.5592,0.6307,0.6632,0.6895,0.0,2.2135,2.2904,2.1444,2.0992,2.0458,1.885,1.7127,1.5716,1.5147,1.4147,1.354,1.3926,1.4184,1.4584,1.5263,1.5131,0.0,0.0,0.0,0.0,0.0,0.0,0.0,0.0,2.4622,2.5603,2.5971,2.6952,2.7518,2.7476,2.7396,2.7858,2.9124,2.991,3.0302,3.0302,2.8999,2.8385,2.8385,2.6662,2.5891,2.5808,2.5389,2.5231,2.5231,2.5231,2.5231,0.0,2.5231,2.4808,2.4125,2.4125,2.3714,2.3222,2.3887,2.4457,2.5041,2.6356,2.7105,2.7695,2.8779,2.9871,3.062,3.0419,3.0482,3.0558,2.9921,2.8937,2.8016,2.7602,2.6707,2.5891,2.5891,2.6439,2.6919,2.6701,2.7254,2.7554,2.7056,2.599,2.525,2.525,2.3944,2.2785,2.236,2.2029,2.109,1.9427,1.8831,1.8108,1.679,1.5262,1.5109,1.6988,1.5358,1.3768,1.279,1.1055,0.9519,0.8427,0.8016,0.7067,0.5341,0.5938,0.628,0.6299,0.559,0.5939,0.7059,0.6997,0.7054,0.0,1.9849,2.0885,2.0284,2.0125,1.9671,1.8053,1.6708,0.0,1.4025,1.3239,1.3049,1.3775,1.3999,1.4095,1.417,1.4941,0.0,0.0,0.0,0.0,0.0,0.0,0.0,0.0,2.1534,2.2403,2.3294,2.3441,2.3727,2.4133,2.4525,2.4937,2.5447,2.5831,2.6179,2.6483,2.6389,2.6389,2.64,2.521,2.4713,2.4617,2.3551,2.3135,0.0,2.3135,2.3135,2.3135,2.3135,2.3135,2.3135,2.3135,2.3135,2.3135,2.3135,2.38,2.4702,2.4787,2.5462,2.6554,2.7671,2.8767,2.9754,3.0657,3.0393,2.9792,2.9792,2.8937,2.7844,2.6801,2.563,2.4787,2.4702,2.4441,2.4307,2.4791,2.4601,2.4108,2.353,2.3356,2.3283,2.3198,2.2296,2.1202,2.0169,1.9206,1.8179,1.7066,1.6024,1.533,1.5248,1.3323,1.198,1.198,1.1773,1.1161,1.0134,0.8875,0.8218,0.8491,0.7159,0.5471,0.3444,0.4979,0.6011,0.6354,0.4651,0.4952,0.7056,0.7088,0.7139,1.6655,0.0,1.839,1.7724,1.7382,1.7041,0.0,1.5516,1.4608,0.0,0.0,1.3467,1.4638,1.4441,1.487,1.7227,1.6679,1.6113,0.0,0.0,0.0,0.0,0.0,0.0,0.0,2.147,2.2103,2.2328,2.3073,2.3397,2.3101,2.2418,2.1959,2.1899,2.1235,2.2656,2.6472,2.563,2.521,2.521,2.4049,2.3464,2.3464,2.3222,2.3135,2.3135,2.3135,2.3135,2.3135,2.3135,2.3135,2.3135,2.3135,2.3135,2.3135,2.3135,2.3299,2.3637,2.4542,2.4957,2.5525,2.7336,2.7624,2.7441,2.8373,2.9176,2.9792,2.9792,2.8937,2.7844,2.6801,2.563,2.4542,2.3714,2.3873,2.4154,2.3748,2.4051,2.3924,2.2531,2.1621,2.0871,2.0053,1.9076,1.7983,1.6879,1.6547,1.5643,1.3664,1.3155,1.2662,1.1855,1.0499,0.9648,0.9648,0.9602,0.9497,0.9252,0.8001,0.7389,0.7414,0.5467,0.4913,0.6147,0.3108,0.3282,0.6946,0.6449,0.6593,0.7122,0.7136,0.7139,1.5544,1.7044,1.8422,1.7914,1.7645,1.7294,1.6656,0.0,0.0,0.0,0.0,0.0,1.499,1.5152,0.0,1.7704,1.7407,0.0,0.0,0.0,0.0,0.0,0.0,0.0,0.0,2.0595,2.0653,2.0653,2.0613,2.0518,2.0241,1.9839,1.9587,1.9475,1.9117,2.0593,2.4053,2.3471,2.3211,2.3211,2.3105,2.2775,2.2306,2.2862,2.3135,2.3135,2.3135,2.3135,2.3135,2.3135,2.3387,2.3877,2.3877,2.4221,2.4563,2.4049,2.3877,2.3877,2.3963,2.4372,2.5031,2.6124,2.6487,2.6625,2.7128,2.774,2.8303,2.8303,2.7867,2.7197,2.6637,2.563,2.4617,2.4049,2.3476,2.2939,2.2073,2.1899,2.1433,2.0042,1.9321,1.862,1.7515,1.6514,1.5389,1.4248,1.3587,1.2952,1.2163,1.1386,1.0885,1.0609,0.9104,0.804,0.804,0.804,0.804,0.8032,0.7425,0.7084,0.7108,0.5866,0.5838,0.7105,0.3527,0.3434,0.7082,0.7061,0.7084,0.7071,0.7058,0.7139,1.5312,1.743,1.9397,1.8783,1.8778,1.8586,1.7328,0.0,0.0,0.0,0.0,0.0,0.0,0.0,0.0,0.0,0.0,0.0,0.0,0.0,0.0,0.0,0.0,0.0,2.0323,1.9362,1.8718,1.8718,1.7649,1.6993,1.683,1.702,1.7036,1.6922,1.729,1.8256,2.0073,2.0704,2.0935,2.0935,2.2013,2.2041,2.1025,2.2041,2.2589,2.2589,2.2775,0.0,2.2862,2.3047,2.3637,2.4542,2.4542,2.5136,2.5891,2.4882,2.4542,2.4372,2.3474,2.3714,2.4542,2.4351,2.4935,2.5692,2.5514,2.543,2.543,2.543,2.5953,2.6483,2.6307,2.5546,2.4787,2.4617,2.322,2.1617,2.0466,1.9589,1.855,1.7082,1.683,1.6398,1.5097,1.4115,1.3037,1.1906,1.093,1.0559,1.1065,0.9634,0.8849,0.9433,0.772,0.6554,0.6554,0.6923,0.7104,0.7094,0.6732,0.6745,0.7045,0.7135,0.7135,0.7135,0.5109,0.5097,0.7084,0.7084,0.7074,0.7139,0.7139,0.7139,1.6874,1.846,1.917,1.7082,1.752,1.813,0.0,0.0,0.0,0.0,0.0,0.0,0.0,0.0,0.0,0.0,0.0,0.0,0.0,0.0,0.0,0.0,0.0,1.9283,1.9283,1.823,1.7585,1.7585,1.653,1.5442,1.4566,1.3646,1.2839,1.2153,1.2198,1.2957,1.4475,1.7757,1.9398,1.9398,1.9889,1.9943,1.9761,1.9951,2.0042,2.0133,0.0,2.1569,2.1658,2.2677,2.3222,2.3387,2.3387,2.3474,2.3637,2.3474,2.3387,2.3299,2.3135,2.3222,2.3202,2.2189,2.1994,2.1887,2.0899,2.0541,2.0541,2.0541,2.3421,2.6307,2.5294,2.4957,2.4542,2.3551,2.2575,2.1617,2.0466,1.9589,1.8123,1.5058,1.4483,1.3807,1.1696,1.1198,1.0687,0.9566,0.9519,0.9196,0.7967,0.5894,0.455,0.4643,0.4376,0.4109,0.4109,0.593,0.7128,0.7128,0.5198,0.5018,0.7042,0.7135,0.7135,0.7135,0.6748,0.6732,0.7084,0.7084,0.7074,0.7139,0.7139,0.7139,1.6125,1.775,1.8815,1.7156,1.8503,1.9979,0.0,0.0,0.0,0.0,0.0,0.0,0.0,0.0,0.0,0.0,0.0,0.0,0.0,0.0,0.0,0.0,0.0,1.7802,1.726,1.6129,1.5223,1.4601,1.3523,1.2693,1.2213,1.1605,1.1144,1.0845,1.085,1.1154,1.185,1.3774,1.5513,1.6943,1.7897,1.8257,1.8297,1.9125,1.9497,1.9488,2.0124,2.0305,2.0395,2.0944,2.1915,2.2969,2.2309,2.3191,2.4893,2.4211,2.326,2.212,2.212,2.1676,2.1042,2.0486,2.0305,2.0215,1.9679,1.9497,1.9497,1.9497,2.1069,2.2717,2.2776,2.2368,2.1957,2.2036,2.1016,1.9528,1.7833,1.686,1.5464,1.2711,1.2128,1.1616,1.0009,0.9666,0.9323,0.812,0.8047,0.7978,0.72,0.6201,0.4484,0.197,0.1612,0.2689,0.531,0.6505,0.5961,0.3416,0.2241,0.2151,0.3235,0.323,0.4491,0.7045,0.7108,0.7091,0.7084,0.7074,0.7061,0.7139,0.7139,0.7139,1.5676,1.7221,1.862,1.8185,0.0,0.0,2.0827,0.0,0.0,0.0,0.0,0.0,0.0,0.0,0.0,0.0,0.0,0.0,0.0,0.0,0.0,1.745,1.6797,1.6246,1.5749,1.435,1.299,1.1935,1.1052,1.0569,1.0569,1.012,0.9758,0.9758,0.9758,0.9758,0.9758,1.0,1.1499,1.4218,1.5376,1.5889,1.5945,1.7084,1.7598,1.7674,1.7942,1.8271,1.864,1.8915,2.0245,2.2105,2.1087,2.2408,2.4735,2.3892,2.2416,2.0836,2.0541,1.981,1.8907,1.8341,1.8149,1.8149,1.7787,1.7702,1.7702,1.7702,1.7702,1.8141,2.0185,2.0155,1.9645,2.0167,1.9167,1.7422,1.511,1.4082,1.2948,1.0616,1.0183,0.9836,0.8715,0.8452,0.8201,0.7258,0.6631,0.6462,0.7042,0.6132,0.3595,-0.1169,-0.1708,0.0269,0.5053,0.5417,0.3873,0.027,-0.0,-0.0,-0.0,-0.0,0.17,0.5397,0.6189,0.6719,0.7084,0.7064,0.7139,0.7139,0.7139,0.7139,1.7099,1.8012,1.8819,2.0057,0.0,0.0,1.9966,0.0,0.0,0.0,0.0,0.0,0.0,0.0,0.0,0.0,0.0,0.0,0.0,0.0,1.7051,1.6413,1.4813,1.4405,1.5989,1.3598,1.1581,1.0763,1.066,1.0622,1.0622,0.8533,0.7361,0.7361,0.7361,0.7361,0.7361,0.7361,0.875,1.141,1.1727,1.1925,1.193,1.2038,1.2167,1.2277,1.3432,1.4682,1.6094,1.7172,1.8485,1.9753,1.9662,1.9753,2.0017,1.9935,1.9761,1.948,1.8195,1.7712,1.7242,1.5006,1.4254,1.3981,1.2791,1.242,1.242,1.242,1.242,1.355,1.8349,1.9579,1.919,1.7995,1.7349,1.6296,1.377,1.288,1.1936,0.9519,0.9061,0.8627,0.7401,0.7228,0.7234,0.7081,0.5275,0.4652,0.6857,0.3235,-0.1348,-0.6065,-0.6601,-0.4672,0.0089,0.0537,0.0358,-0.0,-0.0,-0.0,-0.0,-0.0,0.0179,0.0537,0.3479,0.563,0.7084,0.7064,0.7139,0.7139,0.7139,0.7139,1.5715,1.6838,1.7887,1.8665,0.0,0.0,0.0,0.0,0.0,0.0,0.0,0.0,0.0,0.0,0.0,0.0,0.0,0.0,0.0,1.5363,1.4291,1.404,1.3002,1.2155,1.1875,1.004,0.8115,0.6378,0.6289,0.6257,0.6257,0.5364,0.4919,0.4919,0.4919,0.4919,0.4919,0.4917,0.6183,0.8585,0.9633,1.0529,1.1251,1.1389,1.1502,1.159,1.2176,1.2659,1.3237,1.3749,1.4747,1.6053,1.6772,1.6593,1.6053,1.6772,1.6593,1.5866,1.5376,1.464,1.3909,1.2967,1.2587,1.2496,1.2037,1.1945,1.1945,1.1945,1.1945,1.2323,1.4309,1.4779,1.4684,1.41,1.3796,1.3067,1.1273,1.061,0.9878,0.8128,0.7753,0.7665,0.7139,0.7064,0.7078,0.7094,0.6379,0.3944,-0.1077,-0.3325,-0.5133,-0.6876,-0.7128,-0.6382,-0.4567,-0.3038,-0.1608,-0.009,-0.0,-0.0,-0.0,-0.0,-0.0,-0.0,0.1163,0.3576,0.7118,0.7088,0.7071,0.7071,0.7058,0.7139,1.4798,1.6107,1.747,0.0,0.0,0.0,0.0,0.0,0.0,0.0,0.0,0.0,0.0,0.0,0.0,0.0,0.0,0.0,1.6175,1.4091,1.249,1.2215,1.1236,1.005,0.8613,0.7644,0.5758,0.2686,0.2459,0.2486,0.2502,0.2503,0.1787,0.0267,0.1696,0.2502,0.2499,0.3217,0.4746,0.7115,0.7606,0.8527,0.9883,1.0012,1.0104,1.0177,1.0315,1.0599,1.1051,1.1173,1.2047,1.3329,1.4368,1.4291,1.3657,1.4266,1.3891,1.3165,1.3199,1.2657,1.1712,1.0904,1.0699,1.0699,1.0699,1.0699,1.0699,1.0699,1.0699,1.0699,1.0699,1.1277,1.1755,1.1361,1.1149,1.0677,0.921,0.879,0.8367,0.7265,0.7058,0.7061,0.7061,0.7078,0.7094,0.7111,0.7125,0.3681,-0.588,-0.7058,-0.7131,-0.7121,-0.7104,-0.7098,-0.7098,-0.5638,-0.402,-0.2324,-0.1522,-0.0807,-0.0,-0.0,-0.0,-0.0,-0.0,0.1611,0.4853,0.5646,0.6358,0.7084,0.7071,0.7058,1.48,1.6158,0.0,0.0,0.0,0.0,0.0,0.0,0.0,0.0,0.0,0.0,0.0,0.0,0.0,1.8881,1.7595,1.628,1.5305,1.3469,1.1906,1.123,0.9665,0.8163,0.7073,0.6986,0.5106,0.0347,-0.0,-0.0,-0.0,-0.0,-0.2156,-0.6952,-0.2516,-0.009,-0.0,0.2329,0.4761,0.7045,0.5552,0.563,0.7084,0.7061,0.7224,0.737,0.737,0.8176,0.9532,0.9729,1.0592,1.1955,1.2813,1.3138,1.3035,1.2124,1.1825,1.1835,1.1821,1.1845,1.1439,0.8796,0.7989,0.7989,0.7989,0.7989,0.7989,0.7989,0.7989,0.7989,0.7989,0.9929,1.1556,1.0293,0.9998,0.951,0.7942,0.7597,0.7506,0.72,0.7071,0.7084,0.7084,0.7094,0.7111,0.7131,0.7045,0.3592,-0.5787,-0.7058,-0.7121,-0.7088,-0.7084,-0.7084,-0.7084,-0.7084,-0.7091,-0.7101,-0.4919,-0.2503,-0.009,-0.0,-0.0,-0.0,-0.0,-0.0,-0.0,0.241,0.4736,0.6996,0.7084,0.7074,1.3792,1.5254,0.0,0.0,0.0,0.0,0.0,0.0,0.0,0.0,0.0,0.0,0.0,0.0,0.0,1.8833,1.6802,1.5144,1.5201,1.2304,1.0062,0.9921,0.819,0.6264,0.4456,0.2918,0.1481,0.0083,-0.0,-0.0,-0.0,-0.0,-0.2211,-0.6949,-0.5768,-0.3409,-0.0,0.0716,0.1433,0.2156,0.3946,0.5649,0.7084,0.7061,0.7166,0.7214,0.7322,0.7668,0.8,0.8288,0.8531,0.8972,0.9418,0.8439,0.6705,0.6407,0.6307,0.631,0.6323,0.6329,0.6229,0.5429,0.5229,0.5229,0.5229,0.5229,0.5229,0.5229,0.5229,0.5229,0.5229,0.5715,0.6702,0.824,0.8466,0.8229,0.7736,0.7516,0.7383,0.7111,0.7081,0.6539,0.4914,0.6017,0.7128,0.7135,0.4228,0.1077,-0.1704,-0.5027,-0.7104,-0.7088,-0.7071,-0.7061,-0.7061,-0.7061,-0.7071,-0.7088,-0.645,-0.4202,-0.0179,-0.0,-0.0,-0.0,-0.0,-0.0,-0.0,0.0716,0.1429,0.2145,0.5549,0.7081,1.3172,0.0,0.0,0.0,0.0,0.0,0.0,0.0,0.0,0.0,0.0,0.0,0.0,0.0,0.0,1.8646,1.6834,1.5324,1.5201,1.2451,1.0329,0.9965,0.8232,0.6391,0.4516,0.2443,0.12,0.1216,0.0494,-0.0,-0.0,-0.0,-0.1312,-0.4164,-0.6109,-0.5679,-0.2867,-0.0985,-0.0,-0.0,0.1973,0.4393,0.7104,0.7078,0.7061,0.7146,0.7248,0.7238,0.7312,0.7406,0.696,0.6374,0.7569,0.703,0.534,0.3219,0.2414,0.2414,0.2414,0.2414,0.2414,0.2414,0.2414,0.2414,0.2414,0.2414,0.241,0.2392,0.3184,0.3978,0.4046,0.4039,0.4439,0.6064,0.7122,0.7797,0.767,0.755,0.7444,0.7118,0.7098,0.6649,0.5201,0.458,0.4318,0.4318,0.1797,-0.0,-0.0,-0.2504,-0.5013,-0.6903,-0.7074,-0.7061,-0.7139,-0.7139,-0.7058,-0.7071,-0.7071,-0.5811,-0.2948,-0.1965,-0.0984,-0.0,-0.0,-0.0,-0.0,-0.0,-0.0,0.0089,0.2948,0.528,0.0,0.0,0.0,0.0,0.0,0.0,0.0,0.0,0.0,0.0,0.0,0.0,0.0,0.0,1.7729,1.8353,1.7216,1.607,1.5305,1.3397,1.1797,1.0932,0.9341,0.7973,0.6751,0.4717,0.3361,0.3379,0.1614,0.0408,-0.0,-0.0,-0.0,-0.0,-0.4172,-0.6678,-0.7115,-0.2782,-0.0449,-0.0,-0.0,0.2509,0.7135,0.7101,0.7074,0.7058,0.6894,0.6799,0.6838,0.704,0.5954,0.4481,0.6474,0.7267,0.667,0.1813,-0.0,-0.0,-0.0,-0.0,-0.0,-0.0,-0.0,-0.0,-0.0,-0.0,-0.0,-0.0,0.1768,0.3624,0.365,0.3631,0.3642,0.3589,0.5463,0.727,0.7293,0.7224,0.7174,0.7131,0.7121,0.6952,0.6499,0.2875,-0.0,-0.0,-0.0,-0.0,-0.0,-0.0,-0.1697,-0.6,-0.6815,-0.7078,-0.7058,-0.7143,-0.7143,-0.7143,-0.7143,-0.7061,-0.7081,-0.5092,-0.2857,-0.0715,-0.0179,-0.0,-0.0,-0.0,-0.0,-0.0,-0.0,0.2324,0.0,0.0,0.0,0.0,0.0,0.0,0.0,0.0,0.0,0.0,0.0,0.0,0.0,1.6777,1.6233,1.7719,1.5936,1.4522,1.5092,1.2823,1.1001,1.0783,0.9814,0.9155,0.9428,0.7138,0.5597,0.5643,0.5204,0.3508,0.0163,-0.0,-0.0,-0.0,-0.1036,-0.3325,-0.7051,-0.608,-0.3687,-0.0,-0.0,0.2513,0.7135,0.7111,0.7094,0.6999,0.5186,0.4387,0.4506,0.6359,0.6824,0.6123,0.2955,0.1748,0.158,0.0395,-0.0,-0.0,-0.0,-0.0,-0.0,-0.0,-0.0,-0.0,-0.0,-0.0,-0.0,-0.0,0.0393,0.088,0.0863,0.0858,0.0856,0.0845,0.1309,0.2237,0.4342,0.4643,0.4952,0.6764,0.7131,0.5947,0.2156,0.0719,-0.0,-0.0,-0.0,-0.0,-0.0,-0.0,-0.0358,-0.1429,-0.4835,-0.7098,-0.7091,-0.7084,-0.7078,-0.7078,-0.7061,-0.7143,-0.7058,-0.6621,-0.6091,-0.5557,-0.1878,-0.0,-0.0,-0.0,-0.0,-0.0,-0.0,0.0536,0.0,0.0,0.0,0.0,0.0,0.0,0.0,0.0,0.0,0.0,0.0,0.0,1.6874,1.5865,1.5314,1.6159,1.5112,1.4261,1.4426,1.3142,1.2044,1.1539,1.1093,1.0663,1.0547,0.8832,0.7528,0.708,0.6574,0.5364,0.3109,0.1128,-0.0,-0.0,-0.0,-0.1203,-0.3656,-0.3698,-0.2491,-0.0,-0.0,0.1257,0.3776,0.4931,0.6014,0.7029,0.5838,0.3942,0.1971,0.3179,0.3675,0.343,0.0936,-0.0,-0.0,-0.0,-0.0,-0.0,-0.0,-0.0,-0.0,-0.0,-0.156,-0.3436,-0.3403,-0.263,-0.1757,-0.1723,-0.1714,-0.1422,-0.0279,-0.0,-0.0553,-0.2834,-0.1652,0.0368,0.1824,0.1984,0.2239,0.3504,0.3687,0.2876,0.0449,-0.0,-0.0,-0.0,-0.0,-0.0,-0.0,-0.0,-0.0,-0.0,-0.2235,-0.4204,-0.5282,-0.5816,-0.6355,-0.7084,-0.7064,-0.7139,-0.7139,-0.7064,-0.7078,-0.7094,-0.4652,-0.2858,-0.1696,-0.17,-0.1164,-0.0,-0.0,-0.0,0.0,0.0,0.0,0.0,0.0,0.0,0.0,0.0,0.0,0.0,0.0,0.0,1.592,1.5219,1.4637,1.473,1.4554,1.4154,1.3607,1.3438,1.3028,1.2291,1.2078,1.1643,1.0858,0.9744,0.8694,0.7859,0.688,0.6281,0.6295,0.2631,0.0403,-0.0,-0.0,-0.0,-0.0,-0.0778,-0.1225,-0.1251,-0.0359,-0.0,0.009,0.2057,0.4032,0.5858,0.5858,0.3597,-0.0,-0.0,-0.0,-0.0,-0.0,-0.0,-0.0,-0.0,-0.0475,-0.1239,-0.1239,-0.0953,-0.0666,-0.0664,-0.3327,-0.6602,-0.6969,-0.5711,-0.4161,-0.4171,-0.4238,-0.376,-0.1707,-0.0894,-0.1609,-0.5576,-0.3819,-0.1007,-0.018,-0.0,-0.0,-0.0,-0.0,-0.0,-0.0,-0.0,-0.0,-0.0,-0.0,-0.0,-0.0,-0.0,-0.0,-0.0,-0.0,-0.0805,-0.2769,-0.357,-0.4823,-0.6996,-0.7068,-0.7143,-0.7139,-0.7139,-0.7061,-0.7078,-0.7084,-0.6177,-0.4196,-0.4198,-0.3215,-0.1252,-0.0805,-0.0626,0.0,0.0,0.0,0.0,0.0,0.0,0.0,0.0,0.0,0.0,0.0,1.4622,1.5342,1.4434,1.3887,1.4755,1.3827,1.2991,1.2969,1.2294,1.1776,1.1897,1.1188,1.0688,1.0765,0.9135,0.7936,0.7783,0.6872,0.6274,0.6295,0.4003,0.1886,0.0079,-0.0,-0.0,-0.0,-0.412,-0.6114,-0.6141,-0.1954,-0.0,-0.0,0.0359,0.0629,0.0988,0.0988,0.0629,-0.0,-0.0,-0.0,-0.0,-0.0,-0.0,-0.0,-0.0,-0.263,-0.613,-0.613,-0.4864,-0.3125,-0.3163,-0.3558,-0.4454,-0.6453,-0.6879,-0.6652,-0.6614,-0.6667,-0.6542,-0.6227,-0.4652,-0.3303,-0.3931,-0.5116,-0.5037,-0.0895,-0.0,-0.0,-0.0,-0.0,-0.0,-0.0,-0.0,-0.0,-0.0,-0.0,-0.0,-0.0,-0.0,-0.0,-0.0,-0.0,-0.009,-0.0449,-0.0537,-0.2502,-0.6824,-0.7088,-0.7071,-0.7139,-0.7139,-0.7143,-0.7058,-0.7074,-0.6903,-0.6631,-0.664,-0.6465,-0.6103,-0.4022,-0.3124,0.9429,0.939,0.0,0.0,0.0,0.0,0.0,0.0,0.0,0.0,1.3582,1.4032,1.4641,1.4228,1.3732,1.3433,1.2832,1.2358,1.2077,1.1279,1.0704,1.0899,1.0182,0.9723,0.9827,0.8618,0.7783,0.7783,0.6876,0.6278,0.6295,0.5425,0.3376,0.0079,-0.0,-0.0,-0.0,-0.2057,-0.4473,-0.7021,-0.2283,-0.0,-0.0,-0.0,-0.0,-0.0,-0.0,-0.0,-0.0,-0.0,-0.1527,-0.3957,-0.3957,-0.3157,-0.1993,-0.1993,-0.3375,-0.5346,-0.6658,-0.6462,-0.5606,-0.5556,-0.5569,-0.5783,-0.6747,-0.7134,-0.7073,-0.7098,-0.7082,-0.7068,-0.7104,-0.6361,-0.5544,-0.5544,-0.6367,-0.6576,-0.454,-0.1984,-0.0,-0.0,-0.0,-0.0,-0.0,-0.0,-0.0,-0.0,-0.2247,-0.3957,-0.3957,-0.2868,-0.2058,-0.2058,-0.0806,-0.0,-0.0,-0.0,-0.1527,-0.5099,-0.6496,-0.7115,-0.7265,-0.7187,-0.7139,-0.7139,-0.7061,-0.7068,-0.7068,-0.7071,-0.7081,-0.7091,-0.6,-0.5547,0.9429,0.9389,0.9301,0.0,0.0,0.0,0.0,0.0,0.0,0.0,1.3168,1.3483,1.397,1.4141,1.3813,1.2593,1.2059,1.1567,1.0961,1.0109,0.9662,0.988,0.9124,0.86,0.8814,0.79,0.7335,0.7339,0.6707,0.6285,0.6305,0.6322,0.4332,0.0157,-0.1021,-0.1585,-0.1613,-0.162,-0.3146,-0.6028,-0.2753,-0.0784,-0.0,-0.0,-0.0,-0.0,-0.0,-0.0,-0.009,-0.1347,-0.3866,-0.7135,-0.7128,-0.6019,-0.4469,-0.4469,-0.4467,-0.4734,-0.6459,-0.7094,-0.7088,-0.7088,-0.7084,-0.7078,-0.7078,-0.7064,-0.7139,-0.7139,-0.7139,-0.7143,-0.7071,-0.7104,-0.7135,-0.7135,-0.7171,-0.6937,-0.5767,-0.2632,-0.0,-0.0,-0.0,-0.0,-0.0,-0.0988,-0.1797,-0.1797,-0.4314,-0.6394,-0.7035,-0.5679,-0.4595,-0.4595,-0.2987,-0.1726,-0.109,-0.0999,-0.21,-0.4732,-0.6421,-0.7329,-0.7424,-0.7282,-0.72,-0.72,-0.716,-0.7139,-0.7139,-0.7139,-0.7061,-0.7078,-0.7078,-0.7081,0.8713,0.895,0.0,0.0,0.0,0.0,0.0,0.0,0.0,0.0,1.2931,1.2806,1.3519,1.3961,1.3914,1.3086,1.1648,1.0338,0.9496,0.8652,0.8427,0.9316,0.801,0.7324,0.7971,0.6842,0.6119,0.6132,0.6193,0.6291,0.6325,0.6329,0.4332,0.0157,-0.3864,-0.5943,-0.594,-0.6125,-0.5281,-0.3332,-0.3985,-0.2799,-0.0,-0.0,-0.0,-0.0,-0.0,-0.0,-0.0359,-0.486,-0.6863,-0.7135,-0.7111,-0.7012,-0.692,-0.692,-0.6913,-0.6903,-0.7084,-0.7071,-0.7143,-0.7143,-0.7143,-0.7143,-0.7143,-0.7143,-0.7139,-0.7139,-0.7139,-0.7139,-0.7143,-0.7251,-0.736,-0.736,-0.7472,-0.6276,-0.1443,-0.0182,-0.0,-0.0,-0.0,-0.0,-0.0,-0.3776,-0.677,-0.677,-0.5022,-0.4561,-0.6828,-0.7232,-0.7411,-0.7411,-0.7256,-0.6275,-0.3976,-0.3786,-0.4832,-0.7318,-0.76,-0.7688,-0.7587,-0.7441,-0.736,-0.736,-0.7214,-0.7139,-0.7139,-0.7139,-0.7139,-0.7143,-0.7143,-0.7143,0.7048,0.7447,0.0,0.0,0.0,0.0,0.0,0.0,1.2022,1.1571,1.1116,1.0962,1.145,1.1955,1.2134,1.1512,1.0405,0.9476,0.9045,0.8072,0.7659,0.8389,0.5927,0.4755,0.6172,0.6029,0.5942,0.6139,0.4958,0.4868,0.624,0.3698,0.1571,0.0079,-0.4101,-0.6264,-0.6329,-0.6356,-0.6013,-0.5119,-0.549,-0.5074,-0.3992,-0.1272,-0.0,-0.0176,-0.3255,-0.453,-0.4678,-0.6406,-0.7121,-0.7101,-0.7094,-0.7081,-0.7071,-0.7071,-0.7068,-0.7064,-0.7064,-0.7058,-0.7139,-0.7139,-0.7139,-0.7139,-0.7139,-0.7139,-0.7139,-0.7139,-0.7139,-0.7139,-0.7139,-0.7255,-0.7397,-0.7495,-0.7631,-0.7203,-0.5246,-0.2339,-0.0,-0.0,-0.2776,-0.5132,-0.5156,-0.5097,-0.5601,-0.7214,-0.6722,-0.6516,-0.7369,-0.7509,-0.7633,-0.7633,-0.7594,-0.7338,-0.6467,-0.6478,-0.6902,-0.7859,-0.777,-0.7749,-0.7733,-0.7594,-0.7516,-0.7516,-0.7366,-0.7241,-0.7139,-0.7139,-0.7139,-0.7139,-0.7139,-0.7139,0.5881,0.0,0.0,0.0,0.0,0.0,0.0,0.0,1.0829,1.0649,0.9953,0.9394,0.9351,0.9574,0.9768,0.9959,0.908,0.8382,0.8278,0.6758,0.5969,0.7025,0.4501,0.296,0.352,0.4237,0.5066,0.5925,0.4845,0.4145,0.4222,0.1545,-0.0,-0.0,-0.2752,-0.4891,-0.625,-0.6302,-0.626,-0.6278,-0.6275,-0.627,-0.6245,-0.3397,-0.1759,-0.1199,-0.4506,-0.6361,-0.7135,-0.7125,-0.7104,-0.7084,-0.7078,-0.7064,-0.7139,-0.7139,-0.7139,-0.7139,-0.7139,-0.7139,-0.7139,-0.7139,-0.7139,-0.7139,-0.7139,-0.7139,-0.7139,-0.7139,-0.7139,-0.7153,-0.7204,-0.7366,-0.7556,-0.7709,-0.7821,-0.7872,-0.7711,-0.512,-0.2674,-0.2718,-0.5591,-0.8044,-0.8023,-0.6432,-0.58,-0.7351,-0.7624,-0.7708,-0.7708,-0.7645,-0.7672,-0.7672,-0.7723,-0.776,-0.776,-0.7876,-0.8018,-0.8007,-0.7914,-0.7801,-0.7885,-0.7746,-0.7672,-0.7672,-0.7526,-0.7397,-0.7295,-0.719,-0.7139,-0.7139,-0.7139,-0.7139,0.0,0.0,0.0,0.0,0.0,0.0,0.0,0.0,0.852,1.0428,0.9469,0.8012,0.7366,0.6819,0.7041,0.8529,0.768,0.6803,0.7012,0.461,0.3418,0.5065,0.3696,0.194,0.0201,0.1577,0.3422,0.5281,0.5929,0.4458,0.0219,-0.0,-0.0,-0.0,-0.0,-0.196,-0.6087,-0.6213,-0.6197,-0.6278,-0.6268,-0.6264,-0.6334,-0.6334,-0.517,-0.3183,-0.3512,-0.5007,-0.7125,-0.7098,-0.7084,-0.7081,-0.7061,-0.7139,-0.7139,-0.7139,-0.7139,-0.7139,-0.7139,-0.7139,-0.7139,-0.7139,-0.7139,-0.7139,-0.7139,-0.7139,-0.7139,-0.7139,-0.7139,-0.7177,-0.7329,-0.7584,-0.7838,-0.7994,-0.8031,-0.8041,-0.7969,-0.7977,-0.7952,-0.8016,-0.7991,-0.7988,-0.796,-0.7837,-0.7725,-0.7725,-0.7621,-0.7611,-0.7611,-0.7733,-0.7818,-0.7818,-0.795,-0.8038,-0.8038,-0.8038,-0.8038,-0.8038,-0.8038,-0.8038,-0.8038,-0.7896,-0.7818,-0.7818,-0.7678,-0.7607,-0.7604,-0.7299,-0.7146,-0.7146,-0.7146,-0.7149,0.528,0.0,0.0,0.0,0.0,0.0,0.0,0.0,0.0,0.6692,0.5555,0.4595,0.5123,0.5117,0.4886,0.4178,0.5012,0.5825,0.5879,0.5182,0.3891,0.1746,0.1076,0.0538,0.0067,0.0473,0.2054,0.0,0.5547,0.4011,0.0218,-0.0,-0.0,-0.0,-0.0,-0.0548,-0.1724,-0.3207,-0.4776,-0.6291,-0.6278,-0.6298,-0.626,-0.626,-0.5937,-0.5409,-0.5694,-0.6182,-0.6857,-0.7044,-0.7074,-0.7061,-0.7143,-0.7139,-0.7139,-0.7139,-0.7139,-0.7139,-0.7139,-0.7139,-0.7139,-0.7139,-0.7139,-0.7139,-0.7139,-0.7139,-0.7139,-0.7139,-0.7139,-0.7177,-0.7329,-0.7431,-0.7556,-0.7814,-0.7788,-0.7835,-0.7959,-0.7972,-0.8014,-0.7959,-0.8014,-0.8041,-0.8014,-0.7966,-0.7923,-0.7923,-0.7919,-0.7919,-0.7919,-0.795,-0.7977,-0.7977,-0.8014,-0.8038,-0.8038,-0.8038,-0.8038,-0.8038,-0.8038,-0.8038,-0.8038,-0.7997,-0.7977,-0.7977,-0.7828,-0.7753,-0.775,-0.7455,-0.7309,-0.7309,-0.7309,-0.7366,0.5769,0.0,0.0,0.0,0.0,0.0,0.2736,0.2564,0.0,0.0,0.2829,0.2825,0.4152,0.444,0.4184,0.3328,0.4213,0.5088,0.5387,0.4075,0.2373,0.0264,-0.0,-0.0,-0.0,-0.0,0.088,0.2975,0.318,0.2233,0.0143,-0.0,-0.0,-0.0,-0.0,-0.0,-0.0,-0.1167,-0.2423,-0.3682,-0.454,-0.5404,-0.6278,-0.6278,-0.6322,-0.6324,-0.6468,-0.659,-0.6679,-0.6897,-0.7011,-0.7139,-0.7139,-0.7139,-0.7139,-0.7139,-0.7139,-0.7139,-0.7139,-0.7139,-0.7139,-0.7139,-0.7139,-0.7139,-0.7139,-0.7139,-0.7139,-0.7139,-0.7187,-0.7258,-0.735,-0.7417,-0.7509,-0.7682,-0.7687,-0.7475,-0.6564,-0.7241,-0.7672,-0.6569,-0.722,-0.7955,-0.8048,-0.7991,-0.8038,-0.8038,-0.8038,-0.8038,-0.8038,-0.8038,-0.8038,-0.8038,-0.8038,-0.8038,-0.8038,-0.8038,-0.8038,-0.8038,-0.8038,-0.8038,-0.8038,-0.8038,-0.8038,-0.8038,-0.795,-0.7875,-0.7811,-0.758,-0.7465,-0.7465,-0.7465,-0.7512,0.6701,0.6204,0.0,0.0,0.3716,0.0,0.0205,-0.0243,-0.0315,0.0,0.0675,0.1854,0.3572,0.3959,0.4117,0.4458,0.4467,0.4491,0.4763,0.2027,-0.0,-0.0,-0.0,-0.0,-0.0,-0.0,-0.0,-0.0,-0.0,-0.0,-0.0,-0.0,-0.0,-0.0,-0.0,-0.0,-0.0,-0.0,-0.0,-0.0,-0.211,-0.4064,-0.596,-0.6197,-0.6271,-0.6345,-0.6393,-0.6537,-0.6652,-0.693,-0.7056,-0.7119,-0.7136,-0.7139,-0.7139,-0.7139,-0.7139,-0.7139,-0.7139,-0.7139,-0.7139,-0.7139,-0.7139,-0.7139,-0.7139,-0.7139,-0.7139,-0.7139,-0.7241,-0.7346,-0.7346,-0.7448,-0.7553,-0.757,-0.759,-0.7018,-0.4687,-0.5958,-0.6945,-0.4822,-0.6348,-0.7979,-0.8045,-0.8038,-0.8038,-0.8038,-0.8038,-0.8038,-0.8038,-0.8038,-0.8038,-0.8038,-0.8038,-0.8038,-0.8038,-0.8038,-0.8038,-0.8038,-0.8038,-0.8038,-0.8038,-0.8038,-0.8038,-0.8038,-0.8038,-0.7974,-0.7834,-0.7692,-0.7624,-0.7624,-0.7624,-0.7634,0.8033,0.7412,0.6582,0.5635,0.0,0.0,-0.1839,-0.2513,-0.287,0.0,-0.2274,-0.129,0.0528,0.0875,0.1664,0.4094,0.4112,0.3139,0.129,0.0416,-0.0,-0.0,-0.0,-0.0,-0.0,-0.0,-0.0,-0.0,-0.0,-0.0,-0.0,-0.0,-0.0,-0.0,-0.0,-0.0,-0.0,-0.0,-0.0,-0.0,-0.2111,-0.3357,-0.375,-0.5476,-0.6264,-0.6264,-0.6291,-0.6831,-0.7736,-0.7729,-0.7458,-0.6983,-0.7095,-0.7139,-0.7139,-0.7139,-0.7139,-0.7139,-0.7139,-0.7139,-0.7139,-0.7139,-0.7139,-0.7139,-0.7139,-0.7139,-0.7139,-0.7139,-0.7163,-0.7183,-0.7183,-0.7207,-0.7261,-0.7387,-0.7359,-0.6789,-0.5432,-0.4901,-0.5239,-0.693,-0.7666,-0.7969,-0.8045,-0.8038,-0.8038,-0.8038,-0.8038,-0.8038,-0.8038,-0.8038,-0.8038,-0.8038,-0.8038,-0.8038,-0.8038,-0.8038,-0.8038,-0.8038,-0.8038,-0.8038,-0.8038,-0.8038,-0.8038,-0.8038,-0.8038,-0.8024,-0.7994,-0.7841,-0.777,-0.777,-0.777,-0.7834,0.7889,0.7323,0.675,0.6576,0.0,0.0,0.0,-0.1241,-0.1769,-0.1692,-0.1587,-0.1079,0.0372,0.0769,0.1401,0.2918,0.2887,0.2469,0.1894,0.1256,0.0885,0.0915,0.0989,0.1123,0.1081,0.0433,-0.0,-0.0,-0.0,-0.0,-0.0,-0.0,0.0825,0.2614,0.0917,-0.0,-0.0,-0.0,-0.1066,-0.3167,-0.4217,-0.4706,-0.4693,-0.5796,-0.6268,-0.6338,-0.6795,-0.7374,-0.7922,-0.8479,-0.8555,-0.8193,-0.8547,-0.871,-0.8877,-0.8877,-0.8448,-0.8017,-0.8017,-0.7577,-0.7139,-0.7139,-0.7139,-0.7139,-0.7139,-0.7139,-0.7139,-0.7139,-0.7139,-0.7139,-0.7139,-0.7139,-0.716,-0.7238,-0.7148,-0.699,-0.6513,-0.612,-0.6301,-0.7739,-0.7965,-0.7952,-0.8041,-0.8038,-0.8038,-0.8038,-0.8038,-0.8038,-0.8038,-0.8038,-0.8038,-0.8038,-0.8038,-0.8038,-0.8038,-0.8038,-0.8038,-0.8038,-0.8038,-0.8038,-0.8038,-0.8038,-0.8038,-0.8038,-0.8038,-0.8038,-0.8038,-0.7963,-0.7926,-0.7926,-0.7926,-0.7967,0.6928,0.6725,0.6754,0.0,0.0,0.3092,0.0,0.0,0.0,0.076,0.067,0.0,0.0,0.0,0.0,0.0,0.0,0.0,0.0,0.2767,0.0,0.2146,0.2318,0.2498,0.2642,0.1067,-0.0,-0.0,-0.0,-0.0,-0.0,-0.0,0.1339,0.4252,0.2204,0.0698,-0.0,-0.0657,-0.2777,-0.6335,-0.6297,-0.6274,-0.6278,-0.6278,-0.6423,-0.6644,-0.748,-0.8008,-0.847,-0.9396,-0.988,-1.0126,-1.0187,-1.0309,-1.0469,-1.0336,-0.9666,-0.889,-0.8627,-0.7929,-0.7139,-0.7139,-0.7139,-0.7139,-0.7139,-0.7139,-0.7139,-0.7139,-0.7139,-0.7139,-0.7139,-0.7139,-0.7139,-0.7139,-0.7088,-0.7247,-0.7389,-0.7634,-0.7784,-0.7939,-0.7952,-0.8038,-0.8038,-0.8038,-0.8038,-0.8038,-0.8038,-0.8038,-0.8038,-0.8038,-0.8038,-0.8038,-0.8038,-0.8038,-0.8038,-0.8038,-0.8038,-0.8038,-0.8038,-0.8038,-0.8038,-0.8038,-0.8038,-0.8038,-0.8038,-0.8038,-0.8038,-0.8038,-0.8038,-0.8038,-0.8038,-0.8038,0.0,0.0,0.0,0.0,0.4632,0.0,0.0,0.0,0.1949,0.2651,0.0,0.0,0.0,0.0,0.0,0.0,0.0,0.0,0.3766,0.3562,0.3379,0.3377,0.3425,0.3637,0.4211,0.1663,-0.0,-0.0,-0.0,-0.0,-0.0,-0.0,0.0197,0.0606,0.3326,0.3233,-0.0,-0.3178,-0.5312,-0.6335,-0.6088,-0.6149,-0.6278,-0.6268,-0.6795,-0.7629,-0.7783,-0.8836,-1.049,-1.0594,-1.135,-1.2254,-1.0767,-1.0213,-1.0174,-0.9343,-0.8978,-0.8715,-0.7665,-0.7228,-0.7139,-0.7139,-0.7139,-0.7139,-0.7139,-0.7139,-0.7139,-0.7139,-0.7139,-0.7139,-0.7139,-0.7139,-0.7139,-0.7139,-0.7261,-0.7417,-0.7567,-0.7712,-0.7858,-0.8014,-0.8041,-0.8038,-0.8038,-0.8038,-0.8038,-0.8038,-0.8038,-0.8038,-0.8038,-0.8038,-0.8038,-0.8038,-0.8038,-0.8038,-0.8038,-0.8038,-0.8038,-0.8038,-0.8038,-0.8038,-0.8038,-0.8038,-0.8038,-0.8038,-0.8038,-0.8038,-0.8038,-0.8038,-0.8038,-0.8038,-0.8038,-0.8038,0.0,0.0,0.0,0.0,0.0,0.0,0.4258,0.0,0.3001,0.0,0.0,0.0,0.0,0.0,0.0,0.0,0.4384,0.0,0.0,0.0,0.3622,0.0,0.0,0.0,0.4414,0.3348,0.1904,0.0116,-0.0,-0.0,-0.0,-0.0,-0.0,-0.0,0.1471,0.1558,-0.0,-0.3617,-0.5557,-0.5964,-0.5976,-0.6078,-0.6135,-0.622,-0.6872,-0.7859,-0.8389,-0.9513,-1.0864,-1.1465,-1.1993,-1.2457,-1.1914,-1.1936,-1.2141,-1.1746,-1.1277,-1.0692,-0.957,-0.8707,-0.8013,-0.7316,-0.7139,-0.7139,-0.7139,-0.7139,-0.7139,-0.7139,-0.7139,-0.7139,-0.7139,-0.7139,-0.7163,-0.7251,-0.7322,-0.7438,-0.7672,-0.777,-0.7858,-0.8011,-0.8038,-0.8038,-0.8038,-0.8038,-0.8038,-0.8038,-0.8038,-0.8038,-0.8038,-0.8038,-0.8038,-0.8038,-0.8038,-0.8038,-0.8038,-0.8038,-0.8038,-0.8038,-0.8038,-0.8038,-0.8038,-0.8038,-0.8038,-0.8038,-0.8038,-0.8038,-0.8038,-0.8038,-0.8038,-0.8038,-0.8038,-0.8038,-0.1361,0.0,0.0,0.0,0.0,0.0,0.0,0.0,0.0,0.0,0.0,0.0,0.0,0.0,0.0,0.0,0.0,0.4562,0.0,0.3709,0.0,0.0,0.0,0.0,0.0,0.4392,0.3248,0.0217,-0.0,-0.0,-0.0,-0.0,-0.0,-0.0,-0.0,-0.0467,-0.1471,-0.4117,-0.5513,-0.5682,-0.5861,-0.6145,-0.6403,-0.6641,-0.7399,-0.8685,-0.9367,-1.0265,-1.1242,-1.1996,-1.2305,-1.2325,-1.2538,-1.2939,-1.3333,-1.316,-1.2541,-1.1638,-1.0524,-0.9405,-0.8277,-0.7404,-0.7139,-0.7139,-0.7139,-0.7139,-0.7139,-0.7139,-0.7139,-0.7139,-0.7139,-0.7139,-0.718,-0.7333,-0.7404,-0.7502,-0.7756,-0.7845,-0.7906,-0.8018,-0.8038,-0.8038,-0.8038,-0.8038,-0.8038,-0.8038,-0.8038,-0.8038,-0.8038,-0.8038,-0.8038,-0.8038,-0.8038,-0.8038,-0.8038,-0.8038,-0.8038,-0.8038,-0.8038,-0.8038,-0.8038,-0.8038,-0.8038,-0.8038,-0.8038,-0.8038,-0.8038,-0.8038,-0.8038,-0.8038,-0.8038,-0.8038,0.0,-0.4033,0.0,-0.1367,0.0,0.0,0.0,0.0,0.4969,0.0,0.0,0.0,0.0,0.0,0.0,0.0,0.0,0.0,0.0,0.0,0.0,0.0,0.0,0.0,0.0,0.4149,0.3237,0.0,-0.0,-0.0,-0.0,-0.0,-0.0,-0.0,-0.0,-0.1702,-0.5205,-0.5336,-0.5474,-0.5682,-0.5745,-0.6386,-0.7425,-0.7694,-0.8836,-1.0708,-1.0708,-1.1316,-1.2224,-1.2298,-1.2305,-1.2305,-1.2311,-1.2505,-1.2762,-1.217,-1.1433,-1.0524,-0.9323,-0.8189,-0.7139,-0.7139,-0.7139,-0.7139,-0.7139,-0.7139,-0.7139,-0.7139,-0.7139,-0.7139,-0.7139,-0.7139,-0.718,-0.7333,-0.7485,-0.7634,-0.778,-0.7926,-0.8035,-0.8038,-0.8038,-0.8038,-0.8038,-0.8038,-0.8038,-0.8038,-0.8038,-0.8038,-0.8038,-0.8038,-0.8038,-0.8038,-0.8038,-0.8038,-0.8038,-0.8038,-0.8038,-0.8038,-0.8038,-0.8038,-0.8038,-0.8038,-0.8038,-0.8038,-0.8038,-0.8038,-0.8038,-0.8038,-0.8038,-0.8038,-0.8038,-0.8038,-0.677,-0.6438,-0.6297,-0.5404,-0.355,-0.1789,0.0,0.0,0.0,0.0,0.0,0.0,0.0,0.0,0.0,0.0,0.0,0.0,0.0,0.0,0.0,0.0,0.0,0.0,0.0,0.0,0.0,0.0097,-0.0,0.0,-0.0,-0.0,-0.0,-0.0,-0.0,-0.1176,-0.3558,-0.4779,-0.574,-0.6372,-0.6654,-0.7317,-0.8251,-0.8608,-0.9513,-1.0783,-1.0783,-1.1391,-1.2305,-1.2305,-1.2305,-1.2305,-1.2305,-1.2485,-1.2716,-1.189,-1.1524,-1.1169,-0.9534,-0.8105,-0.7139,-0.7139,-0.7139,-0.7139,-0.7139,-0.7139,-0.7139,-0.7139,-0.7139,-0.7139,-0.7139,-0.7217,-0.7333,-0.7485,-0.7634,-0.778,-0.7929,-0.8004,-0.8038,-0.8038,-0.8038,-0.8038,-0.8038,-0.8038,-0.8038,-0.8038,-0.8038,-0.8038,-0.8038,-0.8038,-0.8038,-0.8038,-0.8038,-0.8038,-0.8038,-0.8038,-0.8038,-0.8038,-0.8038,-0.8038,-0.8038,-0.8038,-0.8038,-0.8038,-0.8038,-0.8038,-0.8038,-0.8038,-0.8038,-0.8038,-0.8038,-0.8038,-0.9213,-0.8817,-0.8579,-0.7816,-0.6464,-0.4959,-0.3782,-0.2576,-0.1537,0.0,0.0,0.0,0.0,0.0,0.0,0.0,0.0,0.0,0.0,0.3231,0.0,0.0,0.0,0.0,0.0,0.0,-0.0,-0.0,-0.0,0.0,0.0,-0.0,-0.0,-0.0,-0.1246,-0.2199,-0.2676,-0.4503,-0.5833,-0.6724,-0.7035,-0.7845,-0.913,-0.952,-1.0261,-1.1316,-1.1316,-1.1694,-1.2305,-1.2305,-1.2305,-1.2305,-1.2305,-1.2418,-1.2556,-1.1757,-1.121,-1.0588,-0.8844,-0.7753,-0.7139,-0.7139,-0.7139,-0.7139,-0.7139,-0.7139,-0.7139,-0.7139,-0.7139,-0.7139,-0.7139,-0.7255,-0.7411,-0.7563,-0.7706,-0.7851,-0.8007,-0.8038,-0.8038,-0.8038,-0.8038,-0.8038,-0.8038,-0.8038,-0.8038,-0.8038,-0.8038,-0.8038,-0.8038,-0.8038,-0.8038,-0.8038,-0.8038,-0.8038,-0.8038,-0.8038,-0.8038,-0.8038,-0.8038,-0.8038,-0.8038,-0.8038,-0.8038,-0.8038,-0.8038,-0.8038,-0.8038,-0.8038,-0.8038,-0.8038,-0.8038,-0.8038]},{"header":{"parameterUnit":"m.s-1","parameterCategory":1,"la1":30.6,"la2":29.2853,"lo1":-89.7004,"lo2":-87.6739,"dy":0.0162,"dx":0.0183,"nx":112,"ny":82,"refTime":"2026-04-29T00:00:00:Z","depth":0,"parameterNumber":3,"parameterNumberName":"V-component_of_WINDS"},"data":[0.0,0.0,0.0,0.0,0.0,0.0,0.0,0.0,0.0,0.0,0.0,0.0,0.0,0.0,0.0,0.0,0.0,0.0,0.0,0.0,0.0,0.0,0.0,0.0,0.0,0.0,0.0,0.0,0.0,0.0,0.0,0.0,0.0,0.0,0.0,0.0,0.0,0.0,0.0,0.0,0.0,0.0,0.0,0.0,0.0,0.0,0.0,0.0,0.0,0.0,0.0,0.0,0.0,0.0,0.0,0.0,0.0,0.0,0.0,0.0,0.0,0.0,0.0,0.0,0.0,0.0,0.0,0.0,0.0,0.0,0.0,0.0,0.0,0.0,0.0,0.0,0.0,0.0,0.0,0.0,0.0,0.0,0.0,0.0,0.0,0.0,0.0,0.0,0.0,0.0,0.0,-0.4532,-0.4527,-0.4596,-0.4894,-0.4636,-0.4388,-0.4139,0.0,0.0,0.0,0.0,0.0,0.0,0.0,0.0,0.0,0.0,0.0,0.0,0.0,0.0,0.0,0.0,0.0,0.0,0.0,0.0,0.0,0.0,0.0,0.0,0.0,0.0,0.0,0.0,0.0,0.0,0.0,0.0,0.0,0.0,0.0,0.0,0.0,0.0,0.0,0.0,0.0,0.0,0.0,0.0,0.0,0.0,0.0,0.0,0.0,0.0,0.0,0.0,0.0,0.0,0.0,0.0,0.0,0.0,0.0,0.0,0.0,0.0,0.0,0.0,0.0,0.0,0.0,0.0,0.0,0.0,0.0,0.0,0.0,0.0,0.0,0.0,0.0,0.0,0.0,0.0,0.0,0.0,0.0,0.0,0.0,0.0,0.0,0.0,0.0,0.0,0.0,0.0,0.0,0.0,0.0,0.0,0.0,0.0,0.0,0.0,0.0,0.0,0.0,0.0,-0.4167,-0.4766,-0.4652,-0.4589,-0.4894,-0.4636,-0.4549,-0.4729,0.0,0.0,0.0,0.0,0.0,0.0,0.0,0.0,0.0,0.0,0.0,0.0,0.0,0.0,0.0,0.0,0.0,0.0,0.0,0.0,0.0,0.0,0.0,0.0,0.0,0.0,0.0,0.0,0.0,0.0,0.0,0.0,0.0,0.0,0.0,0.0,0.0,0.0,0.0,0.0,0.0,0.0,0.0,0.0,0.0,0.0,0.0,0.0,0.0,0.0,0.0,0.0,0.0,0.0,0.0,0.0,0.0,0.0,0.0,0.0,0.0,0.0,0.0,0.0,0.0,0.0,0.0,0.0,0.0,0.0,0.0,0.0,0.0,0.0,0.0,0.0,0.0,0.0,0.0,0.0,0.0,0.0,0.0,0.0,0.0,0.0,0.0,0.0,0.0,0.0,0.0,0.0,0.0,0.0,0.0,0.0,0.0,0.0,0.0,0.0,0.0,0.0,0.0,-0.3932,-0.439,-0.4728,-0.4596,-0.4551,-0.4775,-0.4925,-0.5022,-0.4931,-0.5056,0.0,0.0,0.0,0.0,0.0,0.0,0.0,0.0,0.0,0.0,0.0,0.0,0.0,0.0,0.0,0.0,0.0,0.0,0.0,0.0,0.0,0.0,0.0,0.0,0.0,0.0,0.0,0.0,0.0,0.0,0.0,0.0,0.0,0.0,0.0,0.0,0.0,0.0,0.0,0.0,0.0,0.0,0.0,0.0,0.0,0.0,0.0,0.0,0.0,0.0,0.0,0.0,0.0,0.0,0.0,0.0,0.0,0.0,0.0,0.0,0.0,0.0,0.0,0.0,0.0,0.0,0.0,0.0,0.0,0.0,0.0,0.0,0.0,0.0,0.0,0.0,0.0,0.0,0.0,0.0,0.0,0.0,0.0,0.0,0.0,0.0,0.0,0.0,0.0,0.0,0.0,0.0,0.0,0.0,0.0,0.0,0.0,0.0,0.0,0.0,0.0,0.0,-0.4253,-0.4566,-0.4701,-0.4741,-0.4815,-0.5016,-0.5417,-0.5601,-0.5363,-0.5679,0.0,0.0,0.0,0.0,0.0,0.0,0.0,0.0,0.0,0.0,0.0,0.0,0.0,0.0,0.0,0.0,0.0,0.0,0.0,0.0,0.0,0.0,0.0,0.0,0.0,0.0,0.0,0.0,0.0,0.0,0.0,0.0,0.0,0.0,0.0,0.0,0.0,0.0,0.0,0.0,0.0,0.0,0.0,0.0,0.0,0.0,0.0,0.0,0.0,0.0,0.0,0.0,0.0,0.0,0.0,0.0,0.0,0.0,0.0,0.0,0.0,0.0,0.0,0.0,0.0,0.0,0.0,0.0,0.0,0.0,0.0,0.0,0.0,0.0,0.0,0.0,0.0,0.0,0.0,0.0,0.0,0.0,0.0,0.0,0.0,0.0,0.0,0.0,0.0,0.0,0.0,0.0,0.0,0.0,0.0,0.0,0.0,0.0,0.0,0.0,0.0,0.0,-0.4144,-0.4611,-0.487,-0.5201,-0.5578,-0.5883,-0.6032,-0.6314,-0.6653,-0.5961,0.0,0.0,0.0,0.0,0.0,0.0,0.0,0.0,0.0,0.0,0.0,0.0,0.0,0.0,0.0,0.0,0.0,0.0,0.0,0.0,0.0,0.0,0.0,0.0,0.0,0.0,0.0,0.0,0.0,0.0,0.0,0.0,0.0,0.0,0.0,0.0,0.0,0.0,0.0,0.0,0.0,0.0,0.0,0.0,0.0,0.0,0.0,0.0,0.0,0.0,0.0,0.0,0.0,0.0,0.0,0.0,0.0,0.0,0.0,0.0,0.0,0.0,0.0,0.0,0.0,0.0,0.0,0.0,0.0,0.0,0.0,0.0,0.0,0.0,0.0,0.0,0.0,0.0,0.0,0.0,0.0,0.0,0.0,0.0,0.0,0.0,0.0,0.0,0.0,0.0,0.0,0.0,0.0,0.0,0.0,0.0,0.0,0.0,0.0,0.0,0.0,0.0,-0.4207,-0.4687,0.0,-0.5409,-0.5711,-0.6318,-0.682,-0.7024,-0.6809,0.0,0.0,0.0,0.0,0.0,0.0,0.0,0.0,0.0,0.0,0.0,0.0,0.0,0.0,0.0,0.0,0.0,0.0,0.0,0.0,0.0,0.0,0.0,0.0,0.0,0.0,0.0,0.0,0.0,0.0,0.0,0.0,0.0,0.0,0.0,0.0,0.0,0.0,0.0,0.0,0.0,0.0,0.0,0.0,0.0,0.0,0.0,0.0,0.0,0.0,0.0,0.0,0.0,0.0,0.0,0.0,0.0,0.0,0.0,0.0,0.0,0.0,0.0,0.0,0.0,0.0,0.0,0.0,0.0,0.0,0.0,0.0,0.0,0.0,0.0,0.0,0.0,0.0,0.0,0.0,0.0,0.0,0.0,0.0,0.0,0.0,0.0,0.0,0.0,0.0,0.0,0.0,0.0,0.0,0.0,0.0,0.0,0.0,0.0,0.0,0.0,0.0,-0.382,-0.4232,-0.4801,0.0,-0.5745,-0.6168,-0.6952,-0.7459,-0.754,-0.7072,0.0,0.0,0.0,0.0,0.0,0.0,0.0,0.0,0.0,0.0,0.0,0.0,0.0,0.0,0.0,0.0,0.0,0.0,0.0,0.0,0.0,0.0,0.0,0.0,0.0,0.0,0.0,0.0,0.0,0.0,0.0,0.0,0.0,0.0,0.0,0.0,0.0,0.0,0.0,0.0,0.0,0.0,0.0,0.0,0.0,0.0,0.0,0.0,0.0,0.0,0.0,0.0,0.0,0.0,0.0,0.0,0.0,0.0,0.0,0.0,0.0,0.0,0.0,0.0,0.0,0.0,0.0,0.0,0.0,0.0,0.0,0.0,0.0,0.0,0.0,0.0,0.0,0.0,0.0,0.0,0.0,0.0,0.0,0.0,0.0,0.0,0.0,0.0,0.0,0.0,0.0,0.0,0.0,0.0,0.0,0.0,0.0,0.0,0.0,0.0,0.0,0.0,-0.3801,-0.4254,-0.4808,-0.5698,-0.6276,-0.6947,-0.784,-0.791,-0.7802,0.0,0.0,0.0,0.0,0.0,0.0,0.0,0.0,0.0,0.0,0.0,0.0,0.0,0.0,0.0,0.0,0.0,0.0,0.0,0.0,0.0,0.0,0.0,0.0,0.0,0.0,0.0,0.0,0.0,0.0,0.0,0.0,0.0,0.0,0.0,0.0,0.0,0.0,0.0,0.0,0.0,0.0,0.0,0.0,0.0,0.0,0.0,0.0,0.0,0.0,0.0,0.0,0.0,0.0,0.0,0.0,0.0,0.0,0.0,0.0,0.0,0.0,0.0,0.0,0.0,0.0,0.0,0.0,0.0,0.0,0.0,0.0,0.0,0.0,0.0,0.0,0.0,0.0,0.0,0.0,0.0,0.0,0.0,0.0,0.0,0.0,0.0,0.0,0.0,0.0,0.0,0.0,0.0,0.0,0.0,0.0,0.0,0.0,0.0,0.0,0.0,0.0,0.0,-0.2721,-0.3729,-0.4808,-0.5698,-0.6276,-0.6947,-0.784,-0.8138,-0.8023,-0.7547,0.0,0.0,0.0,0.0,0.0,0.0,0.0,0.0,0.0,0.0,0.0,0.0,0.0,0.0,0.0,0.0,0.0,0.0,0.0,0.0,0.0,0.0,0.0,0.0,0.0,0.0,0.0,0.0,0.0,0.0,0.0,0.0,0.0,0.0,0.0,0.0,0.0,0.0,0.0,0.0,0.0,0.0,0.0,0.0,0.0,0.0,0.0,0.0,0.0,0.0,0.0,0.0,0.0,0.0,0.0,0.0,0.0,0.0,0.0,0.0,0.0,0.0,0.0,0.0,0.0,0.0,0.0,0.0,0.0,0.0,0.0,0.0,0.0,0.0,0.0,0.0,0.0,0.0,0.0,0.0,0.0,0.0,0.0,0.0,0.0,0.0,0.0,0.0,0.0,0.0,0.0,0.0,0.0,0.0,0.0,0.0,0.0,0.0,0.0,0.0,0.0,0.0,-0.1382,-0.3164,-0.4755,-0.5346,-0.5879,-0.6609,-0.7784,-0.7795,-0.7682,-0.7495,0.0,0.0,0.0,0.0,0.0,0.0,0.0,0.0,0.0,0.0,0.0,0.0,0.0,0.0,0.0,0.0,0.0,0.0,0.0,0.0,0.0,0.0,0.0,0.0,0.0,0.0,0.0,0.0,0.0,0.0,0.0,0.0,0.0,0.0,0.0,0.0,0.0,0.0,0.0,0.0,0.0,0.0,0.0,0.0,0.0,0.0,0.0,0.0,0.0,0.0,0.0,0.0,0.0,0.0,0.0,0.0,0.0,0.0,0.0,0.0,0.0,0.0,0.0,0.0,0.0,0.0,0.0,0.0,0.0,0.0,0.0,0.0,0.0,0.0,0.0,0.0,0.0,0.0,0.0,0.0,0.0,0.0,0.0,0.0,0.0,0.0,0.0,0.0,0.0,0.0,0.0,0.0,0.0,0.0,0.0,0.0,0.0,0.0,0.0,0.0,0.0,0.0,-0.0099,-0.2529,-0.4445,-0.4789,-0.5241,-0.6156,-0.7593,-0.7172,-0.7014,-0.7302,0.0,0.0,0.0,0.0,0.0,0.0,0.0,0.0,0.0,0.0,0.0,0.0,0.0,0.0,0.0,0.0,0.0,0.0,0.0,0.0,0.0,0.0,0.0,0.0,0.0,0.0,0.0,0.0,0.0,0.0,0.0,0.0,0.0,0.0,0.0,0.0,0.0,0.0,0.0,0.0,0.0,0.0,0.0,0.0,0.0,0.0,0.0,0.0,0.0,0.0,0.0,0.0,0.0,0.0,0.0,0.0,0.0,0.0,0.0,0.0,0.0497,0.0,0.0,0.0,0.0,0.0,0.0,0.0,0.0,0.0,0.0,0.0,0.0,0.0,0.0,0.0,0.0,0.0,0.0,0.0,0.0,0.0,0.0,0.0,0.0,0.0,0.0,0.0,0.0,0.0,0.0,0.0,0.0,0.0,0.0,0.0,0.0,0.0,0.0,0.0,0.0,0.0,-0.0149,-0.181,-0.3528,-0.4676,-0.543,-0.6007,-0.6401,-0.6989,-0.6952,-0.6,-0.5511,0.0,0.0,0.0,0.0,0.0,0.0,0.0,0.0,0.0,0.0,0.0,0.0,0.0,0.0,0.0,0.0,0.0,0.0,0.0,0.0,0.0,0.0,0.0,0.0,0.0,0.0,0.0,0.0,0.0,0.0,0.0,0.0,0.0,0.0,0.0,0.0,0.0,0.0,0.0,0.0,0.0,0.0,0.0,0.0,0.0,0.0,0.0,0.0,0.0,0.0,0.0,0.0,0.0,0.0,0.0,0.0,0.0,0.0,0.0,0.0,-0.0839,0.0,0.0,0.0,0.0,0.0,0.0,0.0,0.0,0.0,0.0,0.0,0.0,0.0,0.0,0.0,0.0,0.0,0.0,0.0,0.0,0.0,0.0,0.0,0.0,0.0,0.0,0.0,0.0,0.0,0.0,0.0,0.0,0.0,0.0,0.0,0.0,0.0,0.0,0.0,0.0,-0.0153,-0.1561,-0.3287,-0.4895,-0.5333,-0.5755,-0.6469,-0.6497,-0.644,-0.6385,-0.5439,0.0,0.0,0.0,0.0,0.0,0.0,0.0,0.0,0.0,0.0,0.0,0.0,0.0,0.0,0.0,0.0,0.0,0.0,0.0,0.0,0.0,0.0,0.0,0.0,0.0,0.0,0.0,0.0,0.0,0.0,0.0,0.0,0.0,0.0,0.0,0.0,0.0,0.0,0.0,0.0,0.0,0.0,0.0,0.0,0.0,0.0,0.0,0.0,0.0,0.0,0.0,0.0,0.0,-0.0763,-0.0601,0.0361,-0.1018,-0.0326,0.1756,0.0177,-0.2109,-0.4549,-0.3156,0.0,0.0,0.0,0.0,0.0,0.0,0.0,0.0,0.0,0.0,0.0,0.0,0.0,0.0,0.0,0.0,0.0,0.0,0.0,0.0,0.0,0.0,0.0,0.0,-0.76,-0.7114,-0.556,0.0,0.0,0.0,0.0,0.0,0.0,0.0,0.0,0.0,0.0,0.0,-0.0106,-0.1592,-0.3389,-0.5205,-0.513,-0.546,-0.6593,-0.594,-0.5814,-0.6694,-0.5358,-0.4454,0.0,0.0,0.0,0.0,0.0,0.0,0.0,0.0,0.0,0.0,0.0,0.0,0.0,0.0,0.0,0.0,0.0,0.0,0.0,0.0,0.0,0.0,0.0,0.0,0.0,0.0,0.0,0.0,0.0,0.0,0.0,0.0,-0.3125,-0.3072,0.0,0.0,0.0,0.0,0.0,0.0,0.0,0.0,0.0,0.0,0.0,0.0,0.0,-0.3525,-0.4667,-0.1557,0.0,-0.0065,-0.3694,-0.5394,-0.5193,-0.3617,-0.3668,-0.4933,-0.3354,0.0,-0.5217,-0.4523,0.0,0.0,0.0,0.0,0.0,0.0,0.0,0.0,0.0,0.0,0.0,0.0,0.0,0.0,0.0,0.0,0.0,0.0,0.0,0.0,0.0,0.0,-0.7937,-0.7023,-0.7343,-0.7433,0.0,-0.5233,-0.4541,-0.3645,-0.3421,0.0,0.0,0.0,0.0,0.0,0.0,0.0,-0.0,-0.1588,-0.3409,-0.5216,-0.538,-0.5328,-0.5182,-0.5652,-0.5538,-0.4688,-0.4956,-0.4835,-0.4084,-0.4057,0.0,0.0,0.0,0.0,0.0,0.0,0.0,0.0,0.0,0.0,0.0,0.0,0.0,0.0,0.0,0.0,0.0,0.0,0.0,0.0,0.0,0.0,0.0,0.0,0.0,0.0,0.0,0.0,0.0,-0.4053,-0.4433,-0.4688,-0.4665,-0.4735,0.0,0.0,0.0,0.0,0.0,0.0,0.0,0.0,0.0,-0.4191,-0.5038,-0.5567,-0.5592,-0.4025,-0.2686,-0.1754,-0.384,-0.5383,-0.6522,-0.5591,-0.569,-0.6497,-0.5428,-0.5358,-0.5851,-0.5382,-0.4924,-0.4562,0.0,0.0,0.0,0.0,-0.5171,-0.611,-0.5225,-0.4901,-0.4874,-0.4701,0.0,0.0,0.0,0.0,0.0,0.0,0.0,-0.7422,0.0,0.0,-0.9103,-0.8493,-0.8318,-0.7953,-0.6715,-0.5751,-0.4907,0.0,-0.3903,-0.376,-0.3391,0.0,0.0,0.0,0.0,0.0,0.0,-0.1579,-0.338,-0.5212,-0.5401,-0.5434,-0.5483,-0.5457,-0.528,-0.4977,-0.476,-0.4525,-0.4151,-0.4353,-0.443,0.0,0.0,0.0,0.0,0.0,0.0,0.0,0.0,0.0,0.0,0.0,0.0,0.0,0.0,0.0,0.0,0.0,0.0,0.0,0.0,0.0,0.0,0.0,0.0,0.0,0.0,0.0,0.0,-0.4942,-0.5546,-0.6038,-0.6176,-0.6304,0.0,0.0,0.0,0.0,0.0,0.0,-0.5584,-0.5939,-0.6191,-0.6237,-0.74,-0.7646,-0.6777,-0.6549,-0.5837,-0.4584,-0.4919,-0.5817,-0.7296,-0.6951,-0.6725,-0.6732,-0.659,-0.6631,-0.6812,-0.6002,-0.55,-0.5087,-0.5047,-0.5667,-0.6448,-0.5434,-0.5856,-0.688,-0.594,-0.5589,-0.5559,-0.5365,-0.546,-0.5821,-0.6392,0.0,0.0,0.0,0.0,-0.8621,-0.8828,-0.9403,-0.9878,-0.9541,-0.9198,-0.8602,-0.7265,-0.6408,-0.5575,0.0,-0.4338,-0.4237,-0.3784,0.0,0.0,0.0,0.0,-0.0336,-0.1257,-0.2126,-0.3376,-0.5236,-0.5568,-0.5765,-0.5785,-0.5419,-0.527,-0.5306,-0.4807,-0.451,-0.451,-0.5084,-0.5335,-0.5311,0.0,0.0,0.0,0.0,0.0,0.0,0.0,0.0,0.0,0.0,0.0,0.0,0.0,0.0,0.0,0.0,0.0,0.0,0.0,0.0,0.0,0.0,0.0,0.0,0.0,0.0,0.0,0.0,0.0,-0.6344,-0.6736,0.0,0.0,0.0,0.0,-0.7849,-0.7692,-0.7571,-0.7581,-0.7991,-0.8294,-0.8451,-0.8827,-0.9098,-0.9311,-0.8712,-0.8505,-0.8626,-0.881,-0.8941,-0.9028,-0.7447,-0.6702,-0.6702,-0.6695,-0.7334,-0.8154,-0.6477,-0.5698,-0.5542,-0.5396,-0.5782,-0.6347,-0.5657,-0.5959,-0.6639,-0.5855,-0.5589,-0.561,-0.5728,-0.6773,-0.8245,-0.9213,-1.0558,0.0,0.0,-1.0123,-1.0588,-0.8992,-0.9332,-0.9869,-0.9023,-0.9452,-0.9528,-0.7676,-0.7253,-0.6707,0.0,-0.4785,-0.467,-0.4098,0.0,-0.1681,-0.0349,-0.0058,-0.1259,-0.4683,-0.3732,-0.3374,-0.5226,-0.6145,-0.6254,-0.5258,-0.5781,-0.5727,-0.4803,-0.5194,-0.5416,-0.5416,-0.6551,-0.6779,-0.595,-0.6835,0.0,0.0,0.0,0.0,0.0,0.0,0.0,0.0,0.0,0.0,0.0,0.0,0.0,0.0,0.0,0.0,0.0,0.0,0.0,0.0,0.0,0.0,0.0,0.0,0.0,0.0,0.0,0.0,-0.9614,-1.0052,0.0,-1.0596,-0.9688,-0.9173,-0.9473,-0.8651,-0.8164,-0.8259,-0.8633,-0.8922,-0.9145,-0.9977,-1.0258,-0.9953,-1.0343,-1.0338,-0.9776,-0.9863,-0.9942,-0.9947,-0.948,-0.919,-0.9186,-0.914,-0.9331,-0.9625,-0.8955,-0.8507,-0.8393,-0.8319,-0.8719,-0.9262,-0.8534,-0.8407,-0.8416,-0.7638,-0.6846,-0.6284,-0.6721,-0.8453,-1.0461,-1.0812,-1.2138,-1.3373,-1.2775,-1.3006,-1.3261,-1.2652,-1.2964,-1.3145,-1.2158,-1.1722,-1.1097,-0.9724,-0.8404,-0.7187,-0.6542,-0.5748,-0.5142,-0.4948,-0.3406,-0.1681,-0.0236,0.0,-0.1324,-0.4926,-0.4863,-0.4653,-0.5306,-0.5693,-0.5879,-0.5962,-0.6031,-0.6147,-0.6244,-0.6207,-0.6138,-0.5944,-0.6945,-0.7277,-0.6776,-0.7524,-0.7569,0.0,0.0,0.0,0.0,0.0,0.0,0.0,0.0,0.0,0.0,0.0,0.0,0.0,0.0,0.0,0.0,0.0,0.0,0.0,0.0,0.0,0.0,0.0,0.0,0.0,0.0,-1.078,-1.1802,-1.2351,-1.2724,-1.2845,-1.2141,-1.1585,-1.138,-1.0989,-1.0503,-0.9881,-1.058,-1.094,-1.0747,-1.1552,-1.178,-1.1381,-1.2131,-1.2174,-1.1512,-1.1155,-1.1058,-1.1063,-1.0711,-1.0611,-1.06,-1.0539,-1.0721,-1.1047,-1.0979,-1.1072,-1.1232,-1.0349,-1.0266,-1.0693,-1.0147,-0.9647,-0.9025,-0.8598,-0.8081,-0.7864,-0.8698,-1.0421,-1.223,-1.26,-1.4018,-1.5437,-1.5085,-1.5401,-1.5632,-1.5225,-1.5226,-1.5168,-1.441,-1.3708,-1.2832,-1.1433,-1.0076,-0.8856,-0.8147,-0.6686,-0.5549,-0.5526,-0.4265,-0.2555,-0.0313,-0.1027,-0.2489,-0.4265,-0.5001,-0.5516,-0.583,-0.6083,-0.6485,-0.6931,-0.6922,-0.7057,-0.7485,-0.7269,-0.7119,-0.7188,-0.8006,-0.8346,-0.8034,-0.8766,-0.9078,-0.8908,0.0,0.0,0.0,0.0,0.0,0.0,0.0,0.0,0.0,0.0,0.0,0.0,0.0,0.0,0.0,0.0,0.0,0.0,0.0,0.0,0.0,0.0,0.0,-0.9136,-0.9738,-1.0814,-1.2653,-1.35,-1.4066,-1.4451,-1.4732,-1.4533,-1.3586,-1.4713,-1.4537,-1.2546,-1.3925,-1.435,-1.3299,-1.3494,-1.3647,-1.3654,-1.4025,-1.4173,-1.4173,-1.2942,-1.2328,-1.2328,-1.1219,-1.0702,-1.0697,-1.0712,-1.1402,-1.2339,-1.2345,-1.3052,-1.388,-1.1308,-1.0303,-1.0303,-1.0303,-0.9562,-0.8496,-0.8492,-0.9227,-1.0374,-1.1421,-1.2501,-1.357,-1.4547,-1.632,-1.7775,-1.6757,-1.7226,-1.7611,-1.6314,-1.5928,-1.5836,-1.5405,-1.5321,-1.4736,-1.2736,-1.2225,-1.1643,-0.9739,-0.7482,-0.5888,-0.5748,-0.557,-0.4209,-0.0629,-0.3082,0.0,-0.3019,-0.4361,-0.5763,-0.6593,-0.7502,-0.8027,-0.8027,-0.8415,-0.8534,-0.8381,-0.8256,-0.8446,-0.9107,-0.9867,-1.0095,-0.9814,-1.0625,-1.1148,-1.1307,0.0,0.0,0.0,0.0,0.0,0.0,0.0,0.0,0.0,0.0,0.0,0.0,0.0,0.0,0.0,0.0,0.0,0.0,0.0,0.0,0.0,-0.8112,-0.9206,-1.0327,-1.1984,-1.3442,-1.4541,-1.5441,-1.5923,-1.6038,-1.5817,-1.5632,-1.5716,-1.5726,-1.5585,-1.5316,-1.4996,-1.4751,-1.4685,-1.478,-1.4932,-1.5076,-1.517,-1.5296,-1.522,-1.4139,-1.3646,-1.3568,-1.3502,-1.3311,-1.3149,-1.3636,-1.3868,-1.3877,-1.4177,-1.4445,-1.4663,-1.3464,-1.2989,-1.2989,-1.2989,-1.2296,-1.1069,-1.0148,-1.0512,-1.1484,-1.1641,-1.3362,-1.5441,-1.5763,-1.7301,-1.8839,-1.8599,-1.8673,-1.902,-1.936,-1.8909,-1.8225,-1.7816,-1.7177,-1.6206,-1.4697,-1.3252,-1.2004,-1.1495,-0.9766,-0.8022,-0.7151,-0.6356,-0.5179,-0.3151,-0.3159,0.0,-0.4774,-0.5911,-0.663,-0.6724,-0.7502,-0.8285,-0.8877,-0.9078,-0.9453,-0.9971,-0.9792,-0.9737,-1.0027,-1.0747,-1.1335,-1.1787,-1.1998,-1.1928,0.0,0.0,0.0,0.0,0.0,0.0,0.0,0.0,0.0,0.0,0.0,0.0,0.0,0.0,0.0,0.0,0.0,0.0,0.0,0.0,0.0,0.0,-0.8697,-0.9834,-1.1154,-1.2746,-1.4394,-1.6049,-1.6689,-1.7139,-1.7424,-1.7177,-1.6848,-1.6445,-1.7131,-1.7067,-1.5988,-1.6296,-1.6403,-1.6139,-1.6147,-1.6233,-1.6355,-1.6355,-1.6507,-1.6648,-1.55,-1.5078,-1.5205,-1.4878,-1.4616,-1.4476,-1.4816,-1.4863,-1.4716,-1.4897,-1.4963,0.0,0.0,0.0,0.0,0.0,-1.3209,-1.2917,-1.1646,-1.1937,-1.2773,-1.2706,-1.4167,-1.6055,-1.6534,-1.787,-1.9278,-1.9739,-1.9824,-1.9925,-2.0305,-1.9972,-1.9434,-1.9078,-1.85,-1.7687,-1.634,-1.4776,-1.3558,-1.2924,-1.1292,0.0,-0.9035,-0.7379,-0.6037,-0.5812,-0.4828,-0.4874,-0.6992,-0.7085,-0.7233,-0.7712,-0.8221,-0.9058,-1.0268,-1.0261,0.0,0.0,0.0,-1.1477,-1.1909,-1.2341,0.0,0.0,0.0,0.0,0.0,0.0,0.0,0.0,-1.0834,-1.0723,0.0,0.0,0.0,0.0,0.0,0.0,0.0,0.0,0.0,0.0,0.0,0.0,0.0,0.0,0.0,0.0,-0.9499,-1.0629,-1.1829,-1.2687,-1.4184,-1.69,-1.7395,-1.7822,-1.8564,-1.854,-1.7987,-1.6716,-1.8534,-1.8601,-1.6055,0.0,0.0,0.0,0.0,-1.7521,-1.7563,-1.7563,-1.7828,-1.8196,-1.7,-1.6564,-1.6763,-1.5686,-1.517,-1.497,-1.503,-1.5044,-1.5017,-1.505,-1.5044,-1.4983,-1.4683,-1.4569,-1.4361,-1.312,-1.3297,-1.4005,-1.2942,0.0,0.0,-1.4188,-1.4895,-1.5922,-1.6902,-1.8014,-1.9204,-2.0157,-2.0489,-2.0556,-2.023,-2.0056,-1.9883,-1.96,-1.9429,-1.901,-1.7705,-1.6683,-1.5527,-1.4214,-1.2432,-1.1081,-1.0858,-0.8496,-0.7068,-0.824,-0.726,-0.7082,-0.9086,-0.8079,-0.775,-0.9209,0.0,0.0,-1.164,-1.1639,-1.2018,-1.3058,-1.3176,-1.3543,-1.4347,-1.4425,-1.4896,-1.5804,-1.5816,-1.5683,-1.5516,-1.5426,-1.4821,-1.3734,-1.2432,-1.2235,0.0,0.0,0.0,0.0,0.0,0.0,0.0,0.0,0.0,0.0,0.0,0.0,0.0,0.0,0.0,-0.9711,-1.0367,-1.1331,-1.2825,-1.318,-1.3982,-1.5945,-1.7472,-1.8457,-1.8553,-1.8143,-1.8276,-1.9127,-1.8852,-1.8893,-1.9537,-1.9237,-1.8877,-1.8718,-1.863,-1.8861,-1.9172,-1.9172,-1.9368,-1.9751,0.0,0.0,-1.677,-1.6773,-1.6145,-1.499,-1.5458,-1.5531,-1.5331,-1.5565,-1.5524,-1.5284,-1.499,-1.4877,-1.487,-1.4537,-1.4606,-1.479,-1.4517,-1.4606,-1.4796,-1.4796,-1.5388,-1.6085,-1.6254,-1.7557,0.0,-1.9274,-1.9923,-2.0769,-2.1404,-2.1024,-2.0552,-2.0905,-2.036,-1.9603,-1.9029,-1.7851,-1.6639,-1.5601,-1.4194,-1.2638,-1.1081,-0.9622,-0.8779,-0.9095,-0.8753,-0.867,-0.9067,-0.9151,-0.9292,-0.9585,-1.0661,-1.1454,-1.1764,-1.2603,-1.3507,-1.4294,-1.5205,-1.5819,-1.6111,-1.6503,-1.6821,-1.7032,-1.7065,-1.6736,-1.6126,-1.5576,-1.5154,-1.4789,-1.4078,-1.364,0.0,0.0,0.0,0.0,0.0,0.0,0.0,0.0,0.0,0.0,0.0,-0.871,-0.9365,0.0,-1.0274,-1.0481,-1.1049,-1.1737,-1.2522,-1.3119,-1.419,-1.6056,-1.7232,-1.8214,-1.8864,-1.8896,-1.9005,-1.9418,-1.9446,-1.954,-1.9747,-1.9766,-1.986,-2.0076,-2.0085,-2.0282,-2.0778,-2.0778,-2.0985,-2.1306,-2.0161,-1.947,-1.9032,-1.797,-1.7073,-1.6317,-1.598,-1.5745,-1.5625,-1.5765,-1.5745,-1.5598,-1.5451,-1.5217,-1.4963,-1.4963,-1.4963,-1.4963,-1.4963,-1.4963,-1.4963,-1.4963,-1.5294,-1.5675,-1.6176,-1.7299,-1.8516,-1.9084,-1.9916,-2.0712,-2.1155,-2.0934,-2.0663,-2.0959,-2.0605,-2.0127,-1.9697,-1.8276,-1.6813,-1.5987,-1.4385,-1.3054,-1.2365,-1.1459,-1.0651,-1.0121,-0.9569,-0.9532,-1.0359,-1.026,-1.0268,-1.0923,-1.1596,-1.2258,-1.2948,-1.4105,-1.5049,-1.5729,-1.6423,-1.7025,-1.7392,-1.7638,-1.777,-1.7802,-1.779,-1.7575,-1.7083,-1.6416,-1.5959,-1.5802,-1.5152,-1.4624,0.0,0.0,0.0,0.0,0.0,0.0,0.0,0.0,-0.7812,-0.9156,-0.9482,-0.9769,-1.045,-1.0863,-1.1096,-1.1156,-1.161,-1.1951,-1.1951,-1.2797,-1.4163,-1.607,-1.6929,-1.787,-1.9175,-1.9587,-1.963,-1.9335,-1.9923,-2.0001,-1.9362,-2.0165,-2.0859,-2.1221,-2.146,-2.1868,-2.2314,-2.2561,-2.2865,-2.3287,-2.2045,-2.1503,-2.1542,-1.9397,-1.8141,-1.7598,-1.6386,-1.5832,-1.5832,-1.5832,-1.5832,-1.5832,-1.5832,-1.5545,-1.5137,-1.5137,-1.5137,-1.5137,-1.5137,-1.5137,-1.5137,-1.5137,-1.5264,-1.5569,-1.6426,-1.7408,-1.8389,-1.9224,-2.0052,-2.0674,-2.0586,-2.0566,-2.0566,-2.0566,-2.0566,-2.0469,-2.0117,-1.8552,-1.6909,-1.6163,-1.4531,-1.3407,-1.3521,-1.3134,-1.2572,-1.1816,-1.0777,-1.0713,-1.2322,-1.1793,-1.163,-1.2563,-1.2767,-1.3353,-1.4648,-1.5664,-1.6493,-1.7145,-1.7553,-1.7995,-1.8518,-1.8518,-1.8518,-1.8518,-1.836,-1.8154,-1.7826,-1.7092,-1.6601,-1.6265,-1.569,-1.5234,-0.228,-0.2831,-0.2719,-0.3848,-0.4118,-0.455,0.0,0.0,-0.7473,-0.9563,-1.0039,-1.0208,-1.0799,-1.1202,-1.1463,-1.173,-1.2044,-1.2258,-1.2258,-1.2352,-1.3164,-1.5163,-1.6808,-1.8184,-1.9204,-1.9154,-1.9474,-2.0313,-1.9678,-1.952,-2.0401,-2.0858,-2.1182,-2.123,-2.2522,-2.3489,-2.396,-2.493,-2.5577,-2.6063,-2.4872,-2.3755,-2.2727,-2.1444,-1.9761,-1.7598,-1.6386,-1.5832,-1.5832,-1.5832,-1.5832,-1.5832,-1.5832,-1.5792,-1.5732,-1.5732,-1.5732,-1.5732,-1.5732,-1.5732,-1.5732,-1.5732,-1.6274,-1.7018,-1.7109,-1.8447,-1.9892,-1.9633,-2.0348,-2.1064,-2.0674,-2.0566,-2.0566,-2.0566,-2.0566,-2.0557,-2.0498,-1.9245,-1.7854,-1.6977,-1.5978,-1.4805,-1.3147,-1.4005,-1.4807,-1.4728,-1.3867,-1.3571,-1.468,-1.4461,-1.4296,-1.4435,-1.4867,-1.5594,-1.6786,-1.7218,-1.7707,-1.846,-1.912,-1.9559,-1.9623,-1.9623,-1.9623,-1.9623,-1.8979,-1.8307,-1.7652,-1.6903,-1.6213,-1.5526,-1.541,-1.5391,-0.2963,-0.3816,0.0,0.0,-0.5193,-0.6124,-0.7175,-0.8106,-0.9101,-1.0349,-1.0762,-1.1002,-1.143,-1.1737,-1.1977,0.0,-1.2225,-1.2305,-1.2305,-1.2732,-1.3665,-1.5021,-1.6578,-1.7971,-1.9185,-1.9448,-1.9812,-2.0547,-2.0167,-2.0167,-2.0566,-2.0986,-2.1569,-2.2512,-2.3429,-2.4452,-2.5502,-2.5995,-2.627,-2.6483,-2.5378,-2.4522,-2.3978,-2.2161,-1.9943,-1.7598,-1.6386,-1.5832,-1.5832,-1.5832,-1.5832,-1.5832,-1.5832,-1.5832,-1.5832,-1.5832,-1.5832,-1.5832,-1.5832,-1.5832,-1.592,-1.6669,-1.713,-1.7644,-1.836,-1.9445,-2.0382,-1.9985,-2.0482,-2.1133,-2.0684,-2.0566,-2.0566,-2.0566,-2.0566,-2.0566,-2.0566,-1.9625,-1.8319,-1.7128,-1.6068,-1.5065,-1.3852,-1.4193,-1.4977,-1.5895,-1.5155,-1.4736,-1.5163,-1.5101,-1.5127,-1.5384,-1.59,-1.6461,-1.7165,-1.7679,-1.8214,-1.8673,-1.9371,-1.9798,-1.9798,-1.9798,-1.9798,-1.9798,-1.9097,-1.8555,-1.8232,-1.7316,-1.6784,-1.6433,-1.6236,-1.6182,-0.3195,0.0,0.0,-0.5108,-0.6211,-0.7409,-0.8133,-0.9259,-1.0276,-1.0956,-1.1276,-1.149,-1.171,-1.1984,-1.2251,-1.2542,-1.2611,-1.2806,-1.3091,-1.3665,-1.445,-1.5438,-1.6475,-1.7673,-1.934,-1.9738,-2.019,-2.0801,-2.0941,-2.1128,-2.1635,-2.2005,-2.2842,-2.4073,-2.486,-2.5776,-2.6964,-2.7221,-2.7395,-2.7383,-2.6284,-2.5535,-2.521,-2.2513,-2.0305,-1.8588,-1.703,-1.6292,-1.6292,-1.592,-1.5832,-1.5832,-1.5832,-1.5832,-1.5832,-1.5832,-1.5832,-1.5832,-1.5832,-1.5832,-1.6015,-1.7318,-1.7963,-1.8411,-1.967,-2.066,-2.124,-2.0835,-2.104,-2.1309,-2.0869,-2.0654,-2.0566,-2.0566,-2.0566,-2.0566,-2.0566,-1.952,-1.8223,-1.7217,-1.6293,-1.5426,-1.447,-1.4883,-1.5649,-1.6482,-1.6219,-1.5948,-1.5948,-1.5948,-1.6113,-1.6441,-1.6749,-1.7083,-1.753,-1.8137,-1.8703,-1.9069,-1.9679,-2.0112,-2.0263,-2.0125,-2.0112,-2.0263,-1.9318,-1.8814,-1.8814,-1.7605,-1.7081,-1.7031,-1.6822,-1.6797,0.0,0.0,-0.5034,-0.6066,-0.663,-0.7414,-0.9357,-0.995,-1.0347,-1.1204,-1.1416,-1.143,-1.1436,-1.1683,-1.2232,-1.3134,-1.3472,-1.4027,-1.495,-1.5163,-1.5517,-1.6428,-1.6576,-1.7496,0.0,-1.9905,-2.0277,-2.1303,-2.1711,-2.2606,-2.4122,-2.4625,-2.5116,-2.5688,-2.723,-2.7992,-2.8016,-2.9118,-2.9714,-2.9714,-2.8518,-2.7441,-2.6307,-2.2843,-2.1293,-2.1025,-1.868,-1.7591,-1.7598,-1.6298,-1.5832,-1.5832,-1.5832,-1.5832,-1.5832,-1.5832,-1.5832,-1.5832,-1.5832,-1.5832,-1.6015,-1.7318,-1.8503,-1.967,-2.0845,-2.212,-2.294,-2.2522,-2.2187,-2.1768,-2.1328,-2.0889,-2.0566,-2.0566,-2.0566,-2.0566,-2.0566,-1.8868,-1.7334,-1.7326,-1.6941,-1.6188,-1.4839,-1.6746,-1.8056,-1.6769,-1.7354,-1.794,-1.794,-1.794,-1.794,-1.792,-1.7607,-1.767,-1.8394,-1.8823,-1.9374,-2.0121,-2.0465,-2.0932,-2.1418,-2.0928,-2.0891,-2.143,-1.989,-1.9067,-1.9067,-1.7482,-1.6709,-1.6709,-1.6728,-1.6953,0.0,0.0,-0.6696,-0.6722,-0.7876,-0.9286,-1.0166,-1.0653,-1.1132,-1.1607,-1.141,-1.1196,-1.139,-1.1803,-1.2333,-1.3192,-1.3832,-1.4471,-1.513,-1.5951,-1.6519,-1.6594,-1.7898,0.0,0.0,0.0,0.0,-2.2171,-2.2357,-2.3014,-2.4209,-2.4724,-2.5608,-2.6921,-2.7664,-2.8438,-2.9197,-2.9624,-2.9792,-2.9792,-2.8597,-2.7105,-2.5294,-2.3355,-2.2064,-2.1203,-1.9579,-1.8864,-1.8772,-1.7591,-1.7037,-1.6943,-1.6109,-1.5832,-1.5832,-1.5832,-1.6292,-1.6943,-1.6109,-1.5832,-1.6015,-1.7318,-1.8503,-1.9761,-2.0935,-2.2129,-2.3057,-2.2627,-2.2412,-2.2139,-2.1426,-2.1123,-2.0937,-2.0635,-2.0566,-2.0566,-2.0566,-2.0001,-1.9274,-1.855,-1.8285,-1.7751,-1.6345,-1.7136,-1.8075,-1.8319,-1.8182,-1.8008,-1.8008,-1.8008,-1.8008,-1.8008,-1.7881,-1.8187,-1.9176,-1.9448,-2.0001,-2.1031,-2.1194,-2.1292,-2.1481,-2.1305,-2.1305,-2.1493,-1.9936,-1.9112,-1.9112,-1.782,-1.7168,-1.7168,-1.7451,-1.7656,-0.5969,-0.6922,-0.8031,-0.8223,-0.9231,-1.0431,-1.0957,-1.1365,-1.155,-1.1423,-1.1102,-1.0893,-1.1118,-1.1538,-1.2123,-1.3199,-1.4144,-1.5053,-1.584,-1.6821,-1.7487,-1.7577,-1.8993,-2.0065,0.0,0.0,0.0,-2.2902,-2.3509,-2.4319,-2.5608,-2.6148,-2.6996,-2.8256,-2.8597,-2.9028,-2.9792,-3.0139,-3.0279,-3.0279,-2.8821,-2.7348,-2.5942,-2.4809,-2.3861,-2.3104,-2.1425,-2.072,-2.0631,-1.9031,-1.8319,-1.8226,-1.7483,-1.7109,-1.7109,-1.7109,-1.7669,-1.8133,-1.6943,-1.6749,-1.7304,-1.8041,-1.8864,-1.9761,-2.0935,-2.1578,-2.1896,-2.2544,-2.2265,-2.1845,-2.1661,-2.1465,-2.1162,-2.0869,-2.0684,-2.0566,-2.0566,-2.0323,-1.9844,-1.9116,-1.9036,-1.8734,-1.8062,-1.8536,-1.9093,-1.9281,-1.911,-1.8921,-1.8921,-1.8664,-1.8596,-1.8921,-1.8921,-1.9238,-1.9943,-2.037,-2.0848,-2.1621,-2.1711,-2.187,-2.2071,-2.1882,-2.1882,-2.2071,-2.0497,-1.9638,-1.9638,-1.8281,-1.7607,-1.7607,-1.7881,-1.8134,-0.7827,-0.8189,-0.9048,-1.0367,-1.0707,-1.0922,-1.1793,-1.1908,-1.157,-1.0792,-1.0584,-1.0561,0.0,0.0,-1.1586,-1.32,-1.4469,-1.5743,-1.7089,-1.7745,-1.8379,0.0,0.0,0.0,0.0,0.0,0.0,-2.3652,0.0,-2.6554,-2.7999,-2.8624,-2.9265,-2.9844,-2.9856,-2.9856,-2.9934,-3.0833,-3.1254,-3.118,-2.9176,-2.8164,-2.8096,-2.7046,-2.6554,-2.6389,-2.4118,-2.3162,-2.2988,-2.0712,-1.9753,-1.967,-1.9662,-1.9579,-1.9497,-1.9579,-1.9579,-1.9405,-1.8326,-1.8588,-1.9497,-1.9497,-1.9588,-1.9761,-2.0935,-2.0576,-2.0133,-2.2501,-2.2032,-2.1099,-2.2244,-2.1914,-2.1289,-2.125,-2.0908,-2.0596,-2.0566,-1.9766,-1.9116,-1.9116,-1.9195,-1.9353,-1.9883,-2.0769,-2.0997,-1.9669,-2.0096,-2.059,-2.059,-1.9879,-1.9683,-2.0526,-2.059,-2.059,-2.0655,-2.1428,-2.1939,-2.1951,-2.2209,-2.2585,-2.3053,-2.2636,-2.2598,-2.3065,-2.1479,-2.0655,-2.0655,-1.8977,-1.8144,-1.8144,-1.8202,-1.8643,-0.7373,-0.9171,-1.1191,-1.1552,-1.2107,-1.2699,-1.2909,-1.1899,-1.0893,-1.0672,-1.0033,-0.9697,0.0,0.0,0.0,-1.3683,-1.4809,0.0,-1.7948,-1.8676,0.0,-1.9268,0.0,-2.2037,-2.1989,-2.3823,0.0,0.0,-2.6761,-2.7575,-2.8047,-2.9336,-3.0259,-3.082,-3.0833,-3.1193,-3.1901,-3.2105,-3.1888,-3.118,-3.0631,-2.9628,-2.8096,-2.7844,-2.729,-2.6483,-2.5859,-2.5597,-2.5514,-2.3961,-2.2843,-2.2105,-2.202,-2.0909,-1.9579,-2.0399,-2.0775,-2.0845,-2.0486,-2.0034,-1.9497,-1.9497,-2.0124,-2.0935,-2.1203,-2.1667,-2.2315,-2.296,-2.2785,-2.2457,-2.2502,-2.2353,-2.2021,-2.1387,-2.1143,-2.0967,-2.0635,-2.0401,-2.0382,-2.1115,-2.1866,-2.2306,-2.2136,-2.1981,-2.1823,-2.1809,-2.1149,-2.059,-2.059,-2.0398,-2.0333,-2.059,-2.059,-2.0846,-2.1491,-2.1753,-2.2137,-2.2763,-2.288,-2.2987,-2.3065,-2.294,-2.2927,-2.3078,-2.2063,-2.1553,-2.1553,-2.0462,-1.9944,-1.9944,-2.0512,-2.0859,-0.8626,-1.0649,-1.2856,-1.3275,-1.3334,-1.3254,-1.2969,-1.1717,-1.0539,-1.0241,-0.9715,0.0,0.0,0.0,0.0,0.0,0.0,0.0,-1.7,-1.8204,-1.9141,0.0,-2.1488,0.0,-2.2697,-2.465,-2.6214,0.0,-2.7562,-2.8298,-2.9057,-3.0124,-3.107,-3.1802,-3.1815,-3.2249,-3.3241,-3.282,-3.2522,-3.2393,-3.1609,-3.0556,-2.9474,-2.9069,-2.853,-2.7879,-2.7452,-2.7197,-2.7116,-2.5876,-2.5114,-2.4544,-2.4471,-2.3705,-2.2543,-2.2689,-2.2805,-2.2775,-2.2287,-2.1667,-2.0944,-2.0486,-2.0755,-2.1293,-2.1293,-2.1391,-2.1765,-2.2775,-2.2677,-2.2347,-2.2669,-2.2646,-2.2393,-2.1914,-2.1504,-2.1242,-2.1507,-2.1363,-2.1517,-2.2478,-2.3441,-2.3887,-2.3029,-2.326,-2.3361,-2.2769,-2.2337,-2.2001,-2.1702,-2.1416,-2.129,-2.1678,-2.1678,-2.1928,-2.2384,-2.2445,-2.2628,-2.3078,-2.3078,-2.3078,-2.3078,-2.3424,-2.3662,-2.3662,-2.311,-2.288,-2.288,-2.2274,-2.1958,-2.1958,-2.2686,-2.3174,-1.0562,-1.2247,-1.4083,-1.5026,-1.4375,-1.3369,-1.2737,-1.1611,-1.0446,-0.9841,0.0,-0.9807,-1.046,-1.0407,-1.0597,-1.1674,0.0,-1.4701,-1.5592,-1.7422,-1.8955,-1.9814,-2.17,-2.3138,-2.3481,-2.5358,-2.6716,-2.7344,-2.7833,-2.8762,-3.0336,-3.1169,-3.196,-3.2749,-3.289,-3.3394,-3.4177,-3.3394,-3.331,-3.3959,-3.2249,-3.1315,-3.118,-3.0203,-2.9792,-2.9714,-2.8767,-2.8347,-2.8267,-2.7302,-2.6883,-2.6719,-2.6894,-2.673,-2.6389,-2.5546,-2.5115,-2.4872,-2.3887,-2.3551,-2.329,-2.2022,-2.1649,-2.1728,-2.156,-2.0926,-2.0567,-2.2589,-2.2315,-2.1756,-2.2862,-2.2871,-2.2578,-2.2519,-2.1904,-2.153,-2.2517,-2.2516,-2.2627,-2.3514,-2.448,-2.4791,-2.3616,-2.4723,-2.5181,-2.3514,-2.3841,-2.4098,-2.359,-2.2665,-2.2384,-2.3185,-2.3125,-2.3125,-2.3245,-2.3125,-2.3078,-2.3078,-2.3198,-2.3245,-2.3245,-2.4092,-2.454,-2.454,-2.452,-2.4552,-2.4568,-2.4351,-2.4272,-2.4341,-2.497,-2.5689,-1.1414,-1.3353,-1.5089,-1.5676,-1.5204,-1.4505,-1.3987,-1.2166,0.0,0.0,0.0,-0.975,-1.0454,-1.0573,-1.1243,-1.3318,0.0,0.0,0.0,0.0,-1.8955,0.0,0.0,0.0,0.0,0.0,0.0,0.0,-2.8047,-2.8762,-3.0336,-3.236,-3.3602,-3.3739,-3.4543,-3.5067,-3.5213,-3.5067,-3.4691,-3.4027,-3.289,-3.196,-3.118,-3.0203,-2.9792,-2.9792,-2.9624,0.0,-2.9456,-2.9287,-2.87,-2.7936,-2.887,-2.8131,-2.6554,-2.7279,-2.6953,-2.6141,-2.5975,-2.5891,-2.5557,-2.3444,-2.3434,-2.4008,-2.3105,-2.3337,-2.374,-2.3212,-2.296,-2.2862,-2.3047,-2.3086,-2.2939,-2.2598,-2.2139,-2.1987,-2.259,-2.3649,-2.4564,-2.4719,-2.5581,-2.6139,-2.5901,-2.6355,-2.6543,-2.6206,-2.6035,-2.598,-2.587,-2.4085,-2.3173,-2.4002,-2.3484,-2.3365,-2.406,-2.3484,-2.3078,-2.3078,-2.3708,-2.4118,-2.4118,-2.5287,-2.5952,-2.5952,-2.6416,-2.6831,-2.7146,-2.7085,-2.7283,-2.7704,-2.8411,-2.8823,-1.2148,-1.3784,-1.5118,-1.6379,-1.5632,-1.4399,-1.3793,0.0,0.0,0.0,0.0,-1.0331,-1.1094,0.0,0.0,0.0,0.0,0.0,0.0,0.0,0.0,0.0,0.0,0.0,0.0,0.0,0.0,0.0,-2.8579,-2.9633,-3.1442,-3.3596,-3.4758,-3.4758,-3.5279,-3.5279,-3.4691,-3.5213,-3.4773,-3.3241,-3.282,-3.2105,-3.118,-3.0203,-2.9792,-2.9792,-2.9792,-3.0075,-3.0558,-3.0558,-3.0506,-3.0504,-3.1018,-3.0329,-2.8905,-2.8893,-2.8195,-2.729,-2.6719,-2.6483,-2.6307,-2.5221,-2.5221,-2.5546,-2.5062,-2.5221,-2.5557,-2.5052,-2.4893,-2.4893,-2.4893,-2.4893,-2.484,-2.4619,-2.4438,-2.4336,-2.4267,-2.5121,-2.5804,-2.5804,-2.6164,-2.6658,-2.704,-2.7249,-2.7415,-2.7525,-2.7426,-2.7131,-2.6493,-2.5459,-2.4829,-2.4878,-2.4163,-2.406,-2.4794,-2.3767,-2.3412,-2.4266,-2.4279,-2.4584,-2.5301,-2.6337,-2.7125,-2.7616,-2.8311,-2.8954,-2.951,-2.9809,-3.0171,-3.0535,-3.1202,-3.1544,-1.2748,-1.391,-1.4824,-1.6645,-1.5733,-1.4112,-1.3368,-1.2048,0.0,0.0,-1.0913,-1.1134,-1.1826,0.0,0.0,0.0,0.0,0.0,0.0,0.0,0.0,0.0,0.0,0.0,0.0,0.0,0.0,0.0,-2.9204,-3.0632,-3.2481,-3.4056,-3.4854,-3.4854,-3.4854,-3.4476,-3.3739,-3.4476,-3.4124,-3.2593,-3.2593,-3.2249,-3.1462,-3.0709,-3.0432,-3.0432,-3.0432,-3.0846,-3.1536,-3.1536,-3.196,-3.2593,-3.2593,-3.2177,-3.1375,-3.0465,-2.9719,-2.8905,-2.8104,-2.7785,-2.7785,-2.7785,-2.7406,-2.6801,-2.6565,-2.6637,-2.6883,-2.6778,-2.6767,-2.6837,-2.7047,-2.7128,-2.7024,-2.6689,-2.6581,-2.6344,-2.5934,-2.6159,-2.6533,-2.6533,-2.6658,-2.6973,-2.7604,-2.7986,-2.8343,-2.8614,-2.8661,-2.8344,-2.7385,-2.7145,-2.6835,-2.6159,-2.5145,-2.4851,-2.5563,-2.4381,-2.4137,-2.5522,-2.519,-2.5548,-2.6777,-2.7686,-2.8589,-2.955,-3.0272,-3.0994,-3.1711,-3.2206,-3.2588,-3.2885,-3.3379,-3.3598,-1.3138,-1.4065,-1.445,-1.5899,-1.5508,-1.4508,-1.3656,0.0,0.0,-1.1695,-1.1647,-1.1841,-1.2279,-1.2341,0.0,0.0,0.0,0.0,0.0,0.0,0.0,0.0,0.0,0.0,0.0,0.0,0.0,0.0,-2.9943,-3.1489,-3.2522,-3.2749,-3.289,-3.289,-3.289,-3.282,-3.2749,-3.282,-3.2749,-3.2593,-3.2593,-3.2522,-3.2464,-3.2393,-3.2321,-3.2321,-3.2321,-3.2393,0.0,-3.2464,-3.2522,-3.2593,-3.2593,-3.2522,-3.2464,-3.2365,-3.2294,-3.215,-3.2064,-3.2064,-3.2064,-3.2064,-3.0189,-2.7763,-2.6801,-2.7209,-2.79,-2.7806,-2.777,-2.7985,-2.8802,-2.9009,-2.8744,-2.7418,-2.6795,-2.6344,-2.5934,-2.6159,-2.6533,-2.6533,-2.7095,-2.7604,-2.767,-2.9002,-3.0058,-3.0122,-3.0221,-3.0223,-3.016,-2.9654,-2.9059,-2.8352,-2.6517,-2.5618,-2.6336,-2.5673,-2.5453,-2.6165,-2.6755,-2.7573,-2.8629,-2.9922,-3.0942,-3.1686,-3.2321,-3.2998,-3.3734,-3.3777,-3.406,-3.4496,-3.4555,-3.4555,-1.2916,-1.3595,-1.3988,-1.5343,-1.5029,-1.4102,-1.2988,0.0,-1.1807,-1.1784,-1.1746,-1.2071,-1.3103,-1.3307,-1.3862,0.0,-1.5432,-1.5893,-1.8387,0.0,0.0,0.0,0.0,0.0,0.0,0.0,0.0,-2.7641,-2.8969,-3.0251,-3.1245,-3.2129,-3.289,-3.3449,-3.289,-3.2321,-3.1742,-3.289,-3.289,-3.1742,-3.289,-3.3171,-3.2593,-3.2593,-3.2593,-3.2593,-3.2593,-3.289,0.0,-3.3449,-3.4037,-3.5005,-3.5005,-3.4946,-3.4821,-3.4339,-3.3815,-3.3267,-3.2792,-3.2593,-3.2593,-3.2593,-3.1775,-3.0716,-3.0314,-3.0478,-3.079,-3.0738,-3.0725,-3.0786,-3.1203,-3.1276,-3.115,-3.0558,-2.9383,-2.8236,-2.8079,-2.724,-2.6533,-2.6533,-2.7162,-2.7855,-2.8363,-2.9504,-3.045,-3.097,-3.1055,-3.114,-3.1158,-3.0922,-3.0705,-3.0451,-2.8142,-2.6791,-2.7115,-2.6424,-2.6556,-2.79,-2.8202,-2.9042,-3.0691,-3.1268,-3.2057,-3.3186,-3.3456,-3.3937,-3.4733,-3.4733,-3.4908,-3.5248,-3.5783,-3.5974,-1.2196,-1.2837,-1.3295,-1.4687,-1.4482,-1.3643,0.0,-1.1956,-1.168,-1.1564,-1.1733,-1.223,-1.3245,-1.3684,-1.4406,0.0,-1.5883,-1.6566,-1.9148,0.0,0.0,0.0,0.0,0.0,0.0,0.0,0.0,-2.8278,-2.8995,-2.9948,-3.1108,-3.1913,-3.2695,-3.3587,-3.2961,-3.2321,-3.1609,-3.2961,-3.289,-3.1683,-3.3476,-3.4023,-3.3378,-3.3897,-3.4167,-3.4167,-3.4167,-3.4515,0.0,-3.51,-3.5869,-3.6964,-3.6964,-3.6901,-3.6763,-3.6215,-3.5368,-3.4523,-3.398,-3.3628,-3.3463,-3.3463,-3.3255,-3.3101,-3.3394,-3.3031,-3.2664,-3.2961,-3.3421,-3.3805,-3.3805,-3.3776,-3.3679,-3.3448,-3.1875,-3.0418,-2.9952,-2.8618,-2.7491,-2.7255,-2.792,-2.8684,-2.9254,-3.0072,-3.094,-3.1739,-3.1853,-3.1881,-3.2185,-3.216,-3.21,-3.1935,-3.0328,-2.92,-2.9005,-2.8259,-2.8449,-3.0074,-2.9939,-3.0615,-3.2393,-3.2559,-3.314,-3.4298,-3.4336,-3.4676,-3.5329,-3.5327,-3.5575,-3.6003,-3.6598,-3.7089,-1.1019,-1.1693,-1.2244,-1.3755,-1.3828,-1.3291,0.0,-1.2203,-1.1971,-1.1074,-1.1711,-1.2416,-1.2416,-1.3239,-1.4357,-1.5788,-1.6177,-1.759,-2.1326,-2.1627,0.0,0.0,0.0,0.0,0.0,0.0,-3.068,-3.0594,-3.0609,0.0,-3.2958,-3.2136,-3.1916,-3.2579,-3.2593,-3.2593,-3.2593,-3.2593,-3.2593,-3.2593,-3.4339,-3.5175,-3.5239,-3.6961,-3.7748,-3.7748,-3.7748,-3.7748,0.0,-3.7748,-3.7764,-3.7822,-3.7822,-3.7822,-3.7748,-3.7764,-3.7263,-3.6538,-3.6538,-3.6117,-3.5439,-3.5439,-3.4773,-3.4177,-3.5133,-3.4124,-3.282,-3.3739,-3.5245,-3.6538,-3.6538,-3.643,-3.6138,-3.5368,-3.398,-3.2491,-3.1096,-3.0314,-2.9785,-2.9113,-2.969,-3.0269,-3.0269,-3.097,-3.1739,-3.2492,-3.2602,-3.2841,-3.3479,-3.3582,-3.331,-3.2656,-3.3045,-3.3086,-3.2415,-3.1632,-3.1625,-3.2708,-3.2282,-3.2455,-3.3542,-3.3846,-3.432,-3.5069,-3.5132,-3.531,-3.5603,-3.565,-3.6106,-3.6891,-3.691,-3.7743,-0.9918,-1.0817,-1.1629,-1.214,-1.2416,-1.2355,-1.1523,-1.1221,-1.1121,-1.0941,-1.1426,-1.2045,-1.2701,-1.365,-1.5003,-1.7078,-1.803,0.0,0.0,0.0,0.0,0.0,0.0,0.0,0.0,0.0,-3.0215,-3.0211,-3.0081,-3.0783,-3.2429,-3.3085,-3.3448,-3.3573,-3.2961,-3.2593,-3.2593,-3.3762,-3.4405,-3.442,-3.6168,-3.6961,-3.7021,-3.7557,-3.7822,-3.7822,-3.7822,-3.7822,-3.7822,-3.7822,-3.8092,-3.8525,-3.8525,-3.887,-3.9279,-3.8745,-3.8398,-3.8044,-3.6964,-3.6446,-3.6165,-3.5668,-3.4839,-3.4177,-3.5213,-3.4624,-3.3739,-3.4773,-3.577,-3.6615,-3.6615,-3.6993,-3.7318,-3.7021,-3.54,-3.3661,-3.2761,-3.1233,-2.9785,-2.9113,-3.0061,-3.0998,-3.0998,-3.2053,-3.3024,-3.3235,-3.3287,-3.3652,-3.4714,-3.4838,-3.5059,-3.5683,-3.6077,-3.5213,-3.2596,-3.3043,-3.3758,-3.4396,-3.4845,-3.5442,-3.6302,-3.5926,-3.5894,-3.6328,-3.5814,-3.5916,-3.6689,-3.6697,-3.7416,-3.8728,-3.8594,-3.9104,0.0,-0.9682,-1.0498,-1.1044,-1.1398,-1.1516,-1.0828,-1.0702,-1.065,-1.041,-1.0855,-1.1513,-1.2321,-1.3285,-1.4584,-1.6584,-1.7873,0.0,0.0,0.0,0.0,0.0,0.0,0.0,0.0,-3.1944,-3.1617,-3.1366,-3.1279,-3.1796,-3.3036,-3.4135,-3.4866,-3.5018,-3.4712,-3.4552,-3.4552,-3.5652,-3.6168,-3.6168,-3.7552,-3.8206,-3.8262,-3.8541,-3.8668,-3.8668,-3.8668,-3.8668,0.0,-3.8668,-3.8941,-3.9368,-3.9368,-3.9662,-4.002,-3.9558,-3.9139,-3.8745,-3.7815,-3.7306,-3.6919,-3.618,-3.5285,-3.461,-3.4839,-3.4758,-3.4691,-3.5344,-3.6054,-3.6676,-3.6964,-3.7616,-3.8206,-3.8206,-3.6896,-3.54,-3.4484,-3.2915,-3.1558,-3.0852,-3.1528,-3.2173,-3.2173,-3.3108,-3.394,-3.4268,-3.4412,-3.4927,-3.5967,-3.6173,-3.6519,-3.7272,-3.7775,-3.7163,-3.5023,-3.5321,-3.5866,-3.6371,-3.6732,-3.7139,-3.7622,-3.7313,-3.7226,-3.7414,-3.6967,-3.703,-3.7641,-3.797,-3.8588,-3.9531,-3.9681,-4.0008,0.0,-0.8323,-0.9081,-1.0224,-1.0532,-1.0514,-1.0214,-1.0339,0.0,-0.9594,-1.0113,-1.0853,-1.1507,-1.2385,-1.3493,-1.4932,-1.6377,0.0,0.0,0.0,0.0,0.0,0.0,0.0,0.0,-3.3801,-3.4333,-3.3735,-3.3633,-3.3886,-3.4627,-3.5353,-3.6114,-3.6853,-3.7585,-3.7914,-3.7822,-3.7863,-3.7863,-3.7879,-3.8635,-3.8978,-3.9016,-3.9782,-4.007,0.0,-4.007,-4.007,-4.007,-4.007,-4.007,-4.007,-4.007,-4.007,-4.007,-4.007,-3.961,-3.8962,-3.8908,-3.8469,-3.7748,-3.6888,-3.6165,-3.5459,-3.4499,-3.481,-3.5504,-3.5504,-3.6054,-3.6783,-3.7573,-3.8358,-3.8908,-3.8962,-3.8364,-3.7429,-3.6072,-3.5134,-3.443,-3.3761,-3.3668,-3.3719,-3.3754,-3.417,-3.4768,-3.5467,-3.5931,-3.6462,-3.7232,-3.7522,-3.7706,-3.7739,-3.842,-3.888,-3.888,-3.8208,-3.7984,-3.8493,-3.8061,-3.7849,-3.7908,-3.8162,-3.8322,-3.84,-3.8468,-3.8498,-3.8483,-3.9296,-3.9614,-3.9512,-4.02,-4.0489,-0.5371,0.0,-0.7712,-0.7432,-0.7921,-0.8543,0.0,-0.8868,-0.8908,0.0,0.0,-1.0616,-1.1592,-1.2443,-1.3866,-1.6491,-1.8201,-2.0076,0.0,0.0,0.0,0.0,0.0,0.0,0.0,-3.4695,-3.4528,-3.4382,-3.3887,-3.4043,-3.5067,-3.5876,-3.7093,-3.8707,-3.952,-3.9242,-3.7806,-3.8358,-3.8635,-3.8635,-3.9437,-3.9833,-3.9833,-4.002,-4.007,-4.007,-4.007,-4.007,-4.007,-4.007,-4.007,-4.007,-4.007,-4.007,-4.007,-4.007,-3.9952,-3.9731,-3.9086,-3.8799,-3.8381,-3.6943,-3.6826,-3.7084,-3.6153,-3.571,-3.5504,-3.5504,-3.6054,-3.6783,-3.7573,-3.8358,-3.9086,-3.9662,-3.8766,-3.7551,-3.6744,-3.5489,-3.4487,-3.4203,-3.4601,-3.5081,-3.5443,-3.6067,-3.6667,-3.7038,-3.7166,-3.7535,-3.832,-3.8477,-3.8683,-3.9081,-3.9528,-3.9804,-3.9804,-3.9615,-3.9559,-3.9678,-3.9769,-3.9868,-4.0002,-3.9526,-3.9303,-3.9367,-3.9487,-3.9493,-3.9392,-4.0149,-4.0482,-4.0392,-4.0469,-4.0489,-0.4093,-0.5374,-0.6888,-0.6742,-0.7264,-0.7973,-0.8395,0.0,0.0,0.0,0.0,0.0,-1.1554,-1.2324,0.0,-1.6152,-1.8026,0.0,0.0,0.0,0.0,0.0,0.0,0.0,0.0,-3.5493,-3.5414,-3.5414,-3.5346,-3.5537,-3.6144,-3.6922,-3.7827,-3.8849,-3.9634,-3.977,-3.9251,-3.9648,-3.98,-3.98,-4.002,-4.0254,-4.0449,-4.0204,-4.007,-4.007,-4.007,-4.007,-4.007,-4.007,-3.9901,-3.9542,-3.9542,-3.9332,-3.9119,-3.9437,-3.9542,-3.9542,-3.9489,-3.9193,-3.8728,-3.7833,-3.7652,-3.7674,-3.7168,-3.6812,-3.6554,-3.6554,-3.6814,-3.7263,-3.769,-3.8358,-3.9016,-3.9437,-3.8688,-3.7803,-3.766,-3.6446,-3.5496,-3.5606,-3.5958,-3.6348,-3.672,-3.7309,-3.7851,-3.8107,-3.8368,-3.8711,-3.9171,-3.9383,-3.9585,-3.9943,-4.0233,-4.0419,-4.0419,-4.0419,-4.0419,-4.0381,-4.0556,-4.0696,-4.0831,-4.0456,-4.0262,-4.0296,-4.0315,-4.0264,-4.0162,-4.0562,-4.0696,-4.062,-4.0543,-4.0489,-0.3395,-0.4752,-0.6349,-0.6698,-0.7161,-0.7698,-0.8312,0.0,0.0,0.0,0.0,0.0,0.0,0.0,0.0,0.0,0.0,0.0,0.0,0.0,0.0,0.0,0.0,0.0,-3.5739,-3.6224,-3.6539,-3.6539,-3.7002,-3.7287,-3.7361,-3.8003,-3.8488,-3.8687,-3.9294,-4.006,-4.0929,-4.0854,-4.0868,-4.0868,-4.0542,-4.0594,-4.1041,-4.0594,-4.0336,-4.0336,-4.0254,0.0,-4.0204,-4.0121,-3.9731,-3.9086,-3.9086,-3.8707,-3.8206,-3.887,-3.9086,-3.9193,-3.985,-3.9662,-3.9086,-3.9159,-3.8767,-3.827,-3.8365,-3.8421,-3.8421,-3.8421,-3.8117,-3.7822,-3.7921,-3.8414,-3.8908,-3.9016,-3.8455,-3.8014,-3.8491,-3.743,-3.6603,-3.7268,-3.7361,-3.7488,-3.7842,-3.8261,-3.8682,-3.8943,-3.9411,-3.9754,-3.99,-4.0129,-4.033,-4.0458,-4.066,-4.0805,-4.0805,-4.0823,-4.0812,-4.0754,-4.0776,-4.0853,-4.1001,-4.0985,-4.0985,-4.0985,-4.0873,-4.0776,-4.0696,-4.0696,-4.0639,-4.0489,-4.0489,-4.0489,-0.3165,-0.4432,-0.5633,-0.4979,-0.5356,-0.6198,0.0,0.0,0.0,0.0,0.0,0.0,0.0,0.0,0.0,0.0,0.0,0.0,0.0,0.0,0.0,0.0,0.0,-3.6266,-3.6266,-3.6764,-3.7076,-3.7076,-3.7345,-3.7745,-3.8196,-3.8534,-3.9222,-4.0379,-4.0528,-4.0784,-4.1162,-4.0838,-4.0669,-4.0669,-4.1235,-4.1578,-4.1664,-4.1595,-4.1552,-4.1508,0.0,-4.078,-4.0733,-4.0286,-4.002,-3.9901,-3.9901,-3.985,-3.9731,-3.985,-3.9901,-3.9952,-4.007,-4.002,-3.9986,-4.0446,-4.0508,-4.0521,-4.1018,-4.1198,-4.1198,-4.1198,-3.9564,-3.7921,-3.858,-3.8799,-3.9086,-3.9782,-3.8905,-3.8014,-3.8491,-3.743,-3.6751,-3.7983,-3.8227,-3.8456,-3.917,-3.9376,-3.9538,-3.9844,-4.0036,-4.0232,-4.0513,-4.0649,-4.0723,-4.0752,-4.0781,-4.0809,-4.0809,-4.09,-4.0947,-4.0947,-4.0862,-4.0865,-4.0981,-4.0985,-4.0985,-4.0985,-4.0872,-4.0776,-4.0696,-4.0696,-4.0639,-4.0489,-4.0489,-4.0489,-0.2916,-0.3854,-0.4866,-0.4718,-0.5745,-0.7124,0.0,0.0,0.0,0.0,0.0,0.0,0.0,0.0,0.0,0.0,0.0,0.0,0.0,0.0,0.0,0.0,0.0,-3.6907,-3.7013,-3.7541,-3.7917,-3.8036,-3.8453,-3.8776,-3.9032,-3.9177,-3.9513,-4.0123,-4.0141,-4.022,-4.0326,-4.0577,-4.0677,-4.0653,-4.116,-4.1493,-4.1582,-4.1724,-4.181,-4.1793,-4.149,-4.1402,-4.1358,-4.1105,-4.0573,-3.9985,-4.0246,-3.9767,-3.8887,-3.9315,-3.9885,-4.0528,-4.0528,-4.0767,-4.1076,-4.1313,-4.1402,-4.1446,-4.1725,-4.181,-4.181,-4.181,-4.0909,-3.9949,-3.9849,-4.0146,-4.0439,-4.0374,-3.9526,-3.8953,-3.9587,-3.8544,-3.7799,-3.8832,-3.9059,-3.9214,-3.9775,-3.988,-3.9982,-4.0363,-4.0457,-4.0571,-4.0835,-4.088,-4.0946,-4.1007,-4.1023,-4.1025,-4.1025,-4.107,-4.1113,-4.1108,-4.1052,-4.1037,-4.1103,-4.1045,-4.1005,-4.1001,-4.0831,-4.0735,-4.0696,-4.0639,-4.0562,-4.0489,-4.0489,-4.0489,-0.2764,-0.3621,-0.4599,-0.5172,0.0,0.0,-0.9164,0.0,0.0,0.0,0.0,0.0,0.0,0.0,0.0,0.0,0.0,0.0,0.0,0.0,0.0,-3.4248,-3.6022,-3.7363,-3.7787,-3.8382,-3.8822,-3.9037,-3.9519,-3.9792,-3.9792,-3.9848,-3.9878,-3.9878,-3.9878,-3.9878,-3.9878,-4.0482,-4.0773,-4.0714,-4.1126,-4.1391,-4.1537,-4.1758,-4.1967,-4.2147,-4.2013,-4.202,-4.2114,-4.1991,-4.1279,-4.0292,-4.0724,-4.0012,-3.8826,-3.9373,-4.0231,-4.1115,-4.1198,-4.1533,-4.1973,-4.2181,-4.2243,-4.2243,-4.2418,-4.2474,-4.2474,-4.2474,-4.2474,-4.2225,-4.1157,-4.1323,-4.1654,-4.1121,-4.0411,-4.0068,-4.0683,-3.9768,-3.898,-3.9618,-3.9731,-3.9819,-4.0139,-4.0195,-4.0307,-4.0646,-4.0714,-4.08,-4.0981,-4.1029,-4.1093,-4.1194,-4.1175,-4.1151,-4.1156,-4.1149,-4.1166,-4.119,-4.1191,-4.1191,-4.1191,-4.1074,-4.1,-4.0994,-4.0803,-4.0699,-4.0696,-4.0581,-4.0489,-4.0489,-4.0489,-4.0489,-0.3015,-0.4117,-0.5441,-0.6276,0.0,0.0,-0.8889,0.0,0.0,0.0,0.0,0.0,0.0,0.0,0.0,0.0,0.0,0.0,0.0,0.0,-3.3465,-3.4606,-3.6208,-3.7525,-3.8364,-3.9213,-3.9733,-3.9821,-4.0132,-4.0344,-4.0344,-4.0577,-4.0707,-4.0707,-4.0707,-4.0707,-4.0707,-4.0707,-4.0731,-4.0798,-4.1581,-4.1931,-4.195,-4.198,-4.2431,-4.3171,-4.26,-4.2641,-4.3047,-4.2502,-4.2011,-4.1647,-4.169,-4.1647,-4.1499,-4.156,-4.1664,-4.1775,-4.2095,-4.2237,-4.241,-4.3273,-4.3547,-4.3676,-4.4243,-4.4409,-4.4409,-4.4409,-4.4409,-4.3975,-4.2199,-4.175,-4.1866,-4.2139,-4.1627,-4.1106,-4.1156,-4.0542,-3.9975,-4.0036,-4.0042,-4.0158,-4.0422,-4.0473,-4.0511,-4.0677,-4.0754,-4.0829,-4.0973,-4.1103,-4.1189,-4.1196,-4.1094,-4.1004,-4.1015,-4.1012,-4.1073,-4.1191,-4.1191,-4.1191,-4.1191,-4.1074,-4.0996,-4.0992,-4.0789,-4.0706,-4.0696,-4.0581,-4.0489,-4.0489,-4.0489,-4.0489,-0.309,-0.4159,-0.5426,-0.6564,0.0,0.0,0.0,0.0,0.0,0.0,0.0,0.0,0.0,0.0,0.0,0.0,0.0,0.0,0.0,-3.3135,-3.429,-3.4751,-3.6213,-3.7411,-3.7951,-3.882,-3.9447,-3.9706,-4.0274,-4.0654,-4.0654,-4.0742,-4.0798,-4.0798,-4.0798,-4.0798,-4.0798,-4.0779,-4.0764,-4.0826,-4.1314,-4.1457,-4.1267,-4.1776,-4.2191,-4.2511,-4.2814,-4.3081,-4.3295,-4.3606,-4.3444,-4.2937,-4.2577,-4.2668,-4.2937,-4.2577,-4.2668,-4.3006,-4.3122,-4.3439,-4.3781,-4.413,-4.4261,-4.4307,-4.4535,-4.458,-4.458,-4.458,-4.458,-4.4436,-4.3714,-4.3536,-4.3569,-4.372,-4.31,-4.2408,-4.207,-4.1396,-4.0753,-4.0401,-4.0356,-4.0372,-4.0489,-4.0581,-4.0658,-4.0754,-4.0853,-4.0963,-4.1119,-4.1096,-4.1067,-4.1089,-4.0947,-4.0872,-4.0878,-4.0883,-4.0925,-4.1074,-4.1152,-4.1191,-4.1191,-4.1152,-4.1113,-4.1113,-4.098,-4.0879,-4.0889,-4.0716,-4.062,-4.062,-4.0543,-4.0489,-0.3621,-0.4695,-0.6015,0.0,0.0,0.0,0.0,0.0,0.0,0.0,0.0,0.0,0.0,0.0,0.0,0.0,0.0,0.0,-3.1917,-3.3399,-3.455,-3.4979,-3.6186,-3.7181,-3.768,-3.8427,-3.911,-3.9655,-4.0198,-4.0647,-4.09,-4.092,-4.0918,-4.0858,-4.0902,-4.09,-4.0861,-4.087,-4.0858,-4.087,-4.1039,-4.0997,-4.0772,-4.1304,-4.1684,-4.1987,-4.2557,-4.2909,-4.3118,-4.3994,-4.4188,-4.3941,-4.3571,-4.3658,-4.3983,-4.3584,-4.3725,-4.4092,-4.4204,-4.4505,-4.4884,-4.4986,-4.4995,-4.4995,-4.4995,-4.4995,-4.4995,-4.4995,-4.4995,-4.4995,-4.4995,-4.4814,-4.465,-4.4732,-4.4302,-4.3634,-4.2869,-4.2259,-4.1589,-4.0684,-4.0543,-4.0562,-4.0562,-4.0658,-4.0754,-4.085,-4.0927,-4.1046,-4.1184,-4.1078,-4.0966,-4.0908,-4.0812,-4.0773,-4.0773,-4.0764,-4.0818,-4.093,-4.1026,-4.1105,-4.1191,-4.1191,-4.1191,-4.1191,-4.1074,-4.1003,-4.1003,-4.0822,-4.0717,-4.0696,-4.062,-4.0543,-0.4631,-0.5801,0.0,0.0,0.0,0.0,0.0,0.0,0.0,0.0,0.0,0.0,0.0,0.0,0.0,-2.7217,-2.9871,-3.1951,-3.2451,-3.3128,-3.4094,-3.5349,-3.6071,-3.6821,-3.7702,-3.8155,-3.8786,-3.9803,-3.9883,-4.0273,-4.1133,-4.1191,-4.1135,-4.0997,-4.1134,-4.1133,-4.0996,-4.1008,-4.0994,-4.1001,-4.0796,-4.0706,-4.0696,-4.0562,-4.0969,-4.1797,-4.1797,-4.2064,-4.2559,-4.3435,-4.4117,-4.4617,-4.4684,-4.4711,-4.4721,-4.4855,-4.4915,-4.4952,-4.5299,-4.5394,-4.5458,-4.5784,-4.5892,-4.5892,-4.5892,-4.5892,-4.5892,-4.5892,-4.5892,-4.5892,-4.5892,-4.5252,-4.4682,-4.503,-4.5096,-4.4743,-4.338,-4.3085,-4.2566,-4.0835,-4.062,-4.0696,-4.0696,-4.0754,-4.085,-4.0966,-4.1001,-4.1054,-4.1177,-4.1078,-4.0908,-4.0716,-4.0696,-4.0696,-4.0696,-4.0696,-4.0735,-4.0793,-4.0798,-4.092,-4.1191,-4.1191,-4.1191,-4.1191,-4.1074,-4.0996,-4.0996,-4.0866,-4.078,-4.0712,-4.0696,-4.0639,-0.6141,-0.7398,0.0,0.0,0.0,0.0,0.0,0.0,0.0,0.0,0.0,0.0,0.0,0.0,0.0,-2.7274,-2.9697,-3.1749,-3.2413,-3.3578,-3.452,-3.4886,-3.5473,-3.5982,-3.629,-3.7073,-3.7705,-3.8047,-3.8633,-3.9375,-4.0234,-4.0293,-4.0506,-4.0977,-4.1042,-4.103,-4.0996,-4.1009,-4.1049,-4.1135,-4.0982,-4.0842,-4.0696,-4.0562,-4.0642,-4.0912,-4.1527,-4.1882,-4.2138,-4.3654,-4.4403,-4.4595,-4.5281,-4.5533,-4.5544,-4.5587,-4.5601,-4.562,-4.5717,-4.5756,-4.5769,-4.5871,-4.5894,-4.5894,-4.5894,-4.5894,-4.5894,-4.5894,-4.5894,-4.5894,-4.5894,-4.5718,-4.5525,-4.5569,-4.5131,-4.44,-4.3319,-4.2624,-4.1873,-4.085,-4.0677,-4.0709,-4.0759,-4.0868,-4.0947,-4.0985,-4.1092,-4.1119,-4.1078,-4.0942,-4.0812,-4.0716,-4.062,-4.0562,-4.0562,-4.0562,-4.062,-4.0716,-4.0723,-4.0839,-4.1054,-4.1055,-4.1094,-4.1191,-4.1152,-4.1133,-4.1133,-4.1009,-4.0932,-4.092,-4.0776,-4.0677,-0.8513,0.0,0.0,0.0,0.0,0.0,0.0,0.0,0.0,0.0,0.0,0.0,0.0,0.0,0.0,-2.8038,-3.006,-3.1771,-3.2413,-3.3524,-3.4319,-3.4467,-3.4962,-3.5345,-3.5495,-3.607,-3.666,-3.7148,-3.7712,-3.8418,-3.9258,-3.9687,-4.0076,-4.047,-4.0874,-4.1054,-4.0994,-4.1043,-4.1113,-4.1191,-4.1066,-4.0937,-4.0812,-4.0658,-4.0562,-4.0527,-4.1104,-4.1582,-4.2005,-4.3099,-4.3944,-4.4645,-4.523,-4.5673,-4.598,-4.604,-4.6069,-4.6069,-4.6069,-4.6069,-4.6069,-4.6069,-4.6069,-4.6069,-4.6069,-4.6069,-4.5991,-4.564,-4.5533,-4.5471,-4.5112,-4.5034,-4.5075,-4.5299,-4.4967,-4.422,-4.2953,-4.228,-4.1684,-4.0889,-4.0773,-4.0829,-4.0881,-4.0995,-4.1082,-4.1082,-4.1152,-4.1152,-4.1016,-4.0939,-4.0826,-4.0708,-4.0639,-4.0562,-4.0489,-4.0489,-4.0543,-4.062,-4.062,-4.07,-4.087,-4.091,-4.0984,-4.1113,-4.1113,-4.1152,-4.1191,-4.1113,-4.1055,-4.0996,-4.087,-4.0792,0.0,0.0,0.0,0.0,0.0,0.0,0.0,0.0,0.0,0.0,0.0,0.0,0.0,0.0,-2.8511,-2.9088,-3.0742,-3.2057,-3.2451,-3.3158,-3.3781,-3.4152,-3.4561,-3.4882,-3.5139,-3.5232,-3.5721,-3.6779,-3.6976,-3.742,-3.8242,-3.916,-3.9629,-3.957,-4.0548,-4.1003,-4.087,-4.1078,-4.1189,-4.1191,-4.1074,-4.1017,-4.0985,-4.0793,-4.0639,-4.0543,-4.065,-4.1181,-4.1986,-4.2071,-4.3047,-4.4501,-4.465,-4.524,-4.6003,-4.6136,-4.623,-4.6308,-4.6308,-4.6308,-4.6289,-4.6211,-4.623,-4.6289,-4.6211,-4.623,-4.6113,-4.5254,-4.5004,-4.4795,-4.3931,-4.3697,-4.3833,-4.4367,-4.449,-4.4033,-4.2444,-4.204,-4.1751,-4.0966,-4.0908,-4.0997,-4.1031,-4.111,-4.1191,-4.1191,-4.1191,-4.1152,-4.1035,-4.1016,-4.0922,-4.0752,-4.0723,-4.0658,-4.0543,-4.0508,-4.0508,-4.0508,-4.0508,-4.0562,-4.0677,-4.0738,-4.0857,-4.097,-4.0996,-4.1055,-4.1172,-4.1191,-4.1133,-4.1016,-4.1016,-4.093,0.0,0.0,0.0,0.0,0.0,0.0,0.0,0.0,0.0,0.0,0.0,0.0,0.0,-2.7378,-2.8987,-2.8495,-3.0942,-3.2809,-3.255,-3.3405,-3.411,-3.42,-3.451,-3.4772,-3.4881,-3.5082,-3.5341,-3.563,-3.5894,-3.6433,-3.7402,-3.7656,-3.8066,-3.8652,-3.9557,-4.0018,-3.9988,-4.0681,-4.1104,-4.1191,-4.1172,-4.1095,-4.0985,-4.085,-4.0754,-4.0731,-4.0765,-4.0878,-4.1141,-4.1923,-4.2483,-4.2885,-4.363,-4.4477,-4.5246,-4.5272,-4.5703,-4.6308,-4.6308,-4.6308,-4.6191,-4.5508,-4.5742,-4.6172,-4.5488,-4.5762,-4.6113,-4.5254,-4.4998,-4.4796,-4.3937,-4.3702,-4.3566,-4.3019,-4.2851,-4.2676,-4.2199,-4.1558,-4.107,-4.0969,-4.0966,-4.1016,-4.1135,-4.1185,-4.1191,-4.1191,-4.1191,-4.1191,-4.1152,-4.1074,-4.0975,-4.0932,-4.0848,-4.0773,-4.0735,-4.0696,-4.0658,-4.0658,-4.0562,-4.0508,-4.0543,-4.0656,-4.0758,-4.0834,-4.0953,-4.1016,-4.1035,-4.1152,-4.1191,-4.1152,-4.1055,-4.0973,0.0,0.0,0.0,0.0,0.0,0.0,0.0,0.0,0.0,0.0,0.0,0.0,-2.6233,-2.7759,-2.9108,-2.9608,-3.1157,-3.2411,-3.2787,-3.3364,-3.3776,-3.3993,-3.4141,-3.434,-3.4498,-3.4775,-3.504,-3.5193,-3.547,-3.589,-3.645,-3.6936,-3.7402,-3.7851,-3.8711,-3.9376,-3.9793,-4.0241,-4.0725,-4.1191,-4.1191,-4.1153,-4.1096,-4.0895,-4.0849,-4.0904,-4.0894,-4.0943,-4.1027,-4.1558,-4.2007,-4.24,-4.29,-4.3613,-4.4375,-4.4375,-4.4668,-4.5058,-4.5058,-4.5058,-4.498,-4.4531,-4.466,-4.4908,-4.4479,-4.459,-4.4731,-4.3853,-4.3619,-4.3434,-4.2616,-4.2402,-4.2281,-4.1838,-4.2057,-4.2225,-4.1777,-4.13,-4.1013,-4.1081,-4.1104,-4.113,-4.1189,-4.1191,-4.1191,-4.1191,-4.1191,-4.1191,-4.1191,-4.1133,-4.1074,-4.1016,-4.0935,-4.0858,-4.0812,-4.0739,-4.0698,-4.0696,-4.0581,-4.0489,-4.0489,-4.0581,-4.0658,-4.0754,-4.0829,-4.0877,-4.0902,-4.098,-4.1038,-4.1094,-4.1035,-4.1035,0.0,0.0,0.0,0.0,0.0,0.0,0.0,0.0,0.0,0.0,0.0,0.0,-2.7298,-2.8029,-2.9039,-3.0539,-3.1034,-3.1604,-3.2649,-3.2846,-3.3073,-3.3542,-3.364,-3.3813,-3.4176,-3.4551,-3.487,-3.5088,-3.5392,-3.5622,-3.5699,-3.6487,-3.697,-3.707,-3.793,-3.8711,-3.9434,-3.9602,-4.0098,-4.0938,-4.1092,-4.1172,-4.1191,-4.0964,-4.0935,-4.1029,-4.1029,-4.1112,-4.1191,-4.1191,-4.1582,-4.2187,-4.2187,-4.2715,-4.3476,-4.3476,-4.3552,-4.3674,-4.3674,-4.3661,-4.3628,-4.3471,-4.3486,-4.3525,-4.3389,-4.3376,-4.3218,-4.2354,-4.2092,-4.1921,-4.1156,-4.0967,-4.0964,-4.097,-4.1563,-4.1941,-4.1308,-4.1172,-4.1191,-4.1191,-4.1191,-4.1191,-4.1191,-4.1191,-4.1191,-4.1191,-4.1191,-4.1191,-4.1191,-4.1191,-4.1152,-4.1055,-4.1035,-4.0988,-4.0883,-4.0801,-4.0751,-4.0712,-4.06,-4.0508,-4.0489,-4.0489,-4.0562,-4.0658,-4.0696,-4.0725,-4.0781,-4.08,-4.085,-4.0977,-4.0969,-4.1011,0.0,0.0,0.0,0.0,0.0,0.0,0.0,0.0,0.0,0.0,0.0,-2.6931,-2.6843,-2.8025,-2.8951,-2.8804,-2.9993,-3.098,-3.1117,-3.141,-3.192,-3.2687,-3.2958,-3.339,-3.4144,-3.4696,-3.507,-3.5105,-3.5354,-3.5584,-3.5699,-3.5832,-3.5986,-3.6172,-3.7012,-3.7539,-3.7656,-3.8393,-3.9154,-3.9901,-4.0676,-4.1094,-4.1191,-4.1151,-4.1167,-4.116,-4.116,-4.1187,-4.1191,-4.1191,-4.1269,-4.1367,-4.1367,-4.1855,-4.2578,-4.2578,-4.3005,-4.3614,-4.3614,-4.3538,-4.3325,-4.2558,-4.2821,-4.3287,-4.2541,-4.283,-4.3221,-4.2358,-4.2092,-4.1895,-4.1054,-4.0829,-4.0824,-4.0827,-4.0931,-4.102,-4.1025,-4.1113,-4.1191,-4.1191,-4.1191,-4.1191,-4.1191,-4.1191,-4.1191,-4.1191,-4.1191,-4.1191,-4.1191,-4.1191,-4.1191,-4.1172,-4.1172,-4.1172,-4.115,-4.1032,-4.09,-4.0781,-4.0716,-4.062,-4.0489,-4.0489,-4.0508,-4.0543,-4.0639,-4.0708,-4.0714,-4.0771,-4.0819,-4.0835,-4.0837,-4.0838,-1.1489,-1.4883,0.0,0.0,0.0,0.0,0.0,0.0,0.0,0.0,-2.6091,-2.6671,-2.6965,-2.7625,-2.831,-2.8971,-2.9689,-3.0396,-3.1055,-3.1415,-3.176,-3.2107,-3.2791,-3.3358,-3.3714,-3.4567,-3.5105,-3.5105,-3.5373,-3.5603,-3.5699,-3.5763,-3.5877,-3.5996,-3.6367,-3.6816,-3.7305,-3.7678,-3.8511,-3.9815,-4.0209,-4.0664,-4.1191,-4.1191,-4.1191,-4.1191,-4.1191,-4.1191,-4.1191,-4.1191,-4.1163,-4.1099,-4.1099,-4.1266,-4.1495,-4.1495,-4.1719,-4.2024,-4.2035,-4.1986,-4.1872,-4.1505,-4.1601,-4.1809,-4.1427,-4.152,-4.1709,-4.1309,-4.1212,-4.1135,-4.0812,-4.0737,-4.0738,-4.0738,-4.0775,-4.094,-4.1451,-4.13,-4.1113,-4.1191,-4.1191,-4.1191,-4.1191,-4.1191,-4.1191,-4.1191,-4.115,-4.1099,-4.1099,-4.1013,-4.0983,-4.0983,-4.1047,-4.1094,-4.1094,-4.1035,-4.1143,-4.1524,-4.1012,-4.087,-4.12,-4.0758,-4.0489,-4.0489,-4.0562,-4.06,-4.06,-4.062,-4.0677,-4.0735,-4.0752,-4.0757,-1.2015,-1.4953,-1.7219,0.0,0.0,0.0,0.0,0.0,0.0,0.0,-2.5161,-2.59,-2.6835,-2.7165,-2.7704,-2.8963,-2.9295,-2.9744,-3.0741,-3.1114,-3.1358,-3.1576,-3.2351,-3.2959,-3.3185,-3.4217,-3.4882,-3.4901,-3.5326,-3.5641,-3.5757,-3.5853,-3.5931,-3.5996,-3.6001,-3.6293,-3.6937,-3.7113,-3.7858,-3.9168,-3.9376,-3.9934,-4.082,-4.082,-4.0957,-4.1191,-4.1191,-4.1191,-4.1191,-4.115,-4.1088,-4.0985,-4.0947,-4.0887,-4.0811,-4.0811,-4.0791,-4.0761,-4.0781,-4.0754,-4.0716,-4.0716,-4.0696,-4.0658,-4.0658,-4.0581,-4.0489,-4.0489,-4.0489,-4.0508,-4.062,-4.0812,-4.0985,-4.0985,-4.1197,-4.1455,-4.1693,-4.1538,-4.1308,-4.1211,-4.1191,-4.1191,-4.1191,-4.1179,-4.1152,-4.1152,-4.1043,-4.0949,-4.0943,-4.1054,-4.1131,-4.1131,-4.1416,-4.1605,-4.1607,-4.1609,-4.1822,-4.2354,-4.1716,-4.1566,-4.2104,-4.1296,-4.0835,-4.0835,-4.0604,-4.0489,-4.0489,-4.0489,-4.0562,-4.0658,-4.0658,-4.0677,-1.1458,-1.2664,0.0,0.0,0.0,0.0,0.0,0.0,0.0,0.0,-2.3693,-2.4469,-2.5969,-2.6818,-2.7457,-2.7904,-2.8471,-2.8993,-2.9444,-2.9683,-3.0133,-3.0953,-3.1255,-3.1724,-3.2574,-3.3627,-3.4263,-3.4339,-3.5122,-3.568,-3.5872,-3.5892,-3.5931,-3.5996,-3.6004,-3.5997,-3.5978,-3.66,-3.6988,-3.7155,-3.7916,-3.8805,-3.9785,-3.9785,-4.0293,-4.1191,-4.1191,-4.1191,-4.119,-4.1061,-4.1012,-4.0985,-4.085,-4.0808,-4.0804,-4.0804,-4.0766,-4.0708,-4.0696,-4.062,-4.0508,-4.0508,-4.0508,-4.0508,-4.0508,-4.0508,-4.0489,-4.0489,-4.0489,-4.0489,-4.0508,-4.1123,-4.1739,-4.1739,-4.2374,-4.2626,-4.1322,-4.1679,-4.2031,-4.1328,-4.1191,-4.1191,-4.1191,-4.1096,-4.1007,-4.1007,-4.0904,-4.082,-4.08,-4.1543,-4.2027,-4.2027,-4.2787,-4.3278,-4.3275,-4.3272,-4.3246,-4.3153,-4.3104,-4.3049,-4.3028,-4.22,-4.1739,-4.1739,-4.0912,-4.0489,-4.0489,-4.0489,-4.0489,-4.0508,-4.0508,-4.0508,-1.128,-1.2455,0.0,0.0,0.0,0.0,0.0,0.0,-2.1249,-2.2227,-2.3045,-2.3916,-2.4981,-2.6232,-2.7415,-2.8316,-2.8782,-2.9163,-2.9586,-2.9866,-3.0156,-3.0508,-3.122,-3.1815,-3.2127,-3.2929,-3.3699,-3.4378,-3.4726,-3.5192,-3.5848,-3.5943,-3.5981,-3.5996,-3.5997,-3.5982,-3.5892,-3.6045,-3.6421,-3.7011,-3.7293,-3.7904,-3.8799,-3.8846,-3.9375,-4.0234,-4.024,-4.0548,-4.1062,-4.1026,-4.0908,-4.0793,-4.0754,-4.0677,-4.062,-4.062,-4.06,-4.0581,-4.0581,-4.0543,-4.0489,-4.0489,-4.0489,-4.0489,-4.0489,-4.0489,-4.0489,-4.0489,-4.0489,-4.0489,-4.0489,-4.1143,-4.195,-4.2508,-4.3278,-4.3628,-4.2726,-4.2846,-4.2891,-4.207,-4.235,-4.2563,-4.1989,-4.2272,-4.2543,-4.2537,-4.244,-4.2333,-4.2332,-4.2585,-4.2742,-4.2742,-4.3066,-4.3269,-4.3269,-4.3347,-4.3578,-4.4011,-4.3511,-4.3395,-4.3855,-4.3066,-4.2624,-4.2624,-4.1777,-4.1066,-4.0489,-4.0489,-4.0489,-4.0489,-4.0489,-4.0489,-1.0831,0.0,0.0,0.0,0.0,0.0,0.0,0.0,-2.0366,-2.136,-2.2486,-2.3547,-2.4361,-2.5779,-2.7206,-2.8319,-2.8798,-2.9232,-2.985,-3.017,-3.0356,-3.043,-3.1043,-3.1463,-3.1503,-3.2183,-3.2913,-3.3603,-3.3933,-3.438,-3.502,-3.5376,-3.5703,-3.5996,-3.5969,-3.5938,-3.5905,-3.5738,-3.5963,-3.6535,-3.6516,-3.6972,-3.7828,-3.7875,-3.8378,-3.9259,-3.9549,-4.0163,-4.0985,-4.0927,-4.0812,-4.0696,-4.0658,-4.0581,-4.0489,-4.0489,-4.0489,-4.0489,-4.0489,-4.0489,-4.0489,-4.0489,-4.0489,-4.0489,-4.0489,-4.0489,-4.0489,-4.0489,-4.0489,-4.0566,-4.0854,-4.1777,-4.2854,-4.372,-4.4355,-4.4643,-4.4295,-4.4079,-4.3727,-4.2902,-4.3194,-4.3401,-4.2769,-4.3038,-4.3324,-4.3346,-4.3239,-4.3165,-4.3165,-4.3355,-4.3508,-4.3508,-4.3797,-4.4008,-4.4008,-4.4107,-4.4339,-4.4837,-4.4318,-4.4239,-4.472,-4.3932,-4.3508,-4.3508,-4.2681,-4.195,-4.1373,-4.0777,-4.0489,-4.0489,-4.0489,-4.0489,0.0,0.0,0.0,0.0,0.0,0.0,0.0,0.0,-1.8804,-2.0356,-2.1908,-2.3269,-2.4094,-2.545,-2.6745,-2.7681,-2.8414,-2.9178,-3.0072,-3.0394,-3.0591,-3.0678,-3.0657,-3.0622,-3.0702,-3.1406,-3.1887,-3.1989,-3.2788,-3.3297,-3.3398,-3.4238,-3.5098,-3.5937,-3.5918,-3.5903,-3.5894,-3.5694,-3.5597,-3.5603,-3.5545,-3.5982,-3.6862,-3.6862,-3.7378,-3.8305,-3.9159,-4.0059,-4.0927,-4.0773,-4.0696,-4.0677,-4.0562,-4.0489,-4.0489,-4.0489,-4.0489,-4.0489,-4.0489,-4.0489,-4.0489,-4.0489,-4.0489,-4.0489,-4.0489,-4.0489,-4.0489,-4.0489,-4.0489,-4.07,-4.1566,-4.3008,-4.4451,-4.5336,-4.5547,-4.5605,-4.5776,-4.524,-4.453,-4.3784,-4.3649,-4.363,-4.3476,-4.334,-4.3261,-4.3261,-4.322,-4.3162,-4.3162,-4.3855,-4.4335,-4.4335,-4.5086,-4.5586,-4.5586,-4.5586,-4.5586,-4.5586,-4.5586,-4.5586,-4.5586,-4.4778,-4.4335,-4.4335,-4.3547,-4.3143,-4.3124,-4.1393,-4.0527,-4.0527,-4.0527,-4.0546,-1.0418,0.0,0.0,0.0,0.0,0.0,0.0,0.0,0.0,-1.9715,-2.0552,-2.1387,-2.2871,-2.4072,-2.5135,-2.6014,-2.7377,-2.8632,-2.9558,-2.9767,-3.0062,-3.0751,-3.0821,-3.0816,-3.084,-3.0953,-3.1339,0.0,-3.2281,-3.2665,-3.3359,-3.4238,-3.4805,-3.5059,-3.5605,-3.5894,-3.5896,-3.5755,-3.5678,-3.568,-3.5603,-3.5718,-3.5963,-3.5963,-3.6453,-3.7305,-3.7539,-3.8491,-3.9903,-4.0466,-4.0639,-4.0562,-4.0508,-4.0489,-4.0489,-4.0489,-4.0489,-4.0489,-4.0489,-4.0489,-4.0489,-4.0489,-4.0489,-4.0489,-4.0489,-4.0489,-4.0489,-4.0489,-4.0489,-4.07,-4.1566,-4.2143,-4.2854,-4.4316,-4.4737,-4.5007,-4.5719,-4.5796,-4.5451,-4.4568,-4.4876,-4.503,-4.432,-4.4607,-4.4932,-4.4932,-4.4913,-4.4913,-4.4913,-4.5086,-4.524,-4.524,-4.5451,-4.5586,-4.5586,-4.5586,-4.5586,-4.5586,-4.5586,-4.5586,-4.5586,-4.5355,-4.524,-4.524,-4.4393,-4.397,-4.3951,-4.2277,-4.145,-4.145,-4.145,-4.1777,-1.1571,0.0,0.0,0.0,0.0,0.0,-1.6572,-1.7153,0.0,0.0,-2.045,-2.1101,-2.2133,-2.3112,-2.4033,-2.4856,-2.587,-2.7124,-2.8718,-2.8992,-2.9338,-3.0253,-3.0351,-3.0508,-3.0859,-3.082,-3.1023,-3.1618,-3.1579,-3.1934,-3.2851,-3.3379,-3.3809,-3.4141,-3.4961,-3.5391,-3.5391,-3.5645,-3.5777,-3.5788,-3.5689,-3.5628,-3.5603,-3.5603,-3.5853,-3.6329,-3.668,-3.7373,-3.8368,-3.9619,-4.0273,-4.0489,-4.0489,-4.0489,-4.0489,-4.0489,-4.0489,-4.0489,-4.0489,-4.0489,-4.0489,-4.0489,-4.0489,-4.0489,-4.0489,-4.0489,-4.0489,-4.0489,-4.0758,-4.1162,-4.1681,-4.2066,-4.2585,-4.3566,-4.416,-4.4672,-4.5269,-4.5719,-4.5847,-4.5307,-4.5584,-4.5699,-4.5068,-4.5316,-4.5586,-4.5586,-4.5586,-4.5586,-4.5586,-4.5586,-4.5586,-4.5586,-4.5586,-4.5586,-4.5586,-4.5586,-4.5586,-4.5586,-4.5586,-4.5586,-4.5586,-4.5586,-4.5586,-4.5586,-4.5086,-4.4662,-4.4297,-4.2989,-4.2335,-4.2335,-4.2335,-4.2604,-1.3223,-1.3614,0.0,0.0,-1.5478,0.0,-1.8788,-1.8553,-1.8044,0.0,-2.0614,-2.1189,-2.1344,-2.2169,-2.3053,-2.3765,-2.4101,-2.5149,-2.7719,-2.8111,-2.8476,-2.9355,-2.9453,-2.9766,-3.0547,-3.0703,-3.0762,-3.0762,-3.0859,-3.123,-3.2012,-3.2148,-3.2539,-3.3242,-3.4101,-3.4609,-3.4707,-3.541,-3.582,-3.5918,-3.5778,-3.5668,-3.5618,-3.5597,-3.5565,-3.5532,-3.6257,-3.6608,-3.6786,-3.8324,-3.9512,-4.0373,-4.0469,-4.0489,-4.0489,-4.0489,-4.0489,-4.0489,-4.0489,-4.0489,-4.0489,-4.0489,-4.0489,-4.0489,-4.0489,-4.0489,-4.0489,-4.0489,-4.1066,-4.1662,-4.1662,-4.2239,-4.2835,-4.2931,-4.3602,-4.4311,-4.4598,-4.5254,-4.5785,-4.588,-4.5891,-4.5834,-4.5624,-4.5586,-4.5586,-4.5586,-4.5586,-4.5586,-4.5586,-4.5586,-4.5586,-4.5586,-4.5586,-4.5586,-4.5586,-4.5586,-4.5586,-4.5586,-4.5586,-4.5586,-4.5586,-4.5586,-4.5586,-4.5586,-4.5586,-4.522,-4.4432,-4.3624,-4.3239,-4.3239,-4.3239,-4.3297,-1.4417,-1.503,-1.5793,-1.4971,0.0,0.0,-1.5536,-1.6094,-1.6926,0.0,-1.7568,-1.7883,-1.8606,-2.0039,-2.1146,-2.1309,-2.2459,-2.4251,-2.6863,-2.7243,-2.7578,-2.8457,-2.8555,-2.8613,-2.8789,-2.9434,-2.9844,-2.9844,-3.0508,-3.0976,-3.1133,-3.1816,-3.2266,-3.2422,-3.3223,-3.3984,-3.4687,-3.4863,-3.5293,-3.5976,-3.5797,-3.5682,-3.5682,-3.5577,-3.5526,-3.5526,-3.568,-3.5978,-3.6394,-3.6755,-3.7926,-3.9604,-4.0239,-4.0489,-4.0489,-4.0489,-4.0489,-4.0489,-4.0489,-4.0489,-4.0489,-4.0489,-4.0489,-4.0489,-4.0489,-4.0489,-4.0489,-4.0489,-4.0623,-4.0739,-4.0739,-4.0873,-4.1181,-4.1893,-4.2274,-4.2864,-4.4238,-4.4752,-4.5107,-4.5688,-4.5808,-4.5776,-4.5624,-4.5586,-4.5586,-4.5586,-4.5586,-4.5586,-4.5586,-4.5586,-4.5586,-4.5586,-4.5586,-4.5586,-4.5586,-4.5586,-4.5586,-4.5586,-4.5586,-4.5586,-4.5586,-4.5586,-4.5586,-4.5586,-4.5586,-4.5509,-4.5336,-4.447,-4.4066,-4.4066,-4.4066,-4.4432,-1.6448,-1.6644,-1.7136,-1.6911,0.0,0.0,0.0,-1.7201,-1.7567,-1.887,-1.8134,-1.7643,-1.8961,-1.9575,-2.0029,-2.0437,-2.1565,-2.3012,-2.4752,-2.5007,-2.5336,-2.6195,-2.6661,-2.7067,-2.7518,-2.8376,-2.9101,-2.9551,-3.0,-3.0449,-3.0879,-3.1309,-3.1513,-3.1454,-3.2331,-3.2988,-3.3359,-3.4258,-3.4906,-3.5307,-3.563,-3.5746,-3.5649,-3.5586,-3.5545,-3.5493,-3.5369,-3.5452,-3.5734,-3.6007,-3.6691,-3.7734,-3.8956,-3.97,-4.0043,-4.0043,-4.0176,-4.0304,-4.0304,-4.0389,-4.0489,-4.0489,-4.0489,-4.0489,-4.0489,-4.0489,-4.0489,-4.0489,-4.0489,-4.0489,-4.0489,-4.0489,-4.0604,-4.1046,-4.1597,-4.2337,-4.3578,-4.4247,-4.4833,-4.5637,-4.5757,-4.568,-4.5605,-4.5586,-4.5586,-4.5586,-4.5586,-4.5586,-4.5586,-4.5586,-4.5586,-4.5586,-4.5586,-4.5586,-4.5586,-4.5586,-4.5586,-4.5586,-4.5586,-4.5586,-4.5586,-4.5586,-4.5586,-4.5586,-4.5586,-4.5586,-4.5586,-4.5163,-4.4951,-4.4951,-4.4951,-4.5182,-1.8907,-1.8732,-1.9074,0.0,0.0,-1.8731,0.0,0.0,0.0,-2.0474,-1.9187,0.0,0.0,0.0,0.0,0.0,0.0,0.0,0.0,-2.2132,0.0,-2.3927,-2.4637,-2.5365,-2.6234,-2.7166,-2.8164,-2.9277,-2.9199,-2.9551,-3.0586,-3.0644,-3.0674,-3.0742,-3.1525,-3.1984,-3.2031,-3.347,-3.4321,-3.4601,-3.5262,-3.5584,-3.5603,-3.5603,-3.5518,-3.5417,-3.519,-3.5034,-3.4945,-3.5375,-3.5628,-3.5904,-3.769,-3.881,-3.9415,-3.9611,-3.988,-4.0101,-4.0158,-4.0321,-4.0489,-4.0489,-4.0489,-4.0489,-4.0489,-4.0489,-4.0489,-4.0489,-4.0489,-4.0489,-4.0489,-4.0489,-4.0489,-4.0489,-4.1251,-4.2175,-4.3002,-4.3852,-4.4718,-4.5603,-4.568,-4.5586,-4.5586,-4.5586,-4.5586,-4.5586,-4.5586,-4.5586,-4.5586,-4.5586,-4.5586,-4.5586,-4.5586,-4.5586,-4.5586,-4.5586,-4.5586,-4.5586,-4.5586,-4.5586,-4.5586,-4.5586,-4.5586,-4.5586,-4.5586,-4.5586,-4.5586,-4.5586,-4.5586,-4.5586,-4.5586,-4.5586,0.0,0.0,0.0,0.0,-2.0679,0.0,0.0,0.0,-1.9355,-1.8285,0.0,0.0,0.0,0.0,0.0,0.0,0.0,0.0,-1.8308,-1.8985,-2.0465,-2.2936,-2.3265,-2.3628,-2.4504,-2.5375,-2.6602,-2.832,-2.7734,-2.8008,-2.9668,-2.9746,-3.0097,-3.0853,-3.0994,-3.1416,-3.2168,-3.2266,-3.3072,-3.4601,-3.4526,-3.4872,-3.5603,-3.5545,-3.5369,-3.5138,-3.5105,-3.4794,-3.4311,-3.4381,-3.4674,-3.5338,-3.7549,-3.8452,-3.8644,-3.9677,-4.0081,-4.0139,-4.0372,-4.0473,-4.0489,-4.0489,-4.0489,-4.0489,-4.0489,-4.0489,-4.0489,-4.0489,-4.0489,-4.0489,-4.0489,-4.0489,-4.0489,-4.0489,-4.1181,-4.2066,-4.2912,-4.3739,-4.4566,-4.5451,-4.5605,-4.5586,-4.5586,-4.5586,-4.5586,-4.5586,-4.5586,-4.5586,-4.5586,-4.5586,-4.5586,-4.5586,-4.5586,-4.5586,-4.5586,-4.5586,-4.5586,-4.5586,-4.5586,-4.5586,-4.5586,-4.5586,-4.5586,-4.5586,-4.5586,-4.5586,-4.5586,-4.5586,-4.5586,-4.5586,-4.5586,-4.5586,0.0,0.0,0.0,0.0,0.0,0.0,-1.9821,0.0,-1.9497,0.0,0.0,0.0,0.0,0.0,0.0,0.0,-1.7748,0.0,0.0,0.0,-1.8854,0.0,0.0,0.0,-2.4111,-2.4203,-2.4888,-2.666,-2.5977,-2.625,-2.8008,-2.9043,-2.9746,-3.0078,-3.0629,-3.1016,-3.1269,-3.1748,-3.2338,-3.2981,-3.3891,-3.4468,-3.4795,-3.5276,-3.5354,-3.5088,-3.4944,-3.4595,-3.4195,-3.4018,-3.4105,-3.4458,-3.5866,-3.701,-3.7928,-3.842,-3.9008,-3.9557,-3.9863,-4.0101,-4.0285,-4.0457,-4.0489,-4.0489,-4.0489,-4.0489,-4.0489,-4.0489,-4.0489,-4.0489,-4.0489,-4.0489,-4.0623,-4.1123,-4.1527,-4.2181,-4.3508,-4.4066,-4.4566,-4.5432,-4.5586,-4.5586,-4.5586,-4.5586,-4.5586,-4.5586,-4.5586,-4.5586,-4.5586,-4.5586,-4.5586,-4.5586,-4.5586,-4.5586,-4.5586,-4.5586,-4.5586,-4.5586,-4.5586,-4.5586,-4.5586,-4.5586,-4.5586,-4.5586,-4.5586,-4.5586,-4.5586,-4.5586,-4.5586,-4.5586,-4.5586,-4.5586,-2.3085,0.0,0.0,0.0,0.0,0.0,0.0,0.0,0.0,0.0,0.0,0.0,0.0,0.0,0.0,0.0,0.0,-1.7481,0.0,-1.7082,0.0,0.0,0.0,0.0,0.0,-2.2863,-2.3113,-2.4882,-2.3984,-2.4316,-2.6523,-2.7832,-2.8848,-2.9512,-3.0195,-3.0563,-3.0629,-3.1273,-3.1672,-3.1821,-3.3237,-3.398,-3.4131,-3.4981,-3.5187,-3.4832,-3.4655,-3.4379,-3.4093,-3.3876,-3.3807,-3.3862,-3.4449,-3.555,-3.6883,-3.7421,-3.8312,-3.9289,-3.9622,-3.9943,-4.0232,-4.0441,-4.0489,-4.0489,-4.0489,-4.0489,-4.0489,-4.0489,-4.0489,-4.0489,-4.0489,-4.0489,-4.0719,-4.1585,-4.1989,-4.2547,-4.3989,-4.4489,-4.4836,-4.547,-4.5586,-4.5586,-4.5586,-4.5586,-4.5586,-4.5586,-4.5586,-4.5586,-4.5586,-4.5586,-4.5586,-4.5586,-4.5586,-4.5586,-4.5586,-4.5586,-4.5586,-4.5586,-4.5586,-4.5586,-4.5586,-4.5586,-4.5586,-4.5586,-4.5586,-4.5586,-4.5586,-4.5586,-4.5586,-4.5586,-4.5586,-4.5586,0.0,-2.4098,0.0,-2.0854,0.0,0.0,0.0,0.0,-2.1103,0.0,0.0,0.0,0.0,0.0,0.0,0.0,0.0,0.0,0.0,0.0,0.0,0.0,0.0,0.0,0.0,-2.11,-2.1338,0.0,-2.1699,-2.2187,-2.5566,-2.5781,-2.6973,-2.9512,-2.9629,-2.9971,-3.0694,-3.0652,-3.1044,-3.1821,-3.2583,-3.324,-3.3843,-3.4704,-3.4794,-3.4223,-3.4223,-3.4068,-3.3815,-3.3788,-3.3807,-3.3807,-3.3825,-3.4357,-3.5303,-3.718,-3.8596,-3.9622,-3.9982,-4.025,-4.0489,-4.0489,-4.0489,-4.0489,-4.0489,-4.0489,-4.0489,-4.0489,-4.0489,-4.0489,-4.0489,-4.0489,-4.0719,-4.1585,-4.245,-4.3297,-4.4124,-4.4951,-4.5566,-4.5586,-4.5586,-4.5586,-4.5586,-4.5586,-4.5586,-4.5586,-4.5586,-4.5586,-4.5586,-4.5586,-4.5586,-4.5586,-4.5586,-4.5586,-4.5586,-4.5586,-4.5586,-4.5586,-4.5586,-4.5586,-4.5586,-4.5586,-4.5586,-4.5586,-4.5586,-4.5586,-4.5586,-4.5586,-4.5586,-4.5586,-4.5586,-4.5586,-2.4005,-2.4238,-2.4133,-2.2726,-2.2416,-2.2115,0.0,0.0,0.0,0.0,0.0,0.0,0.0,0.0,0.0,0.0,0.0,0.0,0.0,0.0,0.0,0.0,0.0,0.0,0.0,0.0,0.0,-2.2246,-2.1797,0.0,-2.3887,-2.5625,-2.6973,-2.7851,-2.9004,-2.9938,-3.0634,-3.0606,-3.0599,-3.0633,-3.1991,-3.2667,-3.2786,-3.4207,-3.4595,-3.42,-3.42,-3.4043,-3.3807,-3.3807,-3.3807,-3.3807,-3.3807,-3.4302,-3.5174,-3.6593,-3.7692,-3.8633,-3.9711,-4.0286,-4.0489,-4.0489,-4.0489,-4.0489,-4.0489,-4.0489,-4.0489,-4.0489,-4.0489,-4.0489,-4.0489,-4.0931,-4.1585,-4.245,-4.3297,-4.4124,-4.497,-4.5393,-4.5586,-4.5586,-4.5586,-4.5586,-4.5586,-4.5586,-4.5586,-4.5586,-4.5586,-4.5586,-4.5586,-4.5586,-4.5586,-4.5586,-4.5586,-4.5586,-4.5586,-4.5586,-4.5586,-4.5586,-4.5586,-4.5586,-4.5586,-4.5586,-4.5586,-4.5586,-4.5586,-4.5586,-4.5586,-4.5586,-4.5586,-4.5586,-4.5586,-4.5586,-2.324,-2.3581,-2.3731,-2.3026,-2.2731,-2.2367,-2.1446,-2.1762,-2.1978,0.0,0.0,0.0,0.0,0.0,0.0,0.0,0.0,0.0,0.0,-1.6244,0.0,0.0,0.0,0.0,0.0,0.0,-1.9492,-2.1309,-2.0859,0.0,0.0,-2.498,-2.6504,-2.7422,-2.8527,-2.9586,-3.0586,-3.0588,-3.0363,-3.0018,-3.1409,-3.2062,-3.2106,-3.3477,-3.4095,-3.4068,-3.4068,-3.3961,-3.3807,-3.3807,-3.3807,-3.3807,-3.3807,-3.4119,-3.4734,-3.6185,-3.7542,-3.8836,-3.9891,-4.0356,-4.0489,-4.0489,-4.0489,-4.0489,-4.0489,-4.0489,-4.0489,-4.0489,-4.0489,-4.0489,-4.0489,-4.1143,-4.2027,-4.2893,-4.3701,-4.4528,-4.5413,-4.5586,-4.5586,-4.5586,-4.5586,-4.5586,-4.5586,-4.5586,-4.5586,-4.5586,-4.5586,-4.5586,-4.5586,-4.5586,-4.5586,-4.5586,-4.5586,-4.5586,-4.5586,-4.5586,-4.5586,-4.5586,-4.5586,-4.5586,-4.5586,-4.5586,-4.5586,-4.5586,-4.5586,-4.5586,-4.5586,-4.5586,-4.5586,-4.5586,-4.5586,-4.5586]}]]